           , 2.000,  2.148,  2.295,  2.443,  2.591,  2.739,  2.886,  3.034,  3.182,  3.329,  3.477,  3.625,  3.773,  3.920,  4.068,  4.216,  4.363,  4.511,  4.659,  4.807,  4.954,  5.102,  5.250,  5.398,  5.545,  5.693,  5.841,  5.988,  6.136,  6.284,  6.432,  6.579,  6.727,  6.875,  7.022,  7.170,  7.318,  7.466,  7.613,  7.761,  7.909,  8.056,  8.204,  8.352,  8.500,  8.647,  8.795,  8.943,  9.091,  9.238,  9.386,  9.534,  9.681,  9.829,  9.977, 10.125, 10.272, 10.420, 10.568, 10.715, 10.863, 11.011, 11.159, 11.306, 11.454, 11.602, 11.750, 11.897, 12.045, 12.193, 12.340, 12.488, 12.636, 12.784, 12.931, 13.079, 13.227, 13.374, 13.522, 13.670, 13.818, 13.965, 14.113, 14.261, 14.409, 14.556, 14.704, 14.852, 14.999, 15.147, 15.295, 15.443, 15.590, 15.738, 15.886, 16.033, 16.181, 16.329, 16.477, 16.624, 16.772, 16.920, 17.067, 17.215, 17.363, 17.511, 17.658, 17.806, 17.954, 18.102, 18.249, 18.397, 18.545, 18.692, 18.840, 18.988, 19.136, 19.283, 19.431, 19.579
2020/01/22 00:05,  999.0,    3.6,    5.1,    5.0,    4.0,    6.0,   10.1,   10.7,   10.5,   11.0,   12.8,   13.9,   14.9,   15.1,   14.9,   15.4,   16.1,   16.5,   16.3,   18.6,   21.9,   22.0,   22.0,   21.8,   24.1,   27.6,   29.1,   29.7,   30.9,   32.8,   33.8,   32.2,   33.4,   33.0,   34.0,   34.0,   36.1,   36.2,   39.0,   42.9,   47.8,   53.7,   60.0,   66.7,   66.3,   66.7,   70.8,   72.3,   72.7,   74.2,   71.8,   75.4,   74.0,   76.9,   78.8,   79.3,   75.6,   77.2,  999.0,   79.0,   77.5,   78.4,   75.8,   79.8,   75.6,   71.4,   76.0,   71.6,  999.0,   70.6,   68.5,   71.6,   72.9,   69.5,  999.0,   71.7,  999.0,  999.0,  999.0,  999.0,   73.1,   78.5,   64.1,   68.2,   67.6,   65.8,   63.4,   63.2,   53.1,   57.2,   50.5,   56.5,  999.0,   54.1,   55.4,   49.8,   49.5,   45.5,   40.1,   34.4,   36.9,   37.2,   35.0,   37.6,   37.3,  999.0,   29.2,   31.0,   30.6,   29.4,   28.1,  999.0,   23.5,   28.7,  999.0,   22.8,  999.0,  999.0,  999.0,  999.0
2020/01/22 00:15,  999.0,    2.7,    5.4,    5.0,    3.3,    6.4,   10.1,   10.4,   10.3,   11.1,   13.1,   14.3,   15.2,   15.3,   14.5,   15.6,   16.4,   15.9,   16.8,   20.3,   21.8,   22.1,   21.1,   23.2,   26.6,   28.4,   30.0,   29.8,   31.2,   33.1,   34.1,   33.1,   33.8,   34.4,   33.4,   34.2,   35.9,   36.8,   40.3,   43.8,   49.0,   54.9,   61.0,   67.8,   68.0,   66.9,   71.4,   69.5,   71.7,   75.4,   71.5,   76.1,   77.3,   77.1,   77.9,   78.9,   76.3,   77.0,  999.0,   78.6,   77.8,   78.5,   77.7,   79.1,  999.0,   73.8,   75.0,   72.3,   70.3,   73.2,   68.6,   71.0,   71.7,   69.9,   76.2,  999.0,  999.0,  999.0,  999.0,   70.9,   74.5,   77.6,   69.9,   67.6,   65.9,   66.4,   64.4,   64.0,   51.4,   53.8,   52.0,   56.7,  999.0,   54.7,  999.0,   47.7,   49.4,   46.4,  999.0,   33.3,   37.0,   34.7,   35.3,   37.2,   35.0,   32.9,   28.1,   28.7,   29.7,   29.9,   28.9,   27.4,   22.7,   28.7,  999.0,  999.0,  999.0,  999.0,   21.5,  999.0
2020/01/22 00:25,  999.0,    2.5,    4.8,    6.0,    3.9,    4.6,    9.5,   10.2,   10.4,   11.7,   11.4,   13.9,   14.6,   15.4,   14.2,   14.8,   16.3,   15.9,   15.7,   19.4,   21.0,   21.6,   20.7,   23.2,   26.9,   28.3,   28.9,   30.3,   31.4,   33.2,   32.5,   33.1,   33.3,   33.7,   33.5,   34.5,   36.3,   37.2,   39.3,   44.5,   49.8,   55.4,   61.1,   66.6,   68.4,   66.0,   70.7,   70.3,   73.5,   75.6,   74.1,   76.5,   79.4,   75.2,   75.9,   78.5,   75.7,   77.8,  999.0,   78.4,   77.8,   78.6,   78.0,   79.7,  999.0,   76.2,  999.0,   75.6,   71.7,   71.8,   70.2,   72.5,   72.0,   78.4,  999.0,   70.3,   75.1,  999.0,  999.0,  999.0,   72.3,   77.1,   67.7,   68.7,   65.6,   66.3,   63.3,   61.2,   54.1,   54.6,   50.7,   54.4,  999.0,  999.0,   52.0,   47.2,   49.1,  999.0,   39.7,  999.0,   35.2,   35.5,   35.3,   33.9,   31.5,  999.0,  999.0,   27.5,   28.5,   29.1,   27.4,   28.8,  999.0,   24.4,  999.0,  999.0,  999.0,   14.7,   17.9,  999.0
2020/01/22 00:35,    2.7,    2.7,    5.7,    5.9,    4.3,    3.5,    9.8,   10.6,   11.1,    9.6,   10.5,   12.9,   14.4,   15.2,   14.4,   14.6,   16.1,   15.7,   15.9,   19.7,   21.1,   21.7,   21.3,   23.7,   26.9,   28.4,   29.2,   30.7,   31.9,   34.0,   33.9,   33.2,   34.5,   33.3,   33.8,   34.6,   36.7,   36.8,   38.7,   43.8,   50.5,   55.6,   60.4,   65.8,   67.4,   65.6,   68.4,   71.1,   74.2,   75.8,   72.8,   77.6,   76.2,   75.7,   77.1,   78.9,   76.6,   77.9,   79.1,   77.6,   77.9,   79.1,   79.0,   76.5,  999.0,   74.4,   75.7,   77.0,   71.7,   70.6,   72.0,   71.2,   71.9,   75.0,   72.6,  999.0,  999.0,  999.0,   72.6,   76.5,   73.1,   76.4,   69.7,   67.2,   65.8,   66.6,   63.6,   59.5,   56.2,   51.7,   50.6,   55.7,  999.0,  999.0,  999.0,  999.0,   48.7,   48.1,   40.9,   35.6,   35.7,   37.7,   35.0,   33.3,  999.0,  999.0,  999.0,  999.0,   27.7,   29.5,   28.7,   28.9,  999.0,   21.7,  999.0,  999.0,  999.0,  999.0,   20.4,  999.0
2020/01/22 00:45,    0.8,    1.3,    4.9,    5.5,    6.4,    4.0,    9.5,   10.6,   11.2,   10.5,    9.6,   12.8,   13.9,   14.7,   13.6,   14.8,   15.5,   14.7,   14.8,   18.7,   20.6,   21.1,   20.8,   23.2,   26.5,   27.6,   29.4,   30.3,   32.2,   34.0,   34.3,   34.2,   33.8,   34.6,   34.6,   35.9,   35.5,   36.6,   38.0,   43.0,   48.9,   54.1,   58.8,   64.2,   68.2,   65.0,   67.8,   72.0,   74.6,   75.2,   74.0,   76.6,   75.5,   76.5,   78.4,   77.2,   77.8,   78.8,   77.7,   79.0,   76.9,   79.4,   79.7,   75.3,  999.0,   74.9,   77.1,   74.1,   72.7,   70.4,   68.7,   73.2,   72.9,   70.4,   74.5,  999.0,  999.0,   73.0,  999.0,   72.2,   75.0,  999.0,   70.1,   67.8,   66.6,   67.2,   62.4,   59.0,   55.1,   52.8,   50.0,   54.1,   57.5,  999.0,   53.8,   55.4,   46.4,  999.0,   37.3,  999.0,   34.2,   37.7,   36.8,   33.5,   34.3,   35.4,  999.0,   27.5,   28.4,   28.4,   29.1,   26.1,  999.0,  999.0,   23.0,  999.0,  999.0,  999.0,   19.2,   14.8
2020/01/22 00:55,    1.4,    2.3,    4.7,    4.6,    5.6,    2.3,    8.5,   10.5,   11.0,   10.8,   11.4,   12.8,   14.5,   14.6,   13.8,   14.9,   15.7,   14.6,   16.4,   19.2,   21.3,   21.0,   21.1,   23.8,   26.8,   28.7,   29.3,   30.5,   32.1,   33.5,   34.0,   34.5,   34.3,   33.9,   34.3,   35.6,   36.6,   36.7,   37.6,   42.8,   48.4,   53.0,   57.3,   62.5,   67.9,   64.6,   69.3,   72.0,   74.2,   77.9,   71.1,   74.6,   75.4,   78.0,   76.1,   78.7,   78.7,   78.2,   75.5,  999.0,   76.4,   79.4,   77.2,   76.1,  999.0,   72.8,   77.9,   75.0,   71.8,   72.4,   69.1,   72.6,   71.9,   69.4,   73.7,   75.0,   76.8,   70.2,   75.8,   71.5,   73.8,   76.8,   65.6,   66.1,   68.0,   66.2,   61.6,   60.0,   55.5,   56.5,   49.5,   52.3,   55.8,  999.0,   58.2,   43.5,   47.7,   44.7,   42.4,  999.0,   33.5,   37.5,   37.0,  999.0,   33.6,   33.0,  999.0,   27.4,   28.5,   30.7,   25.8,   28.2,  999.0,   25.4,  999.0,  999.0,  999.0,   20.2,   21.2,   17.0
2020/01/22 01:05,    0.9,    2.4,    4.4,    3.8,    5.3,    8.9,    7.2,    9.9,   10.5,    9.6,   10.4,   12.2,   13.6,   14.5,   13.5,   14.1,   15.4,   14.0,   15.6,   18.4,   20.4,   21.3,   20.4,   22.8,   26.0,   28.8,   29.3,   30.8,   32.2,   34.1,   35.1,   33.5,   32.8,   34.1,   35.2,   35.7,   37.9,   36.5,   38.8,   43.7,   48.7,   52.3,   56.9,   61.9,   66.2,   65.2,   68.4,   71.9,   74.4,   72.8,   70.5,   75.4,   77.6,   77.9,   74.7,   77.8,   79.0,   78.0,   75.3,  999.0,   75.1,   78.0,   76.1,   72.6,   77.6,   69.5,   77.2,   72.7,   69.7,   72.2,   71.1,   70.0,   70.3,   70.9,   72.4,   74.3,  999.0,  999.0,  999.0,   69.1,   75.0,   74.3,   67.1,   65.6,   67.4,   64.4,   63.0,   61.3,   53.8,  999.0,   49.0,   51.9,   54.9,  999.0,  999.0,   46.6,   46.8,   48.5,   39.3,   34.8,   32.7,   38.0,   34.8,   35.3,   31.5,   31.8,   32.7,   26.6,   27.7,   27.1,   27.1,   26.3,   27.2,   22.3,  999.0,  999.0,  999.0,  999.0,   20.6,   17.4
2020/01/22 01:15,    0.4,    2.3,    4.1,    1.0,    3.3,    7.9,    8.8,    9.1,   10.6,   10.2,   10.5,   11.8,   13.5,   14.5,   14.0,   14.9,   15.4,   14.1,   16.5,   19.1,   21.0,   19.9,   21.0,   24.2,   28.1,   31.0,   30.3,   32.1,   32.7,   34.6,   35.3,   33.7,   33.7,   35.4,   34.3,   36.3,   37.6,   35.8,   39.0,   44.3,   48.0,   52.9,   58.0,   62.4,   66.4,   64.9,   70.2,   69.5,   75.2,   74.0,   71.0,   75.0,   77.3,   77.8,   77.4,   77.8,   78.3,   77.2,   75.8,  999.0,   75.2,   78.5,   77.4,  999.0,  999.0,   72.5,  999.0,   70.2,   74.0,   72.1,   72.6,   70.0,   70.5,   72.8,   73.0,   70.7,   76.9,  999.0,   72.9,  999.0,   72.1,   76.0,   66.5,   66.3,   68.3,   64.9,   65.2,   62.0,   53.6,   55.6,   51.0,   52.9,   56.1,   58.3,   54.5,  999.0,   47.3,   47.2,   40.8,   33.3,   34.9,   35.4,   34.7,   31.8,   30.4,   30.7,   32.2,   27.0,   28.9,   30.6,   26.9,  999.0,  999.0,  999.0,  999.0,  999.0,  999.0,  999.0,   17.2,   16.1
2020/01/22 01:25,    1.3,    2.4,    3.9,    2.4,    5.6,    8.7,    9.6,   10.3,   10.8,   10.9,    9.9,   12.7,   13.9,   15.2,   14.1,   15.5,   15.9,   14.3,   17.1,   20.1,   21.4,   21.5,   20.2,   22.7,   26.3,   29.8,   31.5,   32.1,   32.8,   33.8,   34.4,   33.4,   33.4,   35.2,   35.0,   36.3,   37.7,   36.7,   39.0,   43.7,   48.0,   53.4,   58.1,   62.6,   65.2,   64.6,   71.3,   69.3,   75.3,   75.0,   71.2,   73.2,   74.6,   78.6,   75.6,   77.7,   78.7,   73.3,   76.3,  999.0,   74.0,   79.6,   77.8,   75.3,  999.0,   73.2,  999.0,   71.1,   71.7,   72.6,   69.2,   70.1,   73.9,   72.0,   72.9,   73.5,   77.9,  999.0,  999.0,  999.0,   73.6,   75.6,   70.8,   66.4,   67.5,   64.9,   66.2,   64.1,  999.0,  999.0,   50.5,   49.7,   54.9,   58.6,  999.0,  999.0,   48.0,   49.7,   45.2,   37.1,   37.5,   35.8,   37.1,   33.5,   33.0,   32.5,   33.5,   29.3,   28.7,   30.0,   30.9,   24.5,   24.7,   26.3,  999.0,  999.0,  999.0,  999.0,  999.0,   15.9
2020/01/22 01:35,    0.6,    1.2,    3.6,    1.6,    5.8,    8.3,    9.3,   10.1,   10.7,   10.8,   12.0,   13.0,   14.9,   14.6,   14.9,   17.0,   16.9,   14.1,   16.4,   20.1,   21.7,   20.7,   20.8,   23.2,   26.7,   30.4,   31.9,   32.8,   32.7,   32.7,   33.2,   31.1,   33.2,   34.6,   33.8,   35.5,   37.3,   37.4,   39.3,   42.9,   47.1,   52.8,   58.5,   62.2,   65.7,   64.3,   70.0,   69.7,   73.4,   72.9,   71.7,   74.4,   75.2,   76.7,   74.0,   76.7,   77.3,   74.9,   78.0,  999.0,   76.1,   76.5,   78.8,  999.0,   76.4,   73.1,   78.3,  999.0,   71.2,   70.0,   70.9,   70.2,   74.3,   73.0,   70.6,   73.2,   74.3,  999.0,   72.7,   70.9,   72.5,   75.2,   66.8,   64.7,   68.3,   66.0,   64.3,   61.4,   57.8,   51.3,  999.0,   50.3,   53.7,   60.2,  999.0,  999.0,   46.5,   50.6,  999.0,   35.5,  999.0,  999.0,   32.8,   30.9,   33.1,   32.6,   35.2,   29.0,   29.6,   28.8,   30.0,   24.5,   22.8,   22.1,   22.4,  999.0,  999.0,  999.0,  999.0,   17.5
2020/01/22 01:45,    1.8,    1.7,    1.8,    2.9,    8.0,    9.0,    9.2,    9.8,    9.7,   10.9,    0.2,   13.3,   14.6,   12.8,   15.0,   16.4,   16.6,   14.0,   17.3,   20.5,   21.9,   21.0,   22.0,   25.0,   27.9,   30.3,   31.7,   32.8,   33.6,   32.6,   32.0,   31.0,   33.5,   34.0,   33.6,   35.1,   37.0,   37.2,   39.4,   43.0,   47.2,   52.2,   56.5,   61.6,   66.1,   63.3,   68.8,   70.2,   72.3,   71.3,   73.4,   75.3,   74.4,   77.6,   75.0,   77.4,   76.4,   73.2,   78.9,  999.0,   77.3,   76.4,   78.5,  999.0,   76.6,   74.5,   77.6,  999.0,   71.7,   67.9,   70.2,   69.4,   73.4,   76.5,   70.1,   71.6,   73.5,  999.0,   74.9,   73.2,   71.3,   75.9,   67.7,   63.6,   66.1,   64.0,   63.9,   59.0,   58.4,  999.0,   51.1,   49.8,  999.0,   54.6,  999.0,   46.2,   43.4,   48.5,   42.8,   32.1,   35.4,   35.0,  999.0,  999.0,   29.2,   31.4,   32.4,   28.3,   29.1,   27.8,   29.1,   25.1,   23.8,   22.4,   19.7,   21.6,   20.7,   18.6,   17.5,   15.7
2020/01/22 01:55,    1.6,    1.5,    2.4,    5.1,    7.5,    8.4,    9.3,    9.1,   10.1,   10.4,    0.0,  999.0,   14.3,   13.5,   14.9,   16.1,   13.8,   14.9,   18.7,   20.8,   22.1,   21.0,   23.1,   25.9,   28.9,   30.8,   31.7,   32.9,   33.5,   32.5,   32.0,   32.4,   34.2,   31.8,   33.3,   34.5,   36.0,   37.4,   39.1,   43.4,   48.0,   52.5,   58.1,   63.2,   64.9,   65.1,   67.5,   71.3,   72.4,   72.9,   74.0,   72.7,   76.0,   77.1,   78.2,   74.0,   75.7,   74.5,   78.9,   74.1,   76.3,   76.0,   76.9,   75.6,   74.8,   75.5,   76.5,   74.2,   73.0,   69.1,   69.7,   70.0,   73.4,   71.4,   75.4,   72.6,   72.4,  999.0,   71.2,   68.2,   72.2,   76.6,   65.4,   64.0,   66.2,   66.3,   62.7,   59.7,   56.1,  999.0,   45.8,   49.4,   53.7,   52.0,  999.0,   51.5,   43.2,   46.3,   41.6,   33.0,   32.9,   35.3,   35.0,   28.7,   28.7,   30.1,   30.6,   28.5,   29.3,   32.4,   27.9,   28.2,  999.0,   20.5,   22.5,   19.7,   18.9,  999.0,   17.7,   17.9
2020/01/22 02:05,  999.0,  999.0,    2.2,    5.7,    6.7,    8.5,    9.3,    9.8,   10.6,    7.9,   11.9,  999.0,   13.7,   13.4,   14.9,   15.3,   14.0,   15.5,   19.1,   21.0,   22.6,   21.7,   24.1,   26.9,   29.0,   30.4,   32.1,   32.6,   33.4,   32.8,   33.2,   32.3,   32.8,   31.8,   32.6,   33.7,   35.1,   37.0,   38.2,   42.9,   48.0,   51.6,   56.9,   62.1,   65.3,   64.5,   68.3,   70.1,   74.3,   75.5,   72.8,   75.4,   74.7,   77.5,   75.3,   77.0,   74.2,   78.9,   79.7,   77.2,   77.8,   73.3,   77.1,   79.1,   74.9,   78.8,   76.3,   74.9,   77.3,   72.5,   69.9,   76.3,   71.5,   71.1,   74.1,   70.0,   76.5,  999.0,   71.0,   74.2,   72.7,   75.3,   68.4,   66.5,   68.5,   64.5,   62.6,   61.5,   55.0,   54.4,   51.8,   54.8,   57.9,  999.0,   53.2,   54.3,   44.9,   45.1,   38.0,   38.4,   33.3,   34.4,   37.5,   30.2,   29.8,   30.9,   30.2,   33.4,   28.7,   31.0,  999.0,   28.2,  999.0,   22.3,   22.3,   20.2,   19.7,  999.0,  999.0,  999.0
2020/01/22 02:15,  999.0,  999.0,    3.2,    2.1,    6.6,    8.1,    9.1,    9.2,   10.5,   11.2,    4.9,  999.0,   14.0,   13.6,   14.8,   16.0,   13.5,   15.4,   18.8,   20.6,   21.8,   22.7,   25.1,   26.4,   28.6,   30.1,   31.4,   32.0,   32.4,   32.1,   31.7,   33.9,   33.7,   31.7,   32.2,   33.2,   35.3,   36.5,   37.5,   41.8,   47.3,   51.8,   57.3,   63.4,   63.3,   67.0,   69.1,   71.2,   74.3,   69.1,   73.9,   77.5,   77.2,   76.1,   76.1,   77.4,   73.4,   79.2,   78.5,   78.4,   76.6,   72.1,   77.2,   77.4,   74.9,   78.3,   76.3,   78.4,   75.7,   75.3,   70.5,   75.4,   71.2,   73.9,   72.1,   71.9,   77.0,  999.0,   72.9,   73.6,   74.9,   72.8,   69.1,   68.0,   68.9,   62.5,   64.9,   61.0,   55.9,   56.4,   51.1,   54.7,  999.0,  999.0,  999.0,   52.7,   47.7,   45.5,   42.6,  999.0,   32.9,   33.2,   35.7,   36.8,   28.2,   29.5,   30.0,   32.4,  999.0,  999.0,  999.0,   27.7,   30.7,   19.2,   21.2,   18.4,   17.8,   16.6,   17.9,   14.7
2020/01/22 02:25,  999.0,  999.0,    3.2,    5.7,    6.6,    8.1,    8.6,   10.4,   11.0,   11.2,  999.0,    6.4,   13.5,   13.6,   15.1,   15.8,   14.3,   16.1,   19.4,   20.9,   22.7,   23.8,   25.4,   27.6,   28.4,   29.7,   31.1,   32.4,   32.8,   32.4,   30.9,   32.8,   34.0,   32.0,   33.4,   35.1,   35.3,   36.2,   37.5,   41.7,   47.4,   52.4,   57.6,   64.1,   62.3,   66.6,   68.8,   71.7,   73.9,  999.0,   75.2,   75.1,   74.5,   75.9,   74.8,   77.3,   76.4,  999.0,   76.8,  999.0,  999.0,   73.8,   78.1,   76.8,   73.0,   77.4,   75.8,   74.4,   78.0,   75.0,   74.7,   70.2,   73.4,   74.0,   73.5,   70.3,   76.3,  999.0,   74.7,   73.5,   73.3,   76.4,   69.3,   68.7,   69.3,   62.7,   64.6,   61.8,   54.7,   60.7,   49.7,   60.5,  999.0,  999.0,  999.0,   51.0,   50.3,   45.0,   39.4,  999.0,  999.0,   31.7,   34.0,   36.6,   28.9,   28.7,   27.9,   30.3,  999.0,   27.2,  999.0,   26.5,   29.3,  999.0,   19.0,   18.8,   16.4,  999.0,   15.5,   13.8
2020/01/22 02:35,  999.0,    3.2,    3.9,    6.3,    6.6,    7.2,    8.9,  999.0,   11.1,   11.1,    0.4,  999.0,   13.5,   13.9,   15.5,   15.6,   14.5,   16.1,   19.4,   21.1,   22.7,   23.9,   25.7,   27.9,   28.8,   30.2,   30.9,   32.1,   32.9,   33.3,   32.6,   32.9,   33.2,   33.8,   33.3,   33.8,   35.1,   35.9,   37.8,   42.0,   47.0,   52.5,   58.7,   63.3,   63.5,   66.7,   68.8,   71.0,   71.4,   76.3,   74.5,   73.7,   74.9,   77.2,   74.1,   76.5,   77.8,  999.0,   77.9,  999.0,  999.0,   73.0,   77.6,   77.0,   74.8,   77.2,   71.6,   76.3,   75.9,   74.2,   72.7,   72.8,   74.5,   70.8,   72.4,   74.8,   73.0,  999.0,  999.0,   73.8,   72.8,   77.6,   65.5,   68.0,   67.9,   62.7,   64.7,   58.8,   57.3,   54.2,   50.3,   55.3,  999.0,   54.6,   55.2,   55.1,   47.8,   48.1,  999.0,  999.0,  999.0,   34.9,   33.7,   35.7,   32.1,   27.2,   27.9,   29.9,  999.0,   26.9,  999.0,   27.1,   28.7,  999.0,   19.8,   20.2,  999.0,  999.0,   17.3,   14.9
2020/01/22 02:45,  999.0,    3.5,    4.4,    6.4,    6.7,    7.3,    9.8,   10.7,   10.8,    8.5,  999.0,  999.0,   13.3,   13.5,   15.7,   16.2,   14.6,   16.3,   19.3,   21.0,   23.1,   24.8,   25.8,   27.8,   29.2,   30.1,   30.6,   31.4,   32.5,   32.8,   33.8,   33.0,   33.0,   33.0,   33.8,   34.7,   35.3,   35.7,   38.7,   42.8,   46.8,   52.6,   58.2,   62.0,   64.1,   65.1,   68.8,   70.6,   72.9,   72.9,   75.4,   72.2,   76.5,   76.1,   77.5,   77.2,   76.3,   77.4,   78.9,  999.0,   74.2,   73.7,   76.4,   79.1,   72.2,   78.7,   71.0,   78.5,   71.8,   74.6,   71.6,   75.4,   75.1,   70.2,   71.6,   70.8,   73.0,   77.6,   69.3,   71.9,   73.2,   77.9,   65.0,   69.0,   64.7,   64.6,   65.2,   59.2,   55.2,   56.7,   49.6,   54.2,   53.6,   58.9,  999.0,  999.0,   46.7,   43.4,   45.2,   40.5,  999.0,   35.2,   33.3,   34.9,   33.0,   25.0,   26.9,   28.1,  999.0,   25.2,   30.1,   26.1,   33.8,  999.0,   21.4,   22.8,  999.0,  999.0,   20.5,   19.2
2020/01/22 02:55,    2.7,    2.8,    6.3,    7.2,    7.3,    6.6,   10.4,    2.4,    9.8,   10.3,    8.2,   12.9,   13.1,   13.9,   16.4,   16.7,   15.0,   16.7,   19.7,   21.4,   23.5,   25.3,   26.7,   27.6,   29.6,   29.9,   30.0,   31.2,   32.0,   34.7,   35.1,   35.3,   35.2,   33.8,   34.1,   34.5,   34.9,   36.5,   39.9,   43.8,   48.0,   53.5,   58.2,   62.4,   62.3,   64.6,   68.7,   71.6,   75.1,   70.3,   72.4,   76.0,   78.0,   77.1,   74.6,   77.1,   78.4,   76.9,  999.0,  999.0,   75.5,   74.3,   76.9,   79.3,   74.1,   78.4,   70.2,   77.9,   72.9,   71.4,   73.3,   75.9,   72.0,   72.6,   74.2,   74.0,   69.8,   77.7,  999.0,   68.5,   74.9,   77.7,   64.9,   70.6,   65.7,   63.4,   64.6,   60.4,   54.2,   53.6,   48.8,   55.0,  999.0,  999.0,  999.0,  999.0,   44.8,   42.6,   42.1,   39.7,  999.0,   32.6,   30.5,   30.0,   30.0,   23.4,   24.1,  999.0,   30.3,  999.0,  999.0,   25.6,   25.1,  999.0,   18.3,   17.4,  999.0,  999.0,   17.7,   14.4
2020/01/22 03:05,    2.1,    2.5,    6.4,    6.8,    7.1,    8.5,   10.5,  999.0,   10.0,   11.7,  999.0,   12.5,   13.3,   14.0,   15.7,   16.7,   15.4,   17.0,   19.0,   21.6,   24.0,   25.2,   26.7,   27.4,   27.8,   28.5,   29.0,   30.7,   32.2,   34.7,   34.3,   35.4,   34.0,   34.7,   36.1,   35.5,   34.0,   36.3,   40.3,   44.5,   49.2,   54.9,   59.5,   64.1,   63.8,   64.9,   67.1,   70.1,   76.1,   71.1,   72.9,   74.8,   75.9,   78.0,   75.6,   76.3,   77.8,   78.2,  999.0,   76.5,   76.4,   76.1,   77.2,   75.7,   75.3,   75.9,   69.9,   76.7,   72.1,   72.2,   73.6,   74.1,   69.7,   70.7,   74.9,   70.5,   74.9,  999.0,  999.0,   68.2,   74.7,   72.7,   64.4,   67.6,   66.3,   61.4,   63.5,   61.1,   54.7,   53.5,   48.5,   53.1,   54.2,  999.0,  999.0,  999.0,   47.2,   45.0,   42.0,   39.9,  999.0,  999.0,   30.2,   30.0,   29.9,   26.7,  999.0,   27.2,  999.0,  999.0,  999.0,  999.0,  999.0,   19.1,   17.8,   18.2,   15.7,   13.0,   18.4,  999.0
2020/01/22 03:15,    2.3,    2.9,    6.9,    7.1,    6.5,    7.6,   10.6,   11.3,   10.7,   11.5,    5.5,  999.0,   13.3,   13.6,   15.2,   15.8,   15.5,   18.0,   19.9,   21.8,   24.7,   25.3,   26.4,   27.0,   27.0,   27.4,   28.4,   29.7,   32.0,   33.5,   33.8,   32.6,   33.7,   33.6,   35.0,   34.3,   33.2,   36.8,   40.7,   46.2,   51.7,   56.3,   59.4,   63.2,   61.9,   66.5,   68.0,   69.4,   73.4,  999.0,   70.9,   73.4,   75.1,   77.2,   75.0,   76.3,   79.0,   79.8,  999.0,   75.5,   73.2,   77.3,   78.1,   75.1,   75.8,  999.0,   69.2,   75.8,   72.7,   76.0,   71.7,   74.3,   69.8,   67.2,   73.0,   67.3,   75.5,  999.0,  999.0,   69.6,   74.6,   71.2,   68.1,   68.4,   66.4,   60.0,   61.8,   59.2,   56.1,   51.2,   47.5,   52.4,   53.7,   53.6,   57.8,  999.0,   47.3,   47.8,   40.0,   40.0,   36.3,   31.8,   32.2,   31.6,   30.6,   27.9,   27.1,   26.2,  999.0,  999.0,  999.0,  999.0,  999.0,   22.5,   21.4,   17.4,  999.0,  999.0,   18.6,   16.5
2020/01/22 03:25,    2.9,    2.6,    5.5,    5.3,    6.7,    7.4,   11.0,   11.4,   10.5,   12.0,    6.3,    0.2,   13.1,   14.3,   15.9,   16.5,   15.9,   17.5,   19.6,   21.7,   24.9,   25.4,   26.1,   27.0,   27.1,   27.0,   28.4,   30.0,   32.6,   32.5,   33.7,   33.2,   33.6,   33.9,   34.2,   33.4,   32.7,   36.7,   41.8,   46.9,   51.8,   56.8,   59.2,   63.4,   60.9,   66.5,   67.8,   69.0,   72.3,   76.7,  999.0,   71.6,   74.4,   76.9,   76.1,   78.6,   78.6,   78.1,   79.5,   78.0,   73.2,   78.3,   79.5,   73.0,   76.7,  999.0,   70.1,   75.8,   71.2,   76.9,   71.4,   76.0,   71.1,   69.5,   72.9,   70.0,   72.0,   77.0,  999.0,   68.3,   75.1,   73.6,   67.9,   69.6,   66.0,   70.0,   61.1,   59.8,   53.7,   53.8,   47.6,   53.0,  999.0,   54.5,   57.5,  999.0,   45.8,  999.0,   38.9,   39.4,   37.4,   36.1,   32.6,   33.4,   33.0,   29.3,   27.7,   26.5,  999.0,  999.0,  999.0,  999.0,  999.0,   21.9,   23.3,   18.5,  999.0,   17.2,   18.0,   13.7
2020/01/22 03:35,    3.2,    3.3,    5.3,    6.0,    6.5,    7.8,   10.2,  999.0,  999.0,   12.7,    0.5,  999.0,   13.2,   14.0,   15.5,   16.6,   15.6,   17.2,   19.3,   21.6,   24.8,   25.0,   26.2,   26.1,   26.7,   27.6,   28.3,   30.1,   32.7,   32.5,   33.1,   32.8,   33.8,   34.1,   33.7,   33.1,   34.5,   37.9,   43.6,   48.1,   52.9,   57.6,   59.1,   64.0,   62.5,   64.6,   69.4,   67.8,   71.4,   76.0,   75.2,   69.5,   74.3,   74.1,   75.3,   77.8,  999.0,   76.2,  999.0,   78.3,   75.3,   77.4,   78.0,   74.6,   77.1,  999.0,   73.7,   73.1,   71.6,   74.6,   73.1,   75.0,   71.5,   73.7,   69.2,   73.4,   70.7,   76.7,  999.0,   68.1,   76.4,   71.2,   67.4,   70.7,   65.7,   65.9,   60.2,   58.5,   58.5,   45.7,   49.4,   53.1,   54.7,  999.0,  999.0,   51.4,   47.8,   47.4,   41.5,   39.0,   36.0,   36.4,   30.8,   32.1,   31.9,   27.6,   26.9,   28.5,  999.0,  999.0,  999.0,  999.0,  999.0,   17.7,   20.8,   16.6,  999.0,  999.0,   16.7,   12.7
2020/01/22 03:45,    3.7,    3.9,    5.4,    6.4,    7.6,    7.3,    9.8,   11.4,    4.1,   12.0,    4.8,    6.4,   12.7,   13.3,   15.4,   16.7,   15.9,   16.5,   18.2,   20.9,   24.1,   24.6,   25.7,   25.6,   27.3,   28.0,   28.1,   29.7,   32.3,   31.9,   33.1,   33.3,   33.9,   33.8,   34.2,   34.8,   36.0,   39.1,   43.5,   48.6,   53.5,   57.5,   59.4,   62.5,   63.6,   64.3,   69.6,   67.7,   70.5,   75.9,  999.0,   70.8,   75.2,   73.9,   75.5,   78.6,   77.0,   78.2,   79.7,  999.0,   75.8,   77.1,   78.2,   72.5,   77.8,  999.0,   74.4,   74.4,   72.4,   74.4,   73.7,   74.3,   70.2,   72.9,   67.8,   73.8,   72.2,   75.8,  999.0,   71.5,   76.8,   71.1,   67.7,   67.6,   65.1,   66.5,   59.3,   58.6,   57.8,   55.7,   51.6,   53.5,   56.2,   55.9,  999.0,   58.4,   42.3,   46.6,   38.6,   40.8,   37.7,   36.7,   34.3,   31.7,   32.5,  999.0,   27.3,   30.3,  999.0,  999.0,  999.0,  999.0,  999.0,  999.0,  999.0,  999.0,   16.2,  999.0,   15.8,  999.0
2020/01/22 03:55,    2.7,    4.3,    6.0,    4.9,    3.8,    4.8,    9.7,   11.3,    9.9,   12.1,  999.0,  999.0,   13.2,   13.4,   14.8,   16.4,   15.8,   16.4,   18.2,   20.7,   23.8,   24.6,   25.4,   26.8,   28.2,   27.8,   28.7,   31.1,   32.4,   33.9,   32.0,   33.2,   34.0,   34.6,   33.9,   34.2,   36.6,   38.6,   43.2,   49.4,   54.6,   57.3,   59.8,   63.1,   62.9,   65.2,   68.9,   68.8,   71.5,   77.4,   73.5,   70.6,   74.0,   72.8,   76.6,   77.8,   79.0,   77.8,   78.3,  999.0,   73.3,   77.4,   79.8,   72.0,   77.9,   71.0,   76.6,   71.3,   74.5,   73.9,   73.9,   74.2,   71.5,   74.3,   70.2,   72.6,   73.7,   78.6,  999.0,   70.5,   74.7,   72.5,   69.1,   68.4,   68.4,   66.6,   59.2,   58.0,   56.3,   57.7,   52.1,   51.5,   53.8,   57.6,   53.2,   58.0,   41.3,   44.5,   45.2,   38.4,  999.0,   35.3,   33.3,   32.1,   32.7,   28.1,   27.3,   30.9,  999.0,  999.0,  999.0,  999.0,  999.0,   21.2,   20.7,   15.4,   16.2,   17.3,  999.0,  999.0
2020/01/22 04:05,  999.0,    5.9,    5.7,    2.9,    3.2,    7.7,    9.2,   11.2,   11.4,   11.4,  999.0,  999.0,   13.5,   13.5,   15.1,   16.3,   16.3,   16.4,   18.2,   20.6,   24.2,   25.2,   26.0,   27.4,   28.0,   28.0,   29.2,   31.4,   33.2,   33.8,   34.6,   33.5,   33.0,   34.3,   33.2,   33.3,   36.1,   39.3,   44.0,   49.6,   53.1,   57.4,   61.3,   62.6,   62.5,   64.0,   68.9,   68.5,   71.5,   75.6,   71.1,  999.0,   68.6,   71.2,   77.9,  999.0,   79.7,   77.6,   78.0,  999.0,   75.4,   78.0,   77.9,   71.9,   78.9,   72.2,   76.8,   70.9,   72.5,   73.4,   71.1,   75.3,   69.6,   75.7,   71.1,   74.3,   76.4,  999.0,  999.0,   70.3,   73.4,   71.8,   71.1,   69.6,   69.0,   66.1,   60.3,   60.4,   56.6,   60.4,   55.9,   53.0,   58.4,   60.8,   58.1,  999.0,   41.5,   45.3,   41.8,   37.3,   35.8,   35.7,   33.7,   34.0,   30.1,   31.5,   27.6,   30.6,  999.0,   24.5,  999.0,  999.0,  999.0,  999.0,   17.8,   17.0,   16.9,  999.0,  999.0,  999.0
2020/01/22 04:15,    1.8,    3.8,    5.8,    2.9,    0.8,    7.6,   10.1,   11.0,   11.6,   12.1,    4.1,  999.0,   13.2,   13.9,   15.2,   16.1,   15.7,   16.4,   18.2,   21.5,   24.7,   25.4,   27.2,   28.5,   28.3,   27.8,   29.8,   32.4,   33.5,   33.6,   33.1,   34.0,   34.1,   33.6,   32.6,   34.8,   36.7,   40.2,   45.5,   49.8,   53.0,   58.9,   60.7,   61.6,   63.4,   66.1,   68.8,   67.5,   72.1,   74.7,   70.8,   70.8,   69.4,   72.5,   78.7,  999.0,   79.8,   77.9,  999.0,  999.0,   75.1,   80.0,   71.2,   76.1,  999.0,   73.2,   77.0,   67.5,   74.5,   72.0,   75.4,   75.7,   69.4,   75.7,   69.6,   74.7,   75.2,   72.6,   77.0,   70.5,   74.1,   70.4,   73.9,   68.0,   66.7,   69.2,  999.0,   59.6,   55.0,   58.6,   55.2,   55.2,   57.5,   56.2,   56.9,   56.9,   41.1,   44.1,   44.1,   37.4,   37.5,   36.5,   31.8,   31.5,   29.6,   30.2,   26.6,   29.3,   29.6,  999.0,  999.0,   25.6,   25.8,  999.0,   18.1,   17.2,   16.3,  999.0,  999.0,  999.0
2020/01/22 04:25,    2.8,    5.0,    6.3,    6.2,    1.5,    7.3,   10.1,   10.8,   11.3,   11.7,    5.4,  999.0,   12.7,   13.8,   14.6,   16.0,   15.6,   16.5,   17.8,   22.6,   25.1,   25.7,   27.4,   27.9,   28.9,   30.0,   31.2,   31.8,   31.3,   32.3,   32.9,   34.5,   33.9,   33.4,   33.5,   33.4,   36.2,   40.9,   45.8,   49.9,   53.8,   59.0,   59.0,   60.8,   63.6,   67.4,   67.1,   67.3,   71.5,   77.6,   71.4,   69.3,   67.7,   72.0,   79.2,   78.9,   78.5,  999.0,   79.7,   79.2,   79.2,   79.1,   73.4,   77.1,   70.2,   71.6,   77.9,   69.6,   71.9,   73.9,   75.0,   73.9,   69.2,   74.7,   70.3,   75.6,   73.5,   75.1,  999.0,  999.0,   69.4,   69.6,   73.3,   67.8,   66.2,   65.3,   71.0,   61.4,   56.7,   57.4,   59.7,   55.5,   56.7,   55.6,   56.6,  999.0,   45.7,   42.0,   41.6,   41.5,   34.5,   37.0,  999.0,   32.2,   30.9,   31.3,   27.5,   29.0,   29.5,   26.6,   28.6,   23.8,   26.1,  999.0,   15.6,   15.6,   17.6,  999.0,   15.3,  999.0
2020/01/22 04:35,    4.1,    5.0,    6.4,    0.7,    5.6,    6.8,   10.3,   11.1,   11.8,   12.3,  999.0,    0.1,   13.7,   14.7,   15.9,   17.1,   16.5,   16.7,   18.5,   22.4,   24.7,   25.0,   26.0,   27.7,   29.0,   30.9,   31.4,   31.8,   30.3,   32.1,   33.3,   33.5,   33.2,   33.8,   34.1,   35.1,   38.4,   43.1,   45.5,   49.9,   53.5,   59.0,   60.0,   62.0,   65.2,   65.3,   68.0,   69.3,   70.9,   76.3,  999.0,   73.0,   69.3,   72.3,   78.9,  999.0,   77.8,   78.9,  999.0,   78.6,   75.1,   78.7,   72.2,   76.5,   71.8,   74.7,   76.9,   71.2,   73.5,   73.4,   73.6,   73.5,   68.5,   73.3,   70.8,   77.6,   71.9,   74.3,  999.0,   75.2,   69.7,   69.6,   73.0,   65.4,   67.6,   63.2,   66.8,   60.1,   53.6,   57.4,   55.1,   54.2,   55.5,   57.7,  999.0,  999.0,  999.0,   41.3,   42.2,   39.3,   35.5,   35.5,   33.3,   34.5,   30.9,   30.5,   31.3,   29.3,   27.1,  999.0,  999.0,   23.1,   25.5,  999.0,   15.0,   15.2,   15.3,  999.0,  999.0,  999.0
2020/01/22 04:45,    5.0,    5.9,    6.3,    2.2,    6.5,    3.5,    9.9,   10.8,  999.0,   12.2,  999.0,    0.2,   14.0,   14.8,   15.8,   17.3,   17.0,   17.2,   18.8,   22.8,   25.0,   25.5,   27.2,   27.9,   29.0,   31.0,   31.7,   31.3,   31.2,   31.5,   32.2,   33.3,   33.6,   34.0,   34.9,   37.6,   40.7,   44.4,   44.6,   49.4,   53.3,   57.7,   62.2,   59.8,   65.1,   67.6,   67.4,   69.7,   70.0,   74.6,  999.0,   70.4,   70.0,   72.3,   77.9,   78.8,   78.2,   76.8,   77.0,   78.2,  999.0,   78.2,  999.0,   73.6,   72.2,   76.1,   75.7,   71.4,   73.8,   73.0,   74.1,   73.4,   73.0,   70.3,   71.9,   73.6,   72.1,   75.9,  999.0,   71.5,   73.9,   68.1,   74.3,   64.0,   67.9,   65.1,   65.4,  999.0,   53.4,   57.7,   54.3,   55.4,   57.2,   61.4,  999.0,  999.0,  999.0,   40.8,   43.5,   39.8,   33.9,   35.6,   35.8,   32.2,   33.7,   32.2,   33.8,   29.7,   29.4,  999.0,   25.1,   26.0,   26.5,  999.0,   15.5,   15.0,   16.7,  999.0,  999.0,  999.0
2020/01/22 04:55,    5.2,    5.5,    6.3,    4.1,    4.3,    6.5,    9.7,   12.1,   11.8,   12.9,   13.2,  999.0,   13.4,   14.4,   16.2,   17.5,   17.2,   17.6,   19.2,   23.3,   25.7,   26.9,   26.6,   27.5,   29.4,   31.8,   31.4,   30.9,   31.4,   31.6,   32.8,   33.2,   33.9,   33.3,   35.9,   39.3,   43.2,   41.9,   44.8,   49.8,   52.7,   57.3,   59.0,   60.0,   65.7,   67.6,   68.6,   69.9,   71.5,   74.3,  999.0,   74.6,   72.5,   71.0,   77.7,   79.2,   76.4,   78.4,   79.8,   79.6,   74.8,   78.0,   74.5,   71.6,   72.0,   75.8,   76.8,   71.3,   70.9,   71.4,   73.5,   73.2,   71.2,   69.2,   72.6,   72.3,   71.4,   75.4,   77.2,  999.0,   69.9,   71.4,   71.6,   65.2,   67.4,   62.9,  999.0,   57.7,   53.2,   57.0,   54.4,   57.4,   57.4,   58.1,  999.0,  999.0,  999.0,   39.2,   41.6,   39.3,   37.3,   33.8,   36.3,   31.0,   32.5,   32.6,   34.0,   30.7,  999.0,  999.0,   25.8,   26.9,  999.0,   20.6,   14.7,   15.6,   17.5,  999.0,  999.0,  999.0
2020/01/22 05:05,    4.1,    6.9,    5.9,    2.0,    8.4,    9.5,   10.6,    2.6,   11.8,   13.0,    4.9,  999.0,   14.1,   14.6,   16.4,   17.9,   17.6,   16.7,   18.9,   22.8,   24.8,   26.1,   26.2,   28.1,   28.9,   31.9,   31.9,   30.2,   31.5,   32.0,   32.2,   33.4,   32.5,   34.3,   37.3,   40.8,   45.1,   42.2,   44.8,   48.1,   52.8,   58.2,   59.4,   59.2,   64.0,   67.9,   69.0,   69.5,   70.9,   74.4,   73.6,   71.3,   72.4,   72.0,   77.8,   78.3,   77.5,  999.0,   77.9,   78.6,   75.7,   78.1,   73.5,   76.2,   72.5,   75.3,   77.2,   71.1,   69.5,   72.8,   72.6,   76.0,   72.7,   70.4,   69.5,   72.9,   71.8,  999.0,  999.0,   69.4,   72.0,   69.9,   72.4,   62.0,   67.0,   65.7,   62.8,   60.0,   54.1,   57.8,   54.8,   54.8,   57.0,   57.3,   57.3,   50.0,  999.0,   38.7,   40.7,   39.2,   37.5,   35.4,   36.0,   34.0,   34.3,   31.7,   33.5,   34.8,  999.0,   28.0,   25.9,   29.3,  999.0,  999.0,   14.7,   15.4,   17.4,   19.7,   20.0,  999.0
2020/01/22 05:15,    4.3,    5.8,    5.3,    2.3,    7.9,    9.2,   11.1,   12.2,   12.6,   12.7,  999.0,  999.0,   14.2,   15.1,   16.9,   18.4,   18.7,   17.9,   19.8,   22.0,   23.2,   25.3,   25.3,   27.5,   29.9,   30.9,   29.7,   31.4,   31.7,   32.0,   31.8,   32.6,   33.5,   34.9,   38.2,   42.6,   42.2,   44.6,   45.2,   47.7,   53.4,   58.2,   60.1,   59.9,   62.1,   67.9,   69.6,   70.6,   71.0,   74.6,  999.0,   71.7,   74.2,   73.0,   77.6,   79.9,   79.5,   76.9,   77.6,   79.2,   77.2,   77.9,   76.4,   75.2,   71.9,   74.7,   75.5,  999.0,   69.7,   72.3,   71.3,   76.6,   72.6,   69.2,   73.8,   72.1,   72.9,   74.7,   77.4,   72.6,   73.3,   70.7,   72.6,   64.1,   67.0,   63.0,   59.2,   61.4,   55.1,   57.7,   57.1,   56.7,   58.9,   57.7,   52.5,   51.4,   49.1,   41.3,   38.5,   40.0,   38.8,   36.6,   36.9,   34.0,   35.9,   32.1,   33.6,   34.5,   30.6,   27.4,   26.5,   29.6,   20.4,   19.2,   13.3,   15.1,   18.7,   19.0,   21.2,  999.0
2020/01/22 05:25,    2.7,    5.6,    5.9,    2.7,    8.1,    8.5,   10.7,   11.8,   12.7,   13.7,   -0.3,   14.5,   15.4,   16.4,   18.0,   19.2,   19.2,   18.0,   19.3,   21.3,   22.6,   23.4,   24.6,   25.8,   27.9,   30.6,   30.0,   30.9,   31.7,   31.2,   32.3,   32.9,   33.6,   35.3,   39.2,   43.7,   42.0,   44.9,   44.4,   49.8,   54.0,   57.1,   58.9,   59.5,   62.6,   69.4,   68.1,   70.9,   73.5,   73.8,   74.2,   72.5,   73.1,   75.7,   78.4,   77.8,   76.7,   78.6,   78.2,  999.0,   75.3,   78.3,   76.2,   73.8,   72.6,   74.6,   77.9,  999.0,   68.4,   72.3,   73.0,   75.2,   71.5,   71.1,   75.1,   72.5,   69.0,  999.0,   76.3,   73.4,   70.1,   72.7,   72.3,   65.7,   68.2,   61.7,   60.7,   64.6,   54.4,   57.3,   56.9,   56.7,   59.3,   57.2,   52.8,   50.9,   43.8,   42.0,   38.8,   39.9,   36.4,  999.0,   34.5,   34.7,   34.0,   30.1,   33.4,   31.2,   31.4,   24.8,   25.7,   28.2,   19.1,   21.5,   14.6,   14.2,  999.0,   15.8,  999.0,  999.0
2020/01/22 05:35,    1.3,    3.9,    5.0,    3.5,    8.3,    9.3,   11.1,   12.3,   13.3,   14.5,   -0.4,   15.4,   16.3,   17.4,   19.2,   19.8,   19.4,   18.6,   19.4,   21.2,   22.2,   23.3,   24.7,   25.9,   28.0,   30.8,   29.0,   30.9,   31.1,   31.5,   32.3,   31.8,   33.8,   37.2,   40.9,   43.2,   41.1,   44.5,   44.5,   49.6,   54.6,   56.6,   58.7,   59.7,   64.0,   70.2,   67.9,   71.9,   73.3,   73.7,  999.0,   71.7,   71.4,   77.9,   77.6,   79.1,   77.4,   78.8,   78.9,   78.4,   76.7,   76.8,   79.3,  999.0,   71.5,   73.9,   78.8,  999.0,  999.0,   71.2,   73.7,   75.3,   68.7,   69.3,   71.6,   72.9,   75.1,   75.7,   74.7,  999.0,   74.6,   71.7,   71.1,   66.4,   67.3,   65.5,   60.6,   60.3,   59.2,   55.9,   57.5,   57.4,   59.2,   58.2,   50.2,   49.2,   42.0,   40.5,   38.2,   36.1,   34.4,   36.2,   34.9,   32.9,   33.7,   29.0,   31.3,   30.8,   30.1,   29.4,   25.1,   28.0,   28.5,   18.2,   12.6,   13.5,   18.5,  999.0,  999.0,  999.0
2020/01/22 05:45,    1.1,    3.8,    5.5,    7.2,    8.3,    9.3,   10.6,   12.2,   12.9,   13.7,    0.4,   14.8,   16.0,   17.0,   19.2,   19.8,   19.4,   18.5,   19.1,   21.4,   23.3,   24.9,   25.7,   27.7,   29.6,   28.1,   30.5,   30.6,   30.1,   30.8,   30.8,   32.9,   35.6,   39.3,   41.2,   41.7,   42.2,   43.9,   44.3,   48.9,   54.0,   56.7,   58.5,   60.5,   64.2,   70.2,   68.9,   71.5,   74.0,   72.2,   73.3,  999.0,   71.4,   73.5,   78.8,   77.6,   78.2,   75.2,   77.4,   79.7,   75.2,   77.3,   78.0,   69.6,   74.6,   74.7,   76.4,  999.0,  999.0,  999.0,   73.8,   76.5,   68.1,   72.4,   69.7,   78.1,   75.2,  999.0,   77.5,  999.0,  999.0,   74.9,   67.3,   66.3,   68.5,  999.0,   61.6,   63.8,   61.0,   57.4,   57.1,   58.2,   58.5,   59.2,   51.2,   48.9,   43.9,   39.9,   37.5,   37.0,   32.8,   35.7,   34.4,   33.0,   33.2,   26.2,  999.0,   30.2,   30.7,   29.4,   23.9,   26.5,   27.7,  999.0,   15.4,   14.0,   16.2,   21.0,  999.0,  999.0
2020/01/22 05:55,    3.5,    4.4,    5.8,    6.2,    7.7,    9.3,   10.8,   11.4,   13.0,  999.0,    0.4,   15.3,   16.3,   17.2,   19.0,   20.2,   20.1,   19.3,   20.5,   22.3,   24.7,   25.3,   28.0,   29.3,   29.6,   28.5,   29.7,   30.6,   29.9,   30.4,   31.8,   33.8,   37.0,   39.5,   41.3,   42.1,   42.5,   43.9,   44.3,   49.6,   54.4,   57.3,   58.1,   61.5,   66.7,   71.5,   73.7,   71.5,   73.3,   74.1,   74.1,   78.0,   72.5,   72.7,   78.8,   77.5,   78.7,   76.9,   78.0,   79.1,   74.7,   78.1,  999.0,   71.8,   73.3,   74.8,   71.4,  999.0,   68.2,   72.6,   77.8,   74.3,   68.2,   71.8,   70.2,   76.6,   74.4,  999.0,   74.7,  999.0,  999.0,   73.6,  999.0,   67.4,   65.6,   64.4,   62.8,   62.0,   64.1,   57.0,   55.8,   58.1,   57.0,   56.6,   52.1,   47.7,   45.0,   40.3,   38.8,   36.0,   31.8,   31.6,   34.2,   34.5,   32.1,   30.5,   32.3,   28.5,   28.9,   29.4,   20.3,   24.7,   25.9,   23.1,   13.6,   13.5,   17.2,   18.7,   16.3,  999.0
2020/01/22 06:05,    2.3,    0.8,    6.1,    7.6,    8.1,    8.9,   10.8,   12.3,   12.9,  999.0,    0.3,   15.3,   15.9,   16.5,   18.1,   19.8,   20.7,   20.5,   20.1,   21.9,   24.4,   26.1,   28.4,   28.6,   29.1,   27.1,   29.4,   30.2,   29.7,   30.7,   31.0,   34.1,   38.0,   38.4,   41.3,   42.5,   42.4,   43.3,   44.8,   49.1,   54.3,   56.0,   58.9,   61.2,   67.5,   68.9,   73.5,   75.5,   73.6,   73.3,   75.2,   72.8,   72.8,   77.1,   77.5,   77.7,   76.4,   75.7,   78.1,   79.3,   75.8,   76.3,  999.0,   70.7,   75.7,   73.3,   72.8,  999.0,   67.6,   74.8,   75.2,   74.0,   69.0,   72.5,   71.2,   77.8,   72.8,  999.0,   78.7,  999.0,  999.0,   73.1,   75.5,   66.2,   71.8,   60.7,   63.6,   61.9,   58.2,   58.9,   56.7,   57.1,   58.2,   56.1,   52.0,   48.3,   43.5,   37.7,   39.3,   36.1,  999.0,  999.0,   34.4,   34.7,   30.7,   30.9,   31.5,   30.3,   29.1,   29.9,   22.9,   25.2,   25.9,  999.0,   13.9,   13.2,   17.2,   21.0,  999.0,  999.0
2020/01/22 06:15,    2.4,    1.4,    6.2,    8.0,    8.9,    9.2,   10.1,   12.3,   12.5,   14.1,    1.0,  999.0,   15.0,   16.3,   16.8,   18.6,   18.8,   18.6,   18.5,   20.8,   23.3,   27.5,   28.8,   29.2,   28.9,   28.3,   29.0,   28.9,   29.6,   29.5,   31.3,   35.4,   37.4,   39.9,   42.0,   41.7,   42.3,   44.1,   43.5,   48.6,   53.6,   55.2,   58.7,   62.5,   69.5,   70.3,   72.2,   73.4,   72.3,   74.6,   76.7,   72.6,   76.1,   77.2,   76.3,   78.0,   76.4,   77.0,   78.6,   77.9,   74.7,   78.5,  999.0,   70.8,   73.7,   75.8,   69.8,   76.2,   67.9,   74.4,   72.6,   72.3,   71.3,   71.8,   73.8,   69.5,   75.8,  999.0,   76.8,  999.0,   62.1,   74.3,   78.5,   65.1,   68.5,   62.5,   61.5,   63.3,   56.5,   59.5,   55.8,   57.4,   57.5,   56.8,   51.2,   49.2,   43.8,   36.7,   37.9,   35.5,  999.0,   32.4,   33.9,   32.9,   31.1,   28.7,   29.1,   31.8,   28.6,   29.9,   23.5,   23.6,   24.2,   21.3,   14.8,   12.5,   15.6,   18.9,   19.8,  999.0
2020/01/22 06:25,    3.2,    3.3,    6.4,    8.6,    8.7,    8.8,   10.0,   12.2,   12.9,   14.0,   -0.5,   14.7,   16.4,   16.9,   18.3,   20.3,   20.4,   20.2,   20.0,   21.1,   24.3,   27.4,   29.8,   30.0,   29.4,   28.6,   28.5,   28.9,   29.6,   29.9,   32.7,   36.3,   38.6,   41.6,   42.7,   41.0,   42.6,   43.8,   43.4,   48.6,   53.2,   55.9,   60.5,   63.1,   69.7,   71.8,   72.7,   74.0,   74.4,   76.2,   70.8,   76.1,   76.6,   77.4,   77.6,   76.8,   77.7,   73.7,   79.0,   74.3,   77.9,  999.0,   71.2,   72.7,   74.2,   75.7,   72.0,   75.6,   68.1,   72.0,   73.0,   74.0,   71.0,   68.2,   72.4,   70.0,   75.8,   71.2,   78.4,  999.0,   72.8,   72.9,   69.6,   69.3,  999.0,  999.0,   56.6,   61.5,   58.7,   58.2,   56.7,   54.8,   57.3,   56.8,   50.8,   46.7,   42.6,   40.3,   36.7,   37.6,  999.0,   33.2,   35.4,   34.0,   33.3,   29.2,   30.1,   31.6,   28.4,   30.7,   26.3,   24.2,   23.6,   21.6,   13.8,   13.5,   16.6,   20.0,   21.6,  999.0
2020/01/22 06:35,    2.7,    3.8,    6.9,    8.4,    9.4,    8.7,   10.3,   11.5,   12.7,   14.3,   -0.1,   15.0,   16.2,   17.6,   19.3,   20.8,   19.7,   19.3,   20.6,   22.9,   26.1,   28.2,   28.7,   29.1,   29.4,   28.4,   28.2,   28.7,   29.7,   31.2,   34.1,   36.1,   38.8,   41.3,   42.1,   42.2,   41.7,   43.3,   44.9,   50.3,   52.8,   56.1,   59.9,   64.8,   71.4,   72.9,   74.5,   73.6,   74.6,   74.6,   72.6,   75.1,   77.3,   76.0,   76.5,   77.5,   75.5,   74.1,   78.9,   76.1,   78.0,   78.8,   69.3,   73.9,   72.4,   72.9,   71.6,   78.8,   66.6,   72.6,   72.4,   76.3,   68.3,   69.4,   71.1,   70.6,   74.8,   72.6,   77.4,  999.0,   66.8,   72.5,   69.2,   70.5,  999.0,   64.9,   59.3,   62.4,   61.9,   57.0,   57.4,   54.4,   56.8,   56.5,   54.4,   49.2,   44.8,   41.8,   38.1,   37.8,  999.0,   33.7,   35.7,   35.6,   30.7,   32.4,   29.4,   31.9,   29.3,   32.1,   26.2,   25.5,   25.5,   15.9,   11.0,   13.5,  999.0,   19.7,   20.6,   21.6
2020/01/22 06:45,    2.8,    7.9,    7.5,    7.8,    7.9,    8.2,   10.2,   12.1,   13.3,  999.0,  999.0,   15.6,   17.0,   18.9,   20.0,   21.2,   20.3,   19.1,   20.0,   25.6,   28.7,   28.3,   28.6,   28.2,   28.6,   28.2,   28.4,   28.2,   29.5,   32.6,   35.1,   36.8,   39.7,   42.4,   41.5,   41.6,   42.5,   42.2,   46.4,   51.2,   52.8,   57.0,   60.0,   65.7,   72.7,   71.9,   73.3,   74.4,   73.8,   77.1,   71.5,   75.9,   78.0,   73.3,   72.0,   75.4,   72.1,   75.0,   78.3,   76.2,   77.1,   75.8,   68.7,   73.3,   75.5,   74.3,   72.6,  999.0,   68.0,   69.9,   71.7,   73.2,   69.7,   70.8,   70.9,   73.0,   74.7,   72.5,   78.8,  999.0,  999.0,   68.5,   73.9,   69.2,   64.0,   62.3,   57.7,   61.0,   61.4,   55.2,   60.0,   54.0,   54.9,   56.3,   54.0,   50.3,   45.1,   40.7,   37.9,   36.2,   33.0,   35.1,  999.0,   33.8,   30.6,   30.9,   27.5,   30.4,   29.7,   30.9,   34.1,   24.3,   25.1,  999.0,   12.4,   12.3,   15.2,   20.1,   19.2,   22.1
2020/01/22 06:55,    1.9,    6.3,    7.4,    7.0,    7.7,    3.5,    9.9,   11.6,   12.7,  999.0,   14.0,   15.1,   17.3,   18.9,   20.2,   21.1,   19.7,   19.6,   21.1,   27.1,   29.0,   29.2,   28.6,   28.1,   27.0,   26.9,   27.2,   27.6,   29.7,   32.9,   34.8,   36.2,   39.5,   42.6,   41.8,   41.8,   43.5,   42.6,   46.9,   50.2,   53.3,   57.0,   61.3,   67.7,   73.6,   70.9,   75.2,   76.0,   73.6,   76.1,   72.9,   78.0,   75.9,   74.5,   73.7,   75.2,   75.3,   74.0,   79.8,   77.3,   77.7,   76.4,  999.0,   71.9,   75.4,   75.1,   73.6,   67.5,   69.6,   71.4,   72.7,   75.9,   65.6,   67.9,   70.6,   72.8,   74.7,   74.9,   78.9,  999.0,  999.0,   70.9,   75.6,   66.1,   71.1,   59.9,   63.1,   61.0,   60.9,   56.2,   58.0,   53.0,   56.2,   56.8,   53.8,   49.5,   46.4,   42.2,   38.1,   35.6,   33.9,   34.6,   33.0,   36.3,   29.8,   29.5,   29.3,   29.3,   29.2,   29.1,   31.3,   25.1,   24.2,   20.7,   13.9,   14.3,   16.2,   18.8,   19.2,   20.3
2020/01/22 07:05,    2.7,    3.5,    4.6,    7.0,    4.6,    4.3,    8.3,   11.4,   13.3,  999.0,  999.0,   15.4,   17.4,   18.8,   19.3,   20.5,   20.3,   19.7,   23.6,   27.0,   28.2,   28.9,   27.5,   26.7,   25.3,   26.9,   26.4,   28.2,   31.0,   33.0,   34.6,   36.7,   40.3,   42.9,   42.0,   40.5,   43.4,   43.2,   46.4,   50.6,   54.6,   56.6,   59.8,   66.3,   72.3,   72.3,   74.4,   75.4,   79.5,   68.6,   73.4,   77.7,   77.0,   75.5,   74.5,   73.0,   75.6,   76.7,   76.5,   76.7,   75.4,  999.0,   69.0,   71.9,   76.2,   71.4,  999.0,   66.2,   69.3,   69.1,   70.4,   74.2,   65.1,   66.6,   71.2,   72.7,   75.0,   72.9,  999.0,   70.7,  999.0,  999.0,   70.1,   68.5,   74.4,   60.0,   58.3,   63.2,   60.4,   55.9,   56.9,   52.2,   54.9,   56.1,   53.4,   50.8,   46.9,   41.1,   38.1,   37.2,   35.5,  999.0,  999.0,  999.0,   29.7,   30.4,  999.0,  999.0,   28.5,   28.2,   28.2,   25.7,  999.0,  999.0,  999.0,   13.3,  999.0,   15.9,   18.6,   18.3
2020/01/22 07:15,    2.5,    1.4,    8.1,  999.0,    7.9,  999.0,    9.9,   12.7,  999.0,    3.3,  999.0,   15.4,  999.0,   19.2,   19.9,   20.4,   18.9,   19.8,   24.1,   26.1,   28.5,   29.7,   26.2,   26.8,   24.9,   25.0,   25.7,   28.1,   32.3,   32.9,   34.9,   36.5,   39.7,   42.7,   41.8,   41.4,   41.2,   42.4,   45.9,   51.0,   53.6,   56.5,   61.3,   67.1,   72.6,   73.8,   73.5,   77.1,   77.0,   69.3,   72.7,   78.0,  999.0,   73.2,   77.5,   79.1,   72.0,   76.3,  999.0,  999.0,   76.3,   75.7,  999.0,   73.0,   74.6,   74.4,   76.6,  999.0,   70.1,  999.0,  999.0,   72.6,  999.0,   67.5,   74.1,   69.9,  999.0,   73.5,  999.0,   74.3,  999.0,  999.0,   69.9,   71.1,   78.4,  999.0,   57.6,   60.0,   62.6,   57.2,   59.5,  999.0,   56.7,   55.7,   52.0,   51.9,   47.8,  999.0,   35.8,   39.2,  999.0,  999.0,  999.0,  999.0,  999.0,   32.7,  999.0,  999.0,   28.7,   32.8,  999.0,  999.0,  999.0,  999.0,  999.0,  999.0,   13.9,  999.0,  999.0,  999.0
2020/01/22 07:25,  999.0,  999.0,  999.0,  999.0,  999.0,  999.0,  999.0,  999.0,  999.0,  999.0,  999.0,  999.0,  999.0,  999.0,  999.0,  999.0,  999.0,  999.0,  999.0,  999.0,  999.0,  999.0,  999.0,  999.0,  999.0,  999.0,  999.0,  999.0,  999.0,  999.0,  999.0,  999.0,  999.0,  999.0,  999.0,  999.0,  999.0,  999.0,  999.0,  999.0,  999.0,  999.0,  999.0,  999.0,  999.0,  999.0,  999.0,  999.0,  999.0,  999.0,  999.0,  999.0,  999.0,  999.0,  999.0,  999.0,  999.0,  999.0,  999.0,  999.0,  999.0,  999.0,  999.0,  999.0,  999.0,  999.0,  999.0,  999.0,  999.0,  999.0,  999.0,  999.0,  999.0,  999.0,  999.0,  999.0,  999.0,  999.0,  999.0,  999.0,  999.0,  999.0,  999.0,  999.0,  999.0,  999.0,  999.0,  999.0,  999.0,  999.0,  999.0,  999.0,  999.0,  999.0,  999.0,  999.0,  999.0,  999.0,  999.0,  999.0,  999.0,  999.0,  999.0,  999.0,  999.0,  999.0,  999.0,  999.0,  999.0,  999.0,  999.0,  999.0,  999.0,  999.0,  999.0,  999.0,  999.0,  999.0,  999.0,  999.0
2020/01/22 07:35,  999.0,  999.0,  999.0,  999.0,  999.0,  999.0,  999.0,  999.0,  999.0,  999.0,  999.0,  999.0,  999.0,  999.0,  999.0,  999.0,  999.0,  999.0,  999.0,  999.0,  999.0,  999.0,  999.0,  999.0,  999.0,  999.0,  999.0,  999.0,  999.0,  999.0,  999.0,  999.0,  999.0,  999.0,  999.0,  999.0,  999.0,  999.0,  999.0,  999.0,  999.0,  999.0,  999.0,  999.0,  999.0,  999.0,  999.0,  999.0,  999.0,  999.0,  999.0,  999.0,  999.0,  999.0,  999.0,  999.0,  999.0,  999.0,  999.0,  999.0,  999.0,  999.0,  999.0,  999.0,  999.0,  999.0,  999.0,  999.0,  999.0,  999.0,  999.0,  999.0,  999.0,  999.0,  999.0,  999.0,  999.0,  999.0,  999.0,  999.0,  999.0,  999.0,  999.0,  999.0,  999.0,  999.0,  999.0,  999.0,  999.0,  999.0,  999.0,  999.0,  999.0,  999.0,  999.0,  999.0,  999.0,  999.0,  999.0,  999.0,  999.0,  999.0,  999.0,  999.0,  999.0,  999.0,  999.0,  999.0,  999.0,  999.0,  999.0,  999.0,  999.0,  999.0,  999.0,  999.0,  999.0,  999.0,  999.0,  999.0
2020/01/22 07:45,  999.0,  999.0,  999.0,  999.0,  999.0,  999.0,  999.0,  999.0,  999.0,  999.0,  999.0,  999.0,  999.0,  999.0,  999.0,  999.0,  999.0,  999.0,  999.0,  999.0,  999.0,  999.0,  999.0,  999.0,  999.0,  999.0,  999.0,  999.0,  999.0,  999.0,  999.0,  999.0,  999.0,  999.0,  999.0,  999.0,  999.0,  999.0,  999.0,  999.0,  999.0,  999.0,  999.0,  999.0,  999.0,  999.0,  999.0,  999.0,  999.0,  999.0,  999.0,  999.0,  999.0,  999.0,  999.0,  999.0,  999.0,  999.0,  999.0,  999.0,  999.0,  999.0,  999.0,  999.0,  999.0,  999.0,  999.0,  999.0,  999.0,  999.0,  999.0,  999.0,  999.0,  999.0,  999.0,  999.0,  999.0,  999.0,  999.0,  999.0,  999.0,  999.0,  999.0,  999.0,  999.0,  999.0,  999.0,  999.0,  999.0,  999.0,  999.0,  999.0,  999.0,  999.0,  999.0,  999.0,  999.0,  999.0,  999.0,  999.0,  999.0,  999.0,  999.0,  999.0,  999.0,  999.0,  999.0,  999.0,  999.0,  999.0,  999.0,  999.0,  999.0,  999.0,  999.0,  999.0,  999.0,  999.0,  999.0,  999.0
2020/01/22 07:55,  999.0,  999.0,  999.0,  999.0,  999.0,  999.0,  999.0,  999.0,  999.0,  999.0,  999.0,  999.0,  999.0,  999.0,  999.0,  999.0,  999.0,  999.0,  999.0,  999.0,  999.0,  999.0,  999.0,  999.0,  999.0,  999.0,  999.0,  999.0,  999.0,  999.0,  999.0,  999.0,  999.0,  999.0,  999.0,  999.0,  999.0,  999.0,  999.0,  999.0,  999.0,  999.0,  999.0,  999.0,  999.0,  999.0,  999.0,  999.0,  999.0,  999.0,  999.0,  999.0,  999.0,  999.0,  999.0,  999.0,  999.0,  999.0,  999.0,  999.0,  999.0,  999.0,  999.0,  999.0,  999.0,  999.0,  999.0,  999.0,  999.0,  999.0,  999.0,  999.0,  999.0,  999.0,  999.0,  999.0,  999.0,  999.0,  999.0,  999.0,  999.0,  999.0,  999.0,  999.0,  999.0,  999.0,  999.0,  999.0,  999.0,  999.0,  999.0,  999.0,  999.0,  999.0,  999.0,  999.0,  999.0,  999.0,  999.0,  999.0,  999.0,  999.0,  999.0,  999.0,  999.0,  999.0,  999.0,  999.0,  999.0,  999.0,  999.0,  999.0,  999.0,  999.0,  999.0,  999.0,  999.0,  999.0,  999.0,  999.0
2020/01/22 08:05,  999.0,  999.0,  999.0,  999.0,  999.0,  999.0,  999.0,  999.0,  999.0,  999.0,  999.0,  999.0,  999.0,  999.0,  999.0,  999.0,  999.0,  999.0,  999.0,  999.0,  999.0,  999.0,  999.0,  999.0,  999.0,  999.0,  999.0,  999.0,  999.0,  999.0,  999.0,  999.0,  999.0,  999.0,  999.0,  999.0,  999.0,  999.0,  999.0,  999.0,  999.0,  999.0,  999.0,  999.0,  999.0,  999.0,  999.0,  999.0,  999.0,  999.0,  999.0,  999.0,  999.0,  999.0,  999.0,  999.0,  999.0,  999.0,  999.0,  999.0,  999.0,  999.0,  999.0,  999.0,  999.0,  999.0,  999.0,  999.0,  999.0,  999.0,  999.0,  999.0,  999.0,  999.0,  999.0,  999.0,  999.0,  999.0,  999.0,  999.0,  999.0,  999.0,  999.0,  999.0,  999.0,  999.0,  999.0,  999.0,  999.0,  999.0,  999.0,  999.0,  999.0,  999.0,  999.0,  999.0,  999.0,  999.0,  999.0,  999.0,  999.0,  999.0,  999.0,  999.0,  999.0,  999.0,  999.0,  999.0,  999.0,  999.0,  999.0,  999.0,  999.0,  999.0,  999.0,  999.0,  999.0,  999.0,  999.0,  999.0
2020/01/22 08:15,  999.0,  999.0,  999.0,  999.0,  999.0,  999.0,  999.0,  999.0,  999.0,  999.0,  999.0,  999.0,  999.0,  999.0,  999.0,  999.0,  999.0,  999.0,  999.0,  999.0,  999.0,  999.0,  999.0,  999.0,  999.0,  999.0,  999.0,  999.0,  999.0,  999.0,  999.0,  999.0,  999.0,  999.0,  999.0,  999.0,  999.0,  999.0,  999.0,  999.0,  999.0,  999.0,  999.0,  999.0,  999.0,  999.0,  999.0,  999.0,  999.0,  999.0,  999.0,  999.0,  999.0,  999.0,  999.0,  999.0,  999.0,  999.0,  999.0,  999.0,  999.0,  999.0,  999.0,  999.0,  999.0,  999.0,  999.0,  999.0,  999.0,  999.0,  999.0,  999.0,  999.0,  999.0,  999.0,  999.0,  999.0,  999.0,  999.0,  999.0,  999.0,  999.0,  999.0,  999.0,  999.0,  999.0,  999.0,  999.0,  999.0,  999.0,  999.0,  999.0,  999.0,  999.0,  999.0,  999.0,  999.0,  999.0,  999.0,  999.0,  999.0,  999.0,  999.0,  999.0,  999.0,  999.0,  999.0,  999.0,  999.0,  999.0,  999.0,  999.0,  999.0,  999.0,  999.0,  999.0,  999.0,  999.0,  999.0,  999.0
2020/01/22 08:25,  999.0,  999.0,  999.0,  999.0,  999.0,  999.0,  999.0,  999.0,  999.0,  999.0,  999.0,  999.0,  999.0,  999.0,  999.0,  999.0,  999.0,  999.0,  999.0,  999.0,  999.0,  999.0,  999.0,  999.0,  999.0,  999.0,  999.0,  999.0,  999.0,  999.0,  999.0,  999.0,  999.0,  999.0,  999.0,  999.0,  999.0,  999.0,  999.0,  999.0,  999.0,  999.0,  999.0,  999.0,  999.0,  999.0,  999.0,  999.0,  999.0,  999.0,  999.0,  999.0,  999.0,  999.0,  999.0,  999.0,  999.0,  999.0,  999.0,  999.0,  999.0,  999.0,  999.0,  999.0,  999.0,  999.0,  999.0,  999.0,  999.0,  999.0,  999.0,  999.0,  999.0,  999.0,  999.0,  999.0,  999.0,  999.0,  999.0,  999.0,  999.0,  999.0,  999.0,  999.0,  999.0,  999.0,  999.0,  999.0,  999.0,  999.0,  999.0,  999.0,  999.0,  999.0,  999.0,  999.0,  999.0,  999.0,  999.0,  999.0,  999.0,  999.0,  999.0,  999.0,  999.0,  999.0,  999.0,  999.0,  999.0,  999.0,  999.0,  999.0,  999.0,  999.0,  999.0,  999.0,  999.0,  999.0,  999.0,  999.0
2020/01/22 08:35,  999.0,  999.0,  999.0,  999.0,  999.0,  999.0,  999.0,  999.0,  999.0,  999.0,  999.0,  999.0,  999.0,  999.0,  999.0,  999.0,  999.0,  999.0,  999.0,  999.0,  999.0,  999.0,  999.0,  999.0,  999.0,  999.0,  999.0,  999.0,  999.0,  999.0,  999.0,  999.0,  999.0,  999.0,  999.0,  999.0,  999.0,  999.0,  999.0,  999.0,  999.0,  999.0,  999.0,  999.0,  999.0,  999.0,  999.0,  999.0,  999.0,  999.0,  999.0,  999.0,  999.0,  999.0,  999.0,  999.0,  999.0,  999.0,  999.0,  999.0,  999.0,  999.0,  999.0,  999.0,  999.0,  999.0,  999.0,  999.0,  999.0,  999.0,  999.0,  999.0,  999.0,  999.0,  999.0,  999.0,  999.0,  999.0,  999.0,  999.0,  999.0,  999.0,  999.0,  999.0,  999.0,  999.0,  999.0,  999.0,  999.0,  999.0,  999.0,  999.0,  999.0,  999.0,  999.0,  999.0,  999.0,  999.0,  999.0,  999.0,  999.0,  999.0,  999.0,  999.0,  999.0,  999.0,  999.0,  999.0,  999.0,  999.0,  999.0,  999.0,  999.0,  999.0,  999.0,  999.0,  999.0,  999.0,  999.0,  999.0
2020/01/22 08:45,  999.0,  999.0,  999.0,  999.0,  999.0,  999.0,  999.0,  999.0,  999.0,  999.0,  999.0,  999.0,  999.0,  999.0,  999.0,  999.0,  999.0,  999.0,  999.0,  999.0,  999.0,  999.0,  999.0,  999.0,  999.0,  999.0,  999.0,  999.0,  999.0,  999.0,  999.0,  999.0,  999.0,  999.0,  999.0,  999.0,  999.0,  999.0,  999.0,  999.0,  999.0,  999.0,  999.0,  999.0,  999.0,  999.0,  999.0,  999.0,  999.0,  999.0,  999.0,  999.0,  999.0,  999.0,  999.0,  999.0,  999.0,  999.0,  999.0,  999.0,  999.0,  999.0,  999.0,  999.0,  999.0,  999.0,  999.0,  999.0,  999.0,  999.0,  999.0,  999.0,  999.0,  999.0,  999.0,  999.0,  999.0,  999.0,  999.0,  999.0,  999.0,  999.0,  999.0,  999.0,  999.0,  999.0,  999.0,  999.0,  999.0,  999.0,  999.0,  999.0,  999.0,  999.0,  999.0,  999.0,  999.0,  999.0,  999.0,  999.0,  999.0,  999.0,  999.0,  999.0,  999.0,  999.0,  999.0,  999.0,  999.0,  999.0,  999.0,  999.0,  999.0,  999.0,  999.0,  999.0,  999.0,  999.0,  999.0,  999.0
2020/01/22 08:55,  999.0,  999.0,  999.0,  999.0,  999.0,  999.0,  999.0,  999.0,  999.0,  999.0,  999.0,  999.0,  999.0,  999.0,  999.0,  999.0,  999.0,  999.0,  999.0,  999.0,  999.0,  999.0,  999.0,  999.0,  999.0,  999.0,  999.0,  999.0,  999.0,  999.0,  999.0,  999.0,  999.0,  999.0,  999.0,  999.0,  999.0,  999.0,  999.0,  999.0,  999.0,  999.0,  999.0,  999.0,  999.0,  999.0,  999.0,  999.0,  999.0,  999.0,  999.0,  999.0,  999.0,  999.0,  999.0,  999.0,  999.0,  999.0,  999.0,  999.0,  999.0,  999.0,  999.0,  999.0,  999.0,  999.0,  999.0,  999.0,  999.0,  999.0,  999.0,  999.0,  999.0,  999.0,  999.0,  999.0,  999.0,  999.0,  999.0,  999.0,  999.0,  999.0,  999.0,  999.0,  999.0,  999.0,  999.0,  999.0,  999.0,  999.0,  999.0,  999.0,  999.0,  999.0,  999.0,  999.0,  999.0,  999.0,  999.0,  999.0,  999.0,  999.0,  999.0,  999.0,  999.0,  999.0,  999.0,  999.0,  999.0,  999.0,  999.0,  999.0,  999.0,  999.0,  999.0,  999.0,  999.0,  999.0,  999.0,  999.0
2020/01/22 09:05,    3.8,    5.0,    6.9,    9.4,    9.4,   11.5,    7.2,  999.0,   14.4,   15.6,   16.8,   18.2,   18.7,   20.1,   22.9,   23.4,   24.1,   25.2,   28.0,   27.7,   27.2,   28.2,   28.6,   25.6,   28.2,   30.7,   33.4,   33.9,   35.8,   36.9,   37.7,   38.6,   37.9,   35.8,   38.9,   40.6,   43.3,   45.2,   47.0,  999.0,   45.1,  999.0,  999.0,   53.9,   58.5,   61.9,   66.5,   68.5,   70.1,   74.2,   77.7,   75.0,   79.0,   77.1,   76.9,   77.1,   76.9,   75.9,   77.9,  999.0,   76.9,   78.4,  999.0,  999.0,  999.0,   71.3,  999.0,   70.1,   70.3,  999.0,   68.0,   71.6,   70.9,   74.9,   72.6,   74.6,   66.4,   73.0,   66.4,  999.0,  999.0,  999.0,   67.7,   73.8,   68.5,   60.9,   62.1,   61.2,   65.8,   61.9,   58.1,   57.3,   56.6,  999.0,  999.0,   51.0,   53.2,  999.0,   38.8,   45.2,  999.0,   38.5,   34.6,  999.0,   27.2,  999.0,   25.6,   30.0,   28.5,   26.7,   29.6,  999.0,  999.0,   19.1,  999.0,  999.0,  999.0,  999.0,   19.8,   14.6
2020/01/22 09:15,    5.5,    4.8,    7.2,    8.9,    9.9,  999.0,   12.4,  999.0,   14.1,   15.3,   17.1,   17.7,   17.9,   20.4,   22.0,   21.0,   23.8,   26.0,   28.2,   28.9,   28.3,   28.9,   29.3,   27.7,   30.6,   31.9,   31.6,   34.5,   35.3,   36.1,   38.5,   36.4,   36.9,   36.7,   39.0,   41.2,   43.9,   45.1,   45.0,   47.4,  999.0,  999.0,  999.0,   55.1,   60.9,   61.1,   67.9,   72.2,   69.5,   75.5,   77.8,   77.4,   73.6,   77.5,  999.0,   76.6,   78.4,   77.9,   77.6,  999.0,  999.0,   76.0,   70.8,   73.0,   74.6,   74.0,  999.0,   68.4,  999.0,  999.0,  999.0,   69.1,   70.6,   72.2,   76.2,   74.4,   73.8,  999.0,   68.5,  999.0,  999.0,  999.0,  999.0,  999.0,   68.8,  999.0,  999.0,  999.0,  999.0,  999.0,  999.0,  999.0,  999.0,  999.0,  999.0,  999.0,  999.0,  999.0,  999.0,  999.0,  999.0,  999.0,  999.0,  999.0,  999.0,  999.0,  999.0,  999.0,  999.0,  999.0,  999.0,  999.0,   21.8,  999.0,  999.0,  999.0,  999.0,  999.0,  999.0,  999.0
2020/01/22 09:25,    6.1,    4.5,    7.6,    8.7,    8.9,  999.0,  999.0,   13.3,   13.3,   15.1,   16.5,   17.3,   19.6,   20.3,   21.0,   21.3,   22.5,   25.4,   28.1,   30.6,   31.1,   31.1,   29.5,   29.2,   32.0,   32.7,   33.2,   35.6,   36.4,   37.8,   36.8,   35.4,   36.2,   38.1,   39.2,   42.4,   44.7,   46.3,   46.0,   45.8,   48.8,   49.0,   53.8,   56.4,   60.0,   62.6,   68.6,   67.3,   71.3,   76.8,   76.9,   77.5,   75.2,   79.0,   77.8,   77.1,   76.4,   78.1,   77.1,   77.9,   73.8,   73.2,   75.1,   71.8,   70.1,   71.7,   72.6,   73.9,   71.5,   73.3,   72.8,   73.1,   76.4,   71.4,   78.1,   73.9,  999.0,   69.3,   72.9,  999.0,  999.0,  999.0,   68.6,  999.0,  999.0,  999.0,  999.0,   59.0,   63.8,   60.2,   60.1,   56.2,  999.0,  999.0,  999.0,  999.0,  999.0,  999.0,   40.5,   45.4,   37.6,   38.8,   36.9,   33.0,   25.8,  999.0,  999.0,  999.0,  999.0,   25.6,   28.0,   26.8,  999.0,   23.3,  999.0,  999.0,  999.0,  999.0,   20.5,  999.0
2020/01/22 09:35,    5.8,    4.3,    7.7,    9.1,   10.5,   12.4,    5.5,   12.2,   13.5,   15.1,   16.3,   17.0,   18.2,   19.3,   21.0,   21.1,   22.5,   24.7,   27.4,   30.3,   30.7,   31.8,   31.9,   29.5,   32.3,   34.2,   33.9,   35.3,   36.8,   37.7,   36.1,   35.8,   36.0,   38.6,   41.0,   43.4,   44.1,   45.5,   44.4,   46.9,   49.4,   52.6,   55.4,   57.3,   62.0,   63.2,   68.2,   69.6,   76.0,   77.1,   76.7,  999.0,   76.6,  999.0,   74.6,   79.4,  999.0,   75.6,   78.9,  999.0,  999.0,   75.8,   76.8,  999.0,  999.0,  999.0,  999.0,  999.0,  999.0,  999.0,   70.0,   73.4,  999.0,   69.6,   77.4,   72.1,  999.0,   63.8,   70.5,  999.0,  999.0,  999.0,  999.0,   70.3,  999.0,  999.0,  999.0,   56.9,   58.5,   65.6,   59.0,  999.0,  999.0,  999.0,  999.0,   52.8,  999.0,  999.0,  999.0,   47.9,   36.2,   37.9,   34.2,   29.3,   27.5,   23.0,  999.0,  999.0,  999.0,   24.4,   26.5,   25.4,  999.0,  999.0,  999.0,  999.0,  999.0,  999.0,  999.0,  999.0
2020/01/22 09:45,    4.1,    3.1,    6.8,    4.6,   11.7,   13.5,   10.1,   12.7,   14.2,   15.8,   16.7,   17.9,   18.0,   18.3,   20.3,   21.4,   22.4,   23.9,   25.7,   27.9,   30.0,   30.7,   31.4,   29.9,   31.9,   34.2,   33.7,   35.4,   36.5,   37.1,   36.0,   36.6,   36.6,   37.7,   41.9,   43.3,   45.6,   47.4,   46.8,   48.5,   50.7,   54.2,   57.8,   62.0,   63.1,   63.1,   66.2,   67.5,   72.1,   74.7,   78.2,   74.8,   78.0,   79.7,  999.0,  999.0,   74.6,   76.8,   74.9,   77.9,   76.8,   74.6,   72.9,   73.6,   70.1,   74.7,   70.6,   73.4,   72.5,   71.8,   71.2,   72.2,   79.5,   68.0,   77.6,   79.9,  999.0,   69.6,   76.3,  999.0,  999.0,  999.0,  999.0,  999.0,  999.0,  999.0,  999.0,   57.0,   60.4,   63.4,   58.5,   59.4,  999.0,  999.0,  999.0,  999.0,  999.0,  999.0,   42.7,   46.4,   38.4,   36.2,   31.9,   29.3,   26.4,   23.6,  999.0,  999.0,   25.2,   24.6,   27.1,   26.8,   25.9,   23.1,  999.0,   15.1,   16.4,   19.1,   21.4,   22.6
2020/01/22 09:55,    4.9,    6.1,    6.8,    7.9,   11.9,   13.2,    7.1,   13.0,   15.0,   16.0,   17.1,   17.9,   17.3,   18.7,   20.2,   19.7,   21.4,   22.4,   24.9,   27.5,   29.0,   30.0,   30.1,   30.2,   33.8,   34.6,   34.7,   33.0,   35.2,   36.4,   37.6,   35.9,   37.0,   38.4,   41.7,   44.3,   45.7,   50.3,   49.1,   52.2,   53.5,   55.3,   59.9,   54.9,   57.2,   55.2,   60.4,   65.0,   64.6,   72.1,   73.5,   72.6,   72.4,   76.4,  999.0,  999.0,  999.0,   74.4,   70.9,   76.6,  999.0,   68.7,   70.4,  999.0,  999.0,   70.9,   70.7,   69.7,   71.7,  999.0,  999.0,   70.4,   75.9,   62.7,   73.2,  999.0,  999.0,   69.9,  999.0,  999.0,  999.0,  999.0,  999.0,  999.0,  999.0,  999.0,   61.6,   56.2,   60.4,   62.8,   56.2,   59.7,   59.2,  999.0,  999.0,  999.0,  999.0,  999.0,   39.3,   45.4,   37.7,   38.6,   31.3,   30.7,   20.8,   22.9,  999.0,  999.0,   22.7,  999.0,  999.0,  999.0,   20.7,   24.3,   22.6,   13.9,   16.0,   18.0,   17.8,   21.7
2020/01/22 10:05,    4.5,    7.1,    6.8,    7.8,   12.1,  999.0,   13.0,   13.9,   14.7,   15.9,   17.5,   17.7,   18.4,   19.0,   20.2,   20.0,   21.1,   23.7,   25.4,   27.2,   28.9,   29.7,   29.9,   30.4,   32.9,   34.8,   34.9,   34.7,   35.6,   36.5,   36.4,   36.6,   36.6,   39.6,   41.8,   45.7,   47.9,   49.1,   50.2,   52.0,   53.4,   54.2,   57.4,   61.6,   64.4,   61.0,   65.7,   66.0,   69.4,   72.6,   74.7,   77.7,   76.3,  999.0,  999.0,  999.0,   73.0,   74.8,   78.2,   79.3,   73.0,   73.7,   76.2,   78.5,   70.0,   70.6,   70.9,   70.4,   69.9,   71.0,   70.3,   72.0,   76.4,   70.5,   77.0,   73.3,  999.0,   70.3,  999.0,   69.4,  999.0,  999.0,  999.0,  999.0,   61.6,   60.3,   57.7,   60.1,   64.3,   59.5,   63.4,   66.7,  999.0,  999.0,  999.0,  999.0,  999.0,  999.0,   41.6,   43.9,   44.9,   37.5,   34.3,   31.8,   28.6,   25.6,   22.9,  999.0,   26.4,   25.5,   27.1,  999.0,   25.6,   24.2,   20.2,  999.0,   16.0,   17.8,   18.6,   19.4
2020/01/22 10:15,    3.9,    6.8,    7.6,    9.0,   11.9,  999.0,   11.4,   13.5,   14.5,  999.0,   16.4,   17.5,   17.6,   19.3,   19.7,   19.9,   22.0,   23.5,   24.9,   26.9,   28.1,   28.6,   28.9,   29.4,   32.2,   34.9,   35.9,   34.6,   34.1,   36.0,   35.9,   35.2,   37.6,   39.6,   41.8,   45.1,   44.8,   46.4,   48.1,   49.6,   51.1,   53.1,   57.2,   63.0,   59.8,   60.3,   64.1,   63.8,   67.1,   72.1,   72.9,   74.8,   78.8,  999.0,  999.0,  999.0,  999.0,   72.4,   78.2,  999.0,   75.0,   71.1,  999.0,  999.0,   69.5,   70.7,   74.6,   70.1,  999.0,  999.0,  999.0,   69.6,   71.9,   69.4,   77.4,  999.0,  999.0,  999.0,  999.0,  999.0,   64.1,  999.0,  999.0,  999.0,  999.0,  999.0,   54.6,   59.0,   63.9,   56.9,   60.9,  999.0,  999.0,  999.0,  999.0,  999.0,  999.0,  999.0,  999.0,   44.6,  999.0,  999.0,  999.0,  999.0,  999.0,  999.0,  999.0,  999.0,  999.0,   22.6,   26.0,  999.0,  999.0,   25.0,   21.7,  999.0,   12.9,   17.7,  999.0,  999.0
2020/01/22 10:25,    5.5,    6.1,    7.0,   10.7,   11.2,    0.3,  999.0,   14.3,   14.9,   16.5,   17.4,   18.0,   19.1,   20.4,   19.8,   21.4,   22.7,   23.4,   24.2,   25.2,   26.6,   27.3,   27.2,   29.7,   32.1,   35.3,   34.6,   34.6,   35.2,   35.6,   37.1,   35.8,   38.3,   41.2,   43.0,   44.3,   45.5,   47.0,   47.4,   49.3,   51.3,   54.2,   59.3,   63.5,   57.9,   60.6,   64.8,   67.6,   70.7,   73.3,   76.4,   77.0,   78.7,   78.8,   78.7,   76.2,   78.9,   76.8,   77.5,   77.7,   71.8,   74.5,   74.5,   69.9,   70.3,   71.1,   73.4,   66.7,   72.0,   69.3,   69.4,   67.6,   70.9,   72.8,   71.7,   74.9,  999.0,   65.7,   70.7,  999.0,   62.5,  999.0,  999.0,  999.0,   62.7,   59.9,   58.1,   63.8,   62.4,   61.1,   58.8,   56.2,  999.0,  999.0,  999.0,  999.0,  999.0,   48.8,   42.9,   44.8,   49.5,   38.1,   41.9,   34.2,   33.8,   29.0,  999.0,  999.0,   23.3,   24.8,   26.7,  999.0,  999.0,  999.0,   19.8,   17.0,   13.8,   15.7,   20.7,  999.0
2020/01/22 10:35,    5.4,    6.3,    7.0,    6.9,   10.1,  999.0,    1.7,   15.0,   15.0,   16.1,   17.3,   17.9,   18.3,   19.7,   21.1,   21.3,   22.4,   23.3,   24.7,   25.4,   25.4,   26.6,   28.0,   30.2,   32.7,   35.0,   34.8,   34.3,   35.1,   35.8,   37.0,   37.8,   39.4,   42.0,   43.1,   45.1,   45.2,   46.1,   48.2,   51.9,   54.0,   55.7,   55.3,   59.5,   61.1,   59.7,   62.9,   66.9,   70.1,   72.1,   77.1,   75.8,   79.0,   79.3,  999.0,  999.0,   75.9,   75.5,   76.3,   76.1,   71.7,   76.7,   74.6,  999.0,   71.6,   73.9,   76.8,  999.0,   72.6,  999.0,  999.0,  999.0,   69.7,   72.7,   77.5,  999.0,  999.0,   65.3,  999.0,  999.0,  999.0,  999.0,  999.0,  999.0,  999.0,  999.0,   61.7,   65.2,   66.2,   63.5,   57.1,   57.4,  999.0,  999.0,  999.0,  999.0,  999.0,   47.5,   48.0,   43.0,   46.9,   36.4,  999.0,   38.4,   31.3,   26.2,   25.3,  999.0,  999.0,   23.4,   25.4,   27.7,  999.0,  999.0,  999.0,   16.3,   15.9,   17.6,   23.2,  999.0
2020/01/22 10:45,    3.7,    5.7,    7.6,  999.0,  999.0,   -0.1,  999.0,   14.8,   15.2,   15.6,   17.6,   17.9,   18.5,   20.8,   21.0,   21.2,   22.4,   22.9,   24.0,   24.5,   25.5,   27.7,   30.2,   31.0,   33.5,   32.6,   33.1,   33.5,   34.9,   35.9,   37.0,   37.4,   39.0,   40.2,   40.2,   44.5,   46.7,   47.9,   50.4,   53.1,   54.8,   55.5,   58.8,   59.7,   58.5,   60.5,   65.5,   67.0,   69.5,   72.3,   75.2,   78.4,   79.8,  999.0,  999.0,  999.0,   74.3,   77.4,  999.0,   75.2,   73.6,   76.9,   73.5,   76.0,   68.8,   75.0,   73.5,   70.7,   74.4,   69.2,  999.0,  999.0,   74.0,   75.0,   79.7,  999.0,  999.0,   67.8,   69.5,   67.5,  999.0,  999.0,  999.0,  999.0,  999.0,   62.5,   63.9,   64.7,   64.3,   68.2,   56.1,   57.0,   57.0,  999.0,   47.1,  999.0,   47.2,   49.8,   49.7,   46.9,  999.0,   41.5,   46.7,  999.0,  999.0,  999.0,  999.0,  999.0,  999.0,  999.0,   27.6,  999.0,  999.0,  999.0,   21.0,   18.2,  999.0,   20.2,   20.7,  999.0
2020/01/22 10:55,    5.1,    5.7,    7.0,    7.0,    0.3,   -0.2,    6.9,   14.7,   15.1,   15.0,   16.3,   17.8,   19.3,   20.8,   21.0,   21.3,   21.7,   19.7,   19.7,   23.9,   27.5,   28.5,   30.7,   30.1,   31.3,   32.6,   30.2,   32.9,   35.2,   34.7,   36.9,   38.7,   39.5,   39.3,   42.3,   45.4,   46.7,   47.8,   49.7,   52.3,   55.5,   53.2,   56.8,   56.6,   56.1,   61.0,   65.5,   67.5,   68.1,   72.2,   75.6,   76.4,   79.0,  999.0,   74.5,  999.0,  999.0,  999.0,   79.6,   71.9,   74.9,   76.5,   72.9,   76.5,   70.4,   75.7,   73.6,   71.5,  999.0,   68.4,   67.7,   73.1,   71.3,   75.8,  999.0,  999.0,  999.0,   68.2,   72.8,  999.0,  999.0,  999.0,  999.0,   64.4,  999.0,   62.6,   63.9,   67.9,   65.2,   66.2,  999.0,  999.0,  999.0,  999.0,  999.0,  999.0,  999.0,  999.0,  999.0,   43.1,  999.0,  999.0,   41.3,  999.0,  999.0,  999.0,  999.0,  999.0,  999.0,  999.0,  999.0,   24.5,  999.0,   23.0,  999.0,   19.0,  999.0,  999.0,  999.0,  999.0
2020/01/22 11:05,    3.8,    7.2,    7.0,    5.7,    6.9,   -0.2,  999.0,   15.5,   15.7,   15.7,   16.6,   17.8,   19.3,   21.3,   21.2,   20.8,   21.0,   22.1,   22.5,   23.9,   26.5,   28.5,   31.4,   33.0,   33.8,   32.3,   35.0,   36.7,   35.4,   37.0,   37.3,   39.2,   38.6,   41.0,   43.6,   44.8,   46.1,   49.1,   51.0,   52.3,   52.4,   56.1,   57.8,   59.5,   58.7,   63.1,   65.9,   66.1,   68.4,   71.2,   73.3,   76.5,   76.9,   76.2,  999.0,  999.0,  999.0,   79.5,   75.2,   74.3,   73.5,   78.4,   70.8,   73.1,   71.8,   77.8,  999.0,   70.2,  999.0,   63.9,   69.7,   71.3,   72.8,   73.2,   74.9,  999.0,  999.0,   69.5,   71.8,   69.5,  999.0,   64.8,  999.0,   63.6,   62.4,   60.5,   65.7,   65.6,   64.7,   65.1,   62.0,   54.6,  999.0,  999.0,  999.0,  999.0,  999.0,  999.0,   41.5,   41.2,   41.5,   45.9,   40.5,  999.0,   37.7,   28.4,   26.3,  999.0,   28.2,  999.0,   24.0,   27.5,  999.0,  999.0,   23.3,   25.6,  999.0,  999.0,  999.0,  999.0
2020/01/22 11:15,    5.8,    6.2,    6.8,    5.7,    3.8,   -0.1,  999.0,  999.0,   15.5,   15.5,   15.8,   19.5,   20.2,   22.4,   22.2,   22.3,   23.0,   23.5,   25.1,   26.7,   27.6,   29.5,   31.5,   33.9,   33.9,   32.3,   35.3,   37.5,   36.8,   38.8,   37.7,   38.8,   40.6,   41.3,   43.3,   46.3,   45.9,   49.2,   53.2,   52.0,   52.7,   57.0,   56.9,   56.0,   58.4,   63.8,   65.1,   65.8,   68.9,   70.4,   73.2,   75.4,   77.7,   78.8,  999.0,  999.0,   79.0,  999.0,   75.6,   71.7,   73.9,   73.0,   72.2,   73.0,   70.9,   79.4,   69.2,   72.1,  999.0,   65.5,   69.0,   69.7,   75.5,   79.0,   73.5,  999.0,  999.0,   70.0,  999.0,  999.0,  999.0,  999.0,  999.0,  999.0,  999.0,   59.3,   67.2,   67.1,   62.5,   61.5,   60.5,  999.0,  999.0,  999.0,  999.0,  999.0,  999.0,  999.0,  999.0,  999.0,   43.9,  999.0,   38.5,   40.7,  999.0,  999.0,   26.7,   27.0,   27.1,  999.0,  999.0,   26.9,   30.3,   24.8,   25.0,   26.8,  999.0,  999.0,  999.0,  999.0
2020/01/22 11:25,    5.3,    6.1,    6.7,    6.8,    2.7,    0.1,  999.0,   14.7,   14.9,   15.0,   17.0,   18.7,   22.6,   23.7,   23.7,   24.1,   24.9,   25.5,   27.3,   28.1,   29.2,   30.1,   31.2,   32.9,   33.6,   32.0,   34.2,   37.6,   38.2,   38.5,   39.2,   40.0,   43.0,   43.3,   45.5,   45.2,   48.6,   50.9,   51.0,   48.7,   52.1,   56.7,   57.4,   54.9,   58.8,   64.1,   64.6,   65.5,   68.0,   71.5,   77.3,   77.9,   75.8,  999.0,  999.0,   74.5,  999.0,  999.0,  999.0,   74.2,   79.0,   72.9,   75.7,   67.4,   71.3,   78.4,   70.3,  999.0,  999.0,   64.8,   69.6,   70.7,   73.7,   73.4,  999.0,  999.0,  999.0,  999.0,  999.0,  999.0,  999.0,  999.0,  999.0,  999.0,  999.0,   59.6,   66.2,  999.0,   60.1,   62.7,   60.5,   62.0,  999.0,  999.0,  999.0,  999.0,  999.0,  999.0,  999.0,  999.0,   41.2,  999.0,  999.0,  999.0,  999.0,  999.0,   25.6,   27.7,  999.0,  999.0,  999.0,   28.8,   29.9,  999.0,   24.4,  999.0,  999.0,  999.0,  999.0,  999.0
2020/01/22 11:35,    4.7,    4.5,    7.0,    7.5,    4.2,    2.2,   11.4,   13.8,   13.9,   13.8,   15.8,   17.4,   22.8,   24.0,   25.9,   25.6,   26.2,   27.0,   28.5,   30.0,   30.1,   30.7,   32.2,   33.5,   33.0,   33.3,   35.2,   36.7,   36.0,   38.4,   39.0,   39.5,   42.4,   44.5,   43.5,   47.0,   50.4,   52.1,   49.9,   49.6,   52.7,   57.0,   54.2,   56.6,   59.9,   65.7,   63.2,   65.4,   69.4,   72.9,   77.7,   72.7,   74.4,   77.9,   77.0,   73.1,  999.0,   76.6,   75.4,   73.6,   74.4,   76.2,   74.6,  999.0,   72.8,  999.0,  999.0,  999.0,  999.0,  999.0,  999.0,   68.4,  999.0,  999.0,  999.0,  999.0,  999.0,  999.0,  999.0,   73.0,  999.0,  999.0,  999.0,  999.0,  999.0,   59.7,   63.3,  999.0,  999.0,   62.6,   60.3,  999.0,  999.0,  999.0,  999.0,  999.0,  999.0,  999.0,  999.0,  999.0,  999.0,  999.0,  999.0,  999.0,  999.0,  999.0,  999.0,  999.0,  999.0,  999.0,  999.0,  999.0,  999.0,  999.0,  999.0,  999.0,  999.0,  999.0,  999.0,  999.0
2020/01/22 11:45,    4.1,    2.3,    8.3,    8.1,    0.8,    2.6,   13.3,   15.1,   14.9,   14.7,   17.5,   19.2,   21.3,   24.4,   25.0,   24.7,   25.6,   27.1,   29.4,   31.1,   32.4,   32.2,   30.9,   33.4,   33.0,   32.3,   35.6,   36.4,   36.1,   38.8,   37.2,   40.4,   42.8,   45.7,   45.0,   47.2,   49.6,   48.8,   50.2,   49.9,   52.8,   55.6,   56.3,   57.0,   60.3,   64.6,   62.8,   65.8,   68.5,   72.8,   77.1,   70.4,   74.4,   80.0,   76.0,   79.6,  999.0,   76.8,   79.9,   71.8,   75.6,   76.9,  999.0,   70.3,   76.5,   72.2,   76.5,  999.0,  999.0,   70.3,  999.0,   69.0,   77.0,  999.0,   73.8,  999.0,  999.0,   73.0,  999.0,  999.0,  999.0,  999.0,  999.0,  999.0,  999.0,   56.9,   62.1,   64.4,   72.0,   61.5,  999.0,  999.0,  999.0,  999.0,  999.0,  999.0,  999.0,  999.0,  999.0,  999.0,  999.0,  999.0,  999.0,  999.0,  999.0,  999.0,   28.4,  999.0,  999.0,  999.0,  999.0,   23.5,   27.1,   29.8,   23.1,   25.0,  999.0,  999.0,  999.0,  999.0
2020/01/22 11:55,    2.4,    1.7,    7.2,    7.4,  999.0,  999.0,   12.1,   14.4,   14.5,   14.8,   17.4,   19.4,   22.1,   22.8,   23.0,   23.8,   24.8,   26.7,   28.5,   30.3,   32.2,   31.0,   31.6,   33.0,   33.1,   32.9,   35.5,   35.9,   36.2,   38.1,   37.5,   40.6,   43.9,   44.8,   46.0,   47.9,   47.6,   48.7,   50.0,   50.5,   52.0,   53.4,   53.8,   56.1,   59.5,   61.6,   61.3,   63.8,   68.1,   71.7,   76.8,   75.3,   73.5,   79.3,   74.3,  999.0,   74.7,   75.1,   77.4,   72.4,   74.0,   77.3,   69.9,   68.0,   73.7,  999.0,   70.3,  999.0,  999.0,   65.1,   68.2,   68.0,   71.6,   71.7,   73.9,   72.5,   73.5,   69.3,   71.0,  999.0,  999.0,   62.4,   65.6,  999.0,  999.0,   58.6,   59.7,   63.8,   68.9,   63.1,   63.8,   60.7,   56.3,  999.0,   46.4,  999.0,  999.0,   43.3,   44.5,  999.0,   42.1,  999.0,  999.0,  999.0,  999.0,   22.4,   22.9,   23.1,   25.7,  999.0,   24.6,   24.9,   25.4,   26.9,   25.2,   24.6,  999.0,  999.0,  999.0,  999.0
2020/01/22 12:05,    5.4,    5.2,    7.3,    7.8,    9.2,   10.8,   13.3,   15.1,   14.6,   14.8,   18.1,   20.3,  999.0,   22.4,   21.8,   23.0,   24.3,   26.5,   27.8,   29.5,   30.5,   31.3,   32.6,   31.9,   32.8,   33.9,   35.1,   36.9,   37.0,   39.5,   38.3,   41.4,   44.0,   45.0,   47.7,   47.5,   48.6,   49.0,   49.4,   49.8,   52.3,   53.9,   53.6,   55.6,   57.2,   59.7,   60.8,   65.1,   68.3,   70.6,   74.0,   75.4,   75.3,   78.3,   72.8,  999.0,   74.0,   77.1,   77.4,   70.7,   72.6,   79.6,   72.9,   68.8,   72.7,   63.9,   71.6,  999.0,  999.0,   61.5,   63.1,   67.7,   72.9,   72.9,   74.4,  999.0,   71.3,   69.3,  999.0,  999.0,  999.0,   65.4,   68.2,  999.0,  999.0,   61.6,   58.1,   63.4,   66.9,   64.8,   64.4,   59.5,   54.9,   49.7,   46.3,  999.0,  999.0,   42.1,  999.0,  999.0,  999.0,   39.3,  999.0,  999.0,  999.0,   28.8,   23.6,   26.4,   30.7,  999.0,   23.6,   27.1,   26.3,   26.0,   26.9,   24.4,   26.9,   24.9,  999.0,  999.0
2020/01/22 12:15,    3.9,    6.1,    7.4,    7.8,    7.6,  999.0,   13.2,   15.8,   15.8,   14.9,   17.9,   18.9,   20.3,   20.3,   20.3,   22.0,   24.0,   26.6,   29.0,   30.8,   32.3,   32.4,   32.9,   31.8,   30.8,   31.7,   34.5,   33.8,   36.7,   39.8,   37.8,   39.9,   43.5,   42.4,   44.9,   45.4,   49.3,   45.1,   47.1,   49.0,   50.0,   52.6,   52.9,   56.6,   58.4,   59.9,   61.0,   65.9,   69.4,   71.0,   76.3,  999.0,   71.0,   77.0,   77.1,   78.1,   78.3,   77.9,  999.0,   70.1,   72.6,   72.6,   68.6,   66.3,   73.6,  999.0,   69.9,  999.0,  999.0,   65.8,   70.3,   68.8,   71.5,  999.0,   73.9,  999.0,  999.0,   73.0,  999.0,  999.0,  999.0,  999.0,  999.0,  999.0,  999.0,  999.0,  999.0,  999.0,  999.0,  999.0,  999.0,  999.0,  999.0,  999.0,  999.0,  999.0,  999.0,  999.0,  999.0,  999.0,  999.0,  999.0,  999.0,  999.0,  999.0,  999.0,  999.0,  999.0,  999.0,  999.0,  999.0,  999.0,  999.0,  999.0,  999.0,  999.0,  999.0,  999.0,  999.0,  999.0
2020/01/22 12:25,    5.8,    3.4,    7.2,    7.7,  999.0,  999.0,   13.4,   14.8,   15.1,   15.9,   18.5,   19.8,   18.8,   19.7,   21.2,   22.7,   25.9,   27.6,   30.0,   31.8,   32.1,   32.6,   33.4,   33.9,   33.1,   33.0,   34.2,   35.1,   36.2,   38.4,   37.4,   39.7,   41.5,   44.1,   44.2,   46.7,   46.4,   43.4,   46.4,   48.5,   50.6,   50.6,   52.8,   56.3,   57.9,   57.5,   59.8,   64.3,   68.9,   73.0,   75.3,   76.7,   73.7,   77.9,   78.9,   76.6,  999.0,   78.3,  999.0,   66.6,   74.8,   75.1,   68.0,   70.4,   74.2,   68.4,   69.8,  999.0,  999.0,   64.5,   72.8,   67.1,   74.6,  999.0,   73.5,  999.0,   68.7,   74.6,  999.0,  999.0,  999.0,  999.0,  999.0,  999.0,  999.0,  999.0,   57.7,   63.4,   66.6,   66.8,   62.3,   61.2,   58.0,  999.0,  999.0,  999.0,  999.0,   43.7,  999.0,  999.0,  999.0,   44.3,  999.0,  999.0,  999.0,  999.0,   25.0,   28.9,   30.1,  999.0,  999.0,   28.2,  999.0,  999.0,   23.2,   24.9,  999.0,   24.5,   22.1,  999.0
2020/01/22 12:35,    5.4,    6.1,    6.0,    6.7,    0.7,   12.3,   13.1,   15.6,   14.6,   16.6,   18.5,   20.6,   19.5,   20.8,   22.8,   23.6,   25.0,   27.0,   29.1,   31.8,   32.4,   32.8,   32.3,   33.9,   34.1,   33.1,   34.2,   35.2,   36.8,   38.7,   36.9,   39.6,   41.1,   42.9,   45.2,   45.9,   40.9,   42.5,   44.1,   47.1,   48.6,   50.6,   51.3,   54.1,   56.2,   56.5,   58.4,   62.4,   65.6,   69.9,   74.2,   77.8,   75.1,   78.1,   75.7,   78.3,   80.0,   79.1,   71.0,   69.7,   75.9,   71.9,   74.6,   70.4,   72.6,   71.5,   70.1,  999.0,  999.0,   65.3,   67.4,   69.0,   73.7,  999.0,   71.2,   76.4,   70.0,   71.0,   71.8,  999.0,  999.0,  999.0,   64.2,   63.7,  999.0,   54.3,   59.4,   66.3,   64.5,   63.3,   64.2,   60.3,   55.7,   51.3,   47.3,  999.0,  999.0,   45.0,   45.8,  999.0,   38.8,   41.8,  999.0,   33.6,  999.0,  999.0,   25.4,   27.4,   31.6,   29.9,  999.0,  999.0,   27.5,  999.0,   23.8,  999.0,  999.0,   24.4,   26.8,  999.0
2020/01/22 12:45,    6.5,    7.0,    7.0,    6.8,    9.7,    9.0,   15.0,   15.1,   15.3,   18.0,   19.1,   21.6,   19.0,   20.8,   23.2,   23.7,   27.0,   28.9,   30.9,   31.6,   32.7,   32.9,   32.5,   31.1,   33.2,   33.2,   33.2,   34.6,   36.0,   38.5,   36.8,   39.5,   40.5,   42.5,   44.3,   44.0,   40.0,   41.9,   44.0,   46.3,   47.3,   48.1,   50.4,   52.5,   55.4,   56.4,   57.0,   61.3,   65.3,   68.9,   73.7,   78.3,   73.9,   76.8,   79.6,  999.0,   75.8,   77.7,   72.7,   69.9,   75.5,   70.9,  999.0,  999.0,   66.4,   67.3,   68.4,  999.0,  999.0,   66.8,   67.1,   66.8,   73.8,  999.0,   69.7,   72.0,   67.6,   73.2,   74.5,  999.0,  999.0,  999.0,  999.0,  999.0,  999.0,   51.9,   55.5,   62.3,   66.5,   61.9,   61.5,   61.9,   56.8,   47.2,   44.6,   45.2,   42.5,   43.7,   44.2,  999.0,  999.0,  999.0,  999.0,  999.0,   33.1,  999.0,   25.8,   30.3,   28.9,  999.0,  999.0,  999.0,  999.0,  999.0,  999.0,  999.0,  999.0,   23.3,  999.0,  999.0
2020/01/22 12:55,    3.4,    8.0,    7.6,    8.0,    9.9,  999.0,   13.2,   15.3,   14.8,   17.1,   18.7,   19.4,   18.2,   20.9,   22.6,   25.1,   26.8,   28.1,   29.5,   30.3,   31.4,   31.2,   31.0,   31.8,   34.1,   32.6,   34.1,   34.8,   35.5,   37.9,   37.2,   39.9,   41.4,   43.0,   43.1,   41.1,   40.1,   43.5,   44.8,   44.8,   46.3,   48.7,   50.8,   52.3,   54.8,   53.1,   56.7,   61.4,   64.1,   68.1,   71.5,   75.0,   74.1,   75.2,   75.7,   78.1,  999.0,   67.6,   73.0,   72.8,   72.1,   73.9,   66.1,  999.0,   69.3,   66.4,   71.1,  999.0,  999.0,   66.9,   67.3,   66.4,   73.0,   75.5,   72.3,   66.0,   68.5,   73.0,   72.8,  999.0,  999.0,  999.0,  999.0,  999.0,   57.8,   52.6,   58.9,   64.0,  999.0,   62.4,   61.4,   59.5,   56.1,   50.6,   42.7,   42.2,  999.0,   39.2,   42.1,  999.0,  999.0,   38.6,   41.4,  999.0,  999.0,   29.4,   26.4,   29.1,   27.5,   30.1,  999.0,   28.6,   27.2,   28.0,   21.4,   20.6,   24.0,  999.0,   24.3,   25.9
2020/01/22 13:05,    2.4,    7.3,    8.0,    8.1,    9.6,   12.4,   13.6,   16.5,   15.9,   17.4,   19.0,   18.9,   19.1,   20.3,   21.4,   24.1,   25.6,   27.4,   29.7,   30.6,   31.5,   31.3,   30.7,   32.3,   35.3,   34.1,   34.0,   34.8,   35.7,   36.4,   38.4,   39.7,   41.9,   43.5,   41.0,   40.3,   40.0,   43.2,   44.0,   43.3,   44.6,   46.1,   49.5,   51.3,   52.5,   53.7,   57.0,   60.3,   62.5,   66.3,   69.6,   73.1,   76.4,   77.2,   73.3,   78.2,  999.0,   74.4,   73.2,   71.5,   70.8,   72.5,   69.0,   75.9,   68.7,   66.9,   69.6,  999.0,   64.3,   66.6,   68.3,   64.9,   74.0,   67.9,   72.4,  999.0,   66.0,   71.6,   69.9,  999.0,  999.0,  999.0,  999.0,   62.8,   55.8,   55.1,   59.7,  999.0,   65.1,   58.8,   62.0,   61.3,   58.7,   47.1,   39.9,   41.1,  999.0,  999.0,   39.3,  999.0,   40.1,  999.0,  999.0,  999.0,  999.0,  999.0,   29.7,   30.0,  999.0,   31.1,   27.4,   27.2,   28.2,  999.0,  999.0,   19.4,   22.1,   22.7,   24.4,  999.0
2020/01/22 13:15,    6.3,    8.0,    8.8,    6.6,   10.9,   13.1,   15.3,   16.9,   16.8,   17.7,   19.1,   19.8,   19.9,   21.1,   21.6,   23.8,   25.2,   27.8,   29.5,   30.9,   31.2,   29.4,   30.6,   33.4,   33.1,   35.5,   34.3,   34.8,   35.7,   35.8,   36.9,   38.8,   41.3,   42.0,   42.5,   41.2,   40.0,   45.1,   45.6,   43.1,   44.1,   45.9,   49.7,   52.3,   51.4,   55.4,   58.0,   59.9,   62.8,   65.1,   67.7,   70.5,   73.8,   77.8,   73.9,   76.5,   71.1,   73.4,   73.4,   73.6,   73.5,   71.8,   70.2,   72.8,   66.9,   69.7,   66.9,  999.0,   63.7,   67.9,   68.7,   64.5,  999.0,  999.0,   75.1,   72.3,   68.0,   73.1,   66.4,   69.9,  999.0,  999.0,  999.0,   58.1,  999.0,   56.6,   62.2,  999.0,  999.0,   61.1,   62.6,   60.1,   58.5,   47.9,  999.0,   41.0,   41.5,  999.0,  999.0,  999.0,   41.0,   43.3,  999.0,  999.0,  999.0,   25.3,   26.9,   30.4,   27.7,   31.2,  999.0,   25.8,   27.9,   27.3,  999.0,  999.0,  999.0,  999.0,   25.2,   26.9
2020/01/22 13:25,    6.4,    3.9,    8.3,    8.8,   12.2,   14.3,   17.1,   17.9,   16.8,   17.2,   18.7,   19.9,   20.3,   20.9,   21.6,   23.8,   24.9,   26.6,   28.3,   29.6,   29.2,   28.7,   29.2,   31.2,   33.3,   35.0,   35.2,   34.3,   35.1,   36.1,   36.9,   38.9,   41.0,   42.0,   41.5,   40.0,   41.8,   46.6,   44.7,   44.2,   44.5,   46.9,   49.2,   51.5,   51.7,   55.8,   57.2,   60.7,   63.7,   65.5,   68.0,   70.7,   72.9,   75.9,   74.7,   76.7,   75.6,   72.3,   71.8,   73.7,   76.5,   69.3,   68.4,   73.0,   71.8,   69.3,   72.3,  999.0,   64.7,   65.9,   67.9,   72.4,   69.7,  999.0,  999.0,   68.1,   76.2,  999.0,   65.9,   65.0,  999.0,  999.0,  999.0,  999.0,   57.5,   55.4,   59.7,  999.0,   57.6,   62.2,   64.2,   62.1,   57.9,   52.3,   44.7,   39.7,   41.4,  999.0,  999.0,  999.0,   39.8,   39.9,   39.9,  999.0,  999.0,  999.0,   28.2,   30.6,   33.2,  999.0,  999.0,   25.8,   27.8,   26.9,   24.4,   22.3,   21.1,  999.0,   22.7,  999.0
2020/01/22 13:35,    6.3,    3.5,    9.0,    8.5,   12.9,   15.8,   17.5,   17.5,   17.2,   17.8,   18.6,   19.7,   20.6,   21.2,   20.8,   23.6,   26.1,   28.5,   28.5,   29.9,   31.7,   30.2,   30.6,   30.7,   33.1,   34.7,   35.2,   36.0,   35.1,   36.9,   37.4,   38.9,   41.2,   41.7,   40.5,   40.1,   44.2,   44.8,   43.8,   45.2,   46.2,   46.8,   50.8,   52.4,   53.3,   55.8,   59.2,   61.6,   63.1,   65.0,   68.0,   70.2,   72.3,   75.8,   76.5,   77.6,   75.0,   75.1,   71.3,   73.4,   76.1,   66.7,   69.2,   72.3,   69.6,   71.8,   71.0,   73.8,   64.6,   70.6,   67.4,   73.8,   66.2,  999.0,   68.6,   71.8,  999.0,  999.0,   63.6,   65.4,   73.2,  999.0,  999.0,  999.0,   58.8,   55.8,   58.8,  999.0,   58.1,   63.0,   64.8,   61.4,   55.6,   50.4,   44.2,   38.2,   40.3,  999.0,  999.0,  999.0,  999.0,   41.6,   40.6,   37.1,  999.0,  999.0,  999.0,   35.7,   34.8,  999.0,   32.0,   28.9,  999.0,   29.5,  999.0,  999.0,   20.5,   20.5,  999.0,   24.6
2020/01/22 13:45,    7.3,    7.6,    9.1,    8.2,   12.2,   15.0,   17.9,   18.3,   17.2,   18.6,   19.1,   18.9,   19.2,   20.9,   23.7,   25.0,   27.1,   27.3,   29.0,   30.8,   31.3,   30.5,   31.5,   33.2,   31.0,   32.7,   33.6,   35.5,   36.1,   36.6,   37.1,   38.7,   40.0,   41.2,   40.2,   39.2,   42.2,   45.4,   42.7,   44.7,   46.0,   45.4,   48.0,   49.7,   52.0,   54.2,   58.3,   60.0,   62.1,   64.5,   67.6,   69.3,   73.3,   76.0,   78.2,   77.2,   76.8,   72.7,   70.2,   77.8,  999.0,   67.6,   70.4,   71.3,   69.7,   70.2,   70.2,   65.3,   65.6,   71.2,   69.2,   76.4,  999.0,  999.0,   70.5,   77.6,   69.8,   70.9,   64.2,   67.1,  999.0,   65.4,  999.0,   56.5,  999.0,   57.8,   61.1,  999.0,   59.6,   67.8,   67.3,   64.4,   60.4,  999.0,  999.0,  999.0,  999.0,  999.0,  999.0,   46.6,   45.0,  999.0,  999.0,  999.0,  999.0,  999.0,   29.0,   33.9,  999.0,  999.0,  999.0,  999.0,   25.9,  999.0,  999.0,  999.0,  999.0,  999.0,   20.5,   22.7
2020/01/22 13:55,    8.0,    8.4,    8.8,    6.7,   12.6,   15.4,   17.4,   17.2,   17.4,   18.7,   19.4,   19.1,   20.6,   21.8,   23.3,   25.4,   26.1,   27.3,   28.7,   30.0,   31.2,   31.2,   31.9,   33.5,   35.1,   34.5,   35.8,   37.7,   36.4,   37.9,   37.9,   39.0,   40.8,   38.9,   39.9,   43.2,   46.6,   41.1,   43.3,   44.5,   44.9,   46.4,   51.1,   51.1,   50.1,   52.1,   54.5,   56.7,   61.5,   65.0,   67.9,   70.1,   72.7,   75.4,   77.2,   74.4,   72.5,   73.5,   73.2,   69.7,   73.9,   70.4,   68.6,   66.6,   68.4,   74.8,   71.6,  999.0,   68.2,  999.0,   68.5,   71.0,  999.0,  999.0,  999.0,   74.2,  999.0,   62.8,   64.1,   67.5,   68.5,   69.3,  999.0,   57.2,   57.5,   57.1,  999.0,  999.0,   59.7,   65.0,   65.6,   62.0,   63.8,   49.2,  999.0,  999.0,  999.0,  999.0,  999.0,  999.0,   43.6,   39.4,  999.0,  999.0,   30.8,  999.0,  999.0,  999.0,  999.0,  999.0,  999.0,   30.0,  999.0,   28.6,  999.0,  999.0,  999.0,   12.8,   18.8,  999.0
2020/01/22 14:05,   10.1,    8.0,    8.3,    7.3,   11.8,   15.6,   16.6,   16.6,   17.1,   18.6,   18.4,   19.9,   20.4,   21.5,   23.0,   24.7,   26.5,   26.7,   27.1,   27.4,   28.6,   30.6,   30.7,   31.1,   33.2,   35.3,   36.6,   38.7,   38.1,   39.8,   39.4,   38.7,   38.1,   37.6,   41.4,   44.4,   43.1,   42.6,   43.8,   45.1,   44.5,   46.6,   49.0,   48.0,   50.3,   53.6,   54.0,   57.6,   62.3,   66.4,   68.3,   71.6,   73.6,   75.9,   74.0,   73.2,   71.0,   72.8,   71.5,   68.8,   69.8,   69.3,   68.9,   69.9,   64.6,   66.6,   66.9,   66.2,   64.1,   66.0,   66.5,  999.0,   71.6,   72.1,   72.4,   75.7,   66.0,   66.1,   66.8,   66.4,   63.3,   60.7,   58.0,   56.0,   61.9,   55.0,   57.0,  999.0,   60.5,   65.3,   63.2,   60.1,   62.1,   55.0,   46.5,   43.0,   43.0,  999.0,  999.0,   41.1,   42.0,  999.0,  999.0,  999.0,  999.0,  999.0,  999.0,   31.3,  999.0,  999.0,  999.0,   28.3,   27.4,   26.7,   28.4,  999.0,  999.0,   18.1,   21.7,  999.0
2020/01/22 14:15,    8.7,    7.8,    7.1,    8.2,   12.4,   15.4,   16.8,   16.7,   17.1,   19.2,   19.9,   20.7,   22.2,   24.1,   25.3,   26.7,   28.4,   28.2,   26.8,   27.7,   28.3,   29.0,   28.9,   30.8,   33.8,   33.6,   34.6,   36.9,   38.0,   38.5,   39.6,   37.9,   37.1,   37.5,   40.0,   46.4,   44.3,   42.7,   42.9,   44.0,   45.0,   46.9,   48.8,   46.9,   51.7,   55.0,   53.7,   57.0,   61.0,   65.3,   70.3,   71.7,   75.3,   77.8,   72.0,   71.2,   71.2,   69.7,   73.4,   67.1,   68.5,   74.7,   69.1,  999.0,   61.9,   66.6,   67.3,   65.8,   64.9,   68.4,   68.0,   70.2,   71.7,   70.7,   72.7,   76.3,   66.9,   67.0,   65.9,   66.5,   61.9,   61.1,   58.8,   57.7,   59.6,   54.8,   56.8,   54.4,   62.0,   65.5,   63.1,   58.0,   60.1,  999.0,  999.0,   44.1,  999.0,  999.0,  999.0,  999.0,  999.0,  999.0,  999.0,  999.0,  999.0,  999.0,  999.0,   32.4,   32.1,   33.1,  999.0,   26.5,   31.2,   25.4,   26.0,  999.0,  999.0,  999.0,   19.7,   23.1
2020/01/22 14:25,    8.9,    8.4,    7.9,   10.7,   12.9,   16.3,   18.7,   17.2,   18.5,   20.7,   21.1,   22.8,   24.1,   25.0,   25.8,   25.9,   26.4,   26.3,   25.7,   26.1,   26.4,   27.5,   28.5,   31.7,   32.8,   33.3,   34.9,   37.2,   38.6,   40.1,   38.9,   38.7,   39.4,   39.4,   39.5,   41.6,   44.7,   42.1,   43.1,   45.6,   47.9,   51.6,   46.4,   47.6,   52.4,   55.2,   53.4,   56.3,   59.8,   63.8,   67.9,   70.0,   74.0,   76.1,   75.3,   69.6,   65.6,   76.5,  999.0,  999.0,  999.0,  999.0,  999.0,  999.0,  999.0,  999.0,  999.0,  999.0,  999.0,  999.0,  999.0,  999.0,  999.0,  999.0,  999.0,  999.0,  999.0,  999.0,  999.0,  999.0,  999.0,   61.5,   61.7,   60.2,  999.0,   58.5,   60.3,   61.1,   65.5,  999.0,   63.9,   60.6,   58.9,  999.0,  999.0,  999.0,  999.0,  999.0,  999.0,  999.0,  999.0,  999.0,  999.0,  999.0,  999.0,  999.0,  999.0,   30.9,  999.0,  999.0,  999.0,   27.7,  999.0,   26.6,  999.0,  999.0,  999.0,  999.0,   21.3,  999.0
2020/01/22 14:35,    9.1,    8.7,    8.9,   10.8,   14.0,   17.0,   17.4,   16.6,   17.2,   21.3,   23.1,   23.8,   24.1,   24.3,   24.4,   25.0,   25.7,   25.5,   25.1,   25.3,   26.1,   27.0,   30.4,   31.2,   32.7,   32.7,   35.0,   36.6,   37.1,   37.9,   38.2,   37.6,   37.2,   35.9,   36.7,  999.0,   41.4,   41.4,   43.0,   45.7,   47.2,   49.1,   48.3,   49.8,   53.2,   51.3,   54.2,   57.3,   58.8,   62.8,   66.9,   71.8,   75.0,   72.8,   75.0,   73.5,   68.8,   76.6,  999.0,   68.3,   70.7,  999.0,   68.1,   71.3,   60.1,   65.3,   69.8,   66.3,   65.0,   65.3,  999.0,   72.5,   72.9,  999.0,  999.0,   65.5,   69.0,  999.0,  999.0,  999.0,   60.7,   63.5,  999.0,   55.5,   59.6,   57.6,   58.8,   57.7,   63.0,   64.3,   66.0,   58.2,   57.3,   52.8,   50.7,  999.0,  999.0,   39.6,   42.5,  999.0,  999.0,  999.0,  999.0,  999.0,  999.0,  999.0,  999.0,   29.2,   34.4,  999.0,  999.0,  999.0,   30.9,   30.1,  999.0,  999.0,  999.0,  999.0,   20.1,   22.0
2020/01/22 14:45,    9.9,    9.4,    9.4,   13.7,   16.6,   18.0,   16.7,   17.3,   21.3,   22.6,   23.0,   23.4,   22.8,   23.1,   25.1,   25.8,   26.6,   28.0,   28.1,   28.3,   28.4,   30.1,   31.4,   30.9,   31.7,   32.4,   35.0,   36.0,   36.6,   37.6,   36.8,   36.3,   35.5,   36.3,   39.0,   41.1,   39.1,   42.1,   43.5,   43.9,   46.5,   48.0,   47.6,   49.9,   52.0,   52.7,   52.0,   56.6,   56.8,   62.6,   66.3,   71.4,   76.5,   73.1,   76.0,   71.4,   67.7,   71.6,   79.5,   65.4,   69.3,   65.8,   70.2,   76.1,   62.4,   65.1,   66.0,   68.7,   64.4,   68.5,  999.0,   67.6,   73.7,   70.8,  999.0,   64.5,   69.5,   70.4,   66.8,  999.0,   61.5,   63.2,   64.9,   57.6,   60.6,   58.2,   61.6,   64.2,   68.7,   67.5,   61.5,   60.6,   58.3,   55.5,   53.5,  999.0,  999.0,   43.5,   40.7,   40.6,  999.0,  999.0,   37.4,   38.4,   35.5,  999.0,  999.0,   29.5,   34.6,  999.0,  999.0,  999.0,   28.2,   31.5,  999.0,  999.0,  999.0,   17.6,   18.9,   20.8
2020/01/22 14:55,   11.0,   11.0,   11.0,   16.2,   17.8,   19.1,   18.9,   19.3,   20.8,   21.5,   21.4,   21.7,   22.6,   23.9,   24.9,   26.1,   26.4,   27.2,   28.4,   28.5,   28.8,   31.0,   30.9,   31.0,   32.7,   34.8,   35.4,   35.7,   36.1,   37.2,   35.1,   35.4,   35.6,   35.9,   38.6,   38.4,   39.2,   41.0,   42.5,   44.2,   47.1,   50.0,   46.6,   49.6,   51.3,   52.2,   55.5,   54.7,   58.9,   62.8,   67.6,   73.5,   77.9,   76.7,   77.1,   70.9,   69.7,   71.0,   74.9,   66.0,   69.0,   67.3,   71.1,   74.5,  999.0,   62.4,   67.1,   68.1,   65.4,   66.7,   67.0,  999.0,  999.0,  999.0,  999.0,   63.3,   67.0,   68.7,   66.0,  999.0,   62.2,   63.8,   64.3,   56.7,   60.3,   59.7,   62.0,   65.2,   68.3,   69.4,   61.8,   60.2,   57.5,   51.3,   42.7,   41.6,  999.0,   39.0,  999.0,  999.0,  999.0,  999.0,   36.1,   33.4,   32.5,   29.2,   28.2,   27.4,  999.0,  999.0,  999.0,  999.0,   26.3,   30.2,   27.7,  999.0,  999.0,   18.2,   19.7,   22.8
2020/01/22 15:05,   11.8,   11.3,   11.9,   15.9,   17.1,   17.7,   19.5,   20.5,   20.9,   21.0,   20.7,   20.7,   20.8,   21.0,   23.4,   26.3,   27.9,   28.7,   29.1,   28.5,   29.0,   31.0,   33.2,   32.3,   33.0,   34.8,   36.0,   36.0,   35.6,   35.5,   33.7,   33.3,   34.6,   36.7,   38.4,   37.9,   39.3,   38.6,   41.1,   43.8,   46.7,   48.1,   45.6,   50.5,   51.0,   51.7,   54.4,   55.5,   58.8,   63.9,   67.7,   73.6,   76.9,   77.4,   74.1,   71.8,   67.9,   69.7,   74.0,  999.0,   71.9,   67.2,   70.5,   73.3,  999.0,   61.5,   66.5,   69.5,   66.7,   66.0,   68.1,  999.0,   69.6,   68.0,   70.6,   66.1,   68.3,   62.9,  999.0,  999.0,   60.8,   61.5,   62.2,   57.9,   59.4,   57.5,   59.7,   64.5,   67.9,   71.1,   62.5,   59.5,   58.0,   52.8,   46.8,   41.5,   40.5,   38.5,   36.9,  999.0,  999.0,  999.0,   30.0,   33.6,   31.5,   31.2,  999.0,   28.7,  999.0,  999.0,  999.0,  999.0,  999.0,   29.2,   29.7,  999.0,  999.0,  999.0,   20.8,   22.7
2020/01/22 15:15,   11.7,   11.6,   11.2,   14.0,   16.6,   17.0,   18.0,   19.0,   21.3,   20.9,   19.8,   20.2,   20.7,   20.9,   23.5,   24.9,   26.6,   28.0,   28.7,   28.1,   28.7,   31.2,   33.8,   32.8,   34.3,   36.6,   38.2,   36.0,   34.1,   34.0,   33.5,   32.7,   34.9,   37.3,   37.7,   38.5,   37.0,   38.8,   39.7,   44.2,   47.4,   46.8,   48.1,   50.4,   50.1,   51.1,   54.0,   55.3,   56.5,   62.8,   68.2,   71.9,   75.7,   75.5,   73.1,   71.0,   72.5,   71.3,  999.0,   67.3,   68.6,   70.5,   72.3,   71.2,   75.1,  999.0,   64.2,   70.4,   68.2,   65.9,   68.2,   72.8,  999.0,  999.0,  999.0,   63.7,   68.7,   70.9,   67.2,  999.0,  999.0,  999.0,  999.0,   56.8,   57.2,   56.0,   59.9,   64.4,   67.5,   68.6,   64.3,   60.7,   60.2,   54.6,   48.2,   40.5,  999.0,  999.0,  999.0,   41.0,  999.0,  999.0,   31.7,   31.9,   29.6,   29.9,  999.0,  999.0,  999.0,  999.0,  999.0,  999.0,   26.9,   30.3,  999.0,  999.0,  999.0,   21.8,  999.0,   23.0
2020/01/22 15:25,   12.4,   12.2,   13.4,   14.9,   15.7,   17.2,   16.7,   17.6,   20.5,   20.3,   20.3,   20.5,   21.4,   19.9,   22.5,   26.1,   26.6,   26.6,   27.8,   27.2,   28.3,   30.2,   32.5,   33.4,   35.8,   34.8,   33.7,   33.1,   31.7,   32.1,   31.7,   33.3,   37.0,   37.8,   37.9,   35.6,   36.6,   38.7,   39.4,   43.1,   46.2,   49.0,   46.4,   50.8,   48.7,   50.8,   55.3,   53.7,   55.2,   59.9,   63.6,   68.5,   72.5,   75.8,   73.9,   72.6,   67.9,   71.4,   70.5,   67.2,   68.1,   73.0,  999.0,  999.0,  999.0,   62.6,   63.9,   69.2,   67.6,   69.5,   67.0,   72.3,   66.0,   69.6,   66.2,   65.3,   68.7,   69.9,   66.9,  999.0,  999.0,   61.7,   64.3,   58.4,   62.9,   61.7,   60.6,   66.5,   69.9,   69.4,   65.3,   60.2,   61.3,   53.2,   49.5,  999.0,  999.0,  999.0,   37.8,   39.5,  999.0,   39.3,   31.8,   32.9,   31.4,   28.2,  999.0,   25.9,   27.0,  999.0,  999.0,  999.0,   27.0,   29.5,   26.8,  999.0,  999.0,  999.0,  999.0,   24.4
2020/01/22 15:35,   13.4,   13.8,   14.2,   14.5,   15.4,   16.1,   16.0,   18.1,   21.3,   19.9,   19.7,   20.3,   20.9,   20.7,   22.7,   24.2,   25.7,   27.3,   29.5,   31.1,   31.5,   31.7,   33.9,   35.4,   35.1,   32.2,   31.7,   30.7,   30.9,   31.2,   32.5,   35.7,   38.2,   37.3,   35.3,   38.2,   38.9,   40.8,   41.9,   43.3,   45.5,   48.1,   45.6,   49.6,   48.9,   49.8,   55.0,   55.7,   54.8,   59.9,   64.8,   67.9,   70.8,   72.8,   73.8,   72.5,   66.8,   72.9,   67.7,   67.8,   71.6,   69.9,   66.2,  999.0,   69.1,   61.4,   67.3,   66.7,   65.4,   68.7,   64.6,   70.8,  999.0,   68.7,   64.1,   63.0,   63.2,   65.1,   68.6,  999.0,  999.0,   60.6,   60.9,   57.4,   62.2,   56.3,   59.9,   62.2,   67.1,   68.3,   65.5,   58.9,   58.8,   55.7,   45.0,   42.0,   41.3,  999.0,   37.0,   39.2,   40.8,  999.0,   30.4,   31.7,   30.3,  999.0,  999.0,   25.4,   29.4,  999.0,  999.0,  999.0,   26.5,   29.5,  999.0,   28.3,  999.0,  999.0,  999.0,   20.7
2020/01/22 15:45,   13.0,   13.7,   12.9,   13.6,   15.3,   16.2,   16.3,   18.2,   20.0,   19.8,   20.1,   20.3,   20.3,   20.6,   21.8,   23.9,   25.2,   26.8,   28.9,   30.0,   30.4,   30.1,   32.0,   33.0,   33.6,   32.1,   30.7,   29.5,   29.7,   30.5,   32.9,   37.1,   39.4,   37.6,   38.0,   40.0,   41.1,   41.9,   42.2,   43.3,   44.3,   47.9,   47.4,   47.8,   48.0,   53.3,   54.2,   53.6,   55.8,   60.4,   62.0,   65.6,   66.7,   73.0,   74.0,   68.4,   69.0,   72.0,   67.9,   68.1,   69.9,   68.4,   65.9,   67.7,   64.4,   65.2,   70.7,   61.1,   68.7,   67.7,   66.7,   66.7,   68.4,   67.3,   71.0,   64.0,   66.2,   68.1,  999.0,  999.0,   59.9,   64.2,  999.0,   58.2,  999.0,   58.0,   59.3,   61.4,   64.7,   69.2,   65.9,   62.9,   58.8,   56.5,   43.2,  999.0,  999.0,   36.9,   38.8,   36.9,   42.0,  999.0,   27.7,   30.2,   27.3,  999.0,  999.0,   25.0,   28.1,   26.4,   25.0,   26.1,   26.3,   29.2,   28.9,   28.8,   20.3,  999.0,   21.4,   23.4
2020/01/22 15:55,   13.8,   13.5,   14.7,   15.4,   15.3,   15.6,   16.6,   19.0,   20.4,   20.1,   20.2,   20.7,   21.5,   20.8,   22.0,   24.6,   26.3,   27.9,   29.1,   29.7,   30.9,   32.4,   34.5,   34.8,   33.9,   32.8,   30.9,   30.3,   30.9,   32.7,   37.1,   39.9,   37.5,   37.1,   40.1,   39.9,   39.4,   40.7,   41.4,   43.8,   45.0,   47.8,   46.2,   48.1,   50.4,   53.9,   54.5,   52.7,   58.0,   58.5,   61.4,   65.1,   66.3,   72.4,   72.7,   68.8,   71.5,   69.1,   71.9,   68.0,   68.2,   73.5,   63.9,   66.8,   67.9,   68.8,   68.6,   68.4,   68.9,   67.2,   66.5,   69.5,   73.9,   66.4,   68.0,   63.9,   69.1,   67.7,   69.5,  999.0,   61.7,  999.0,   58.9,   59.8,  999.0,   60.8,   58.6,   62.1,   68.2,   70.6,   61.6,   63.7,   61.9,   53.0,  999.0,   43.9,   40.2,   40.9,   44.0,   37.1,   40.1,   37.5,   31.4,   31.2,   31.2,  999.0,   23.1,   25.5,   29.5,   29.3,   25.3,   26.4,  999.0,   30.3,   22.4,  999.0,  999.0,  999.0,  999.0,   21.4
2020/01/22 16:05,   14.0,   14.6,   15.1,   14.5,   15.1,   15.4,   16.2,   18.6,   19.1,   18.9,   20.3,   21.1,   21.4,   21.3,   22.9,   25.0,   25.7,   26.7,   27.9,   29.3,   30.2,   31.0,   31.5,   32.1,   31.3,   31.9,   31.6,   31.5,   30.6,   33.7,   35.1,   37.6,   40.9,   37.5,   39.1,   37.7,   37.6,   39.1,   39.8,   42.9,   43.5,   46.3,   47.3,   46.3,   50.0,   53.2,   49.2,   53.1,   58.1,   54.9,   59.9,   62.8,   65.7,   71.5,   67.1,   67.0,   68.4,   76.3,   64.8,   67.9,   71.7,   68.6,   68.0,   67.1,   66.7,   67.1,   68.0,   66.9,   67.4,   68.6,   66.6,   69.9,   70.2,   66.3,   70.0,   59.8,   65.9,   66.6,  999.0,  999.0,   62.2,   61.6,  999.0,   59.5,   69.7,  999.0,  999.0,   59.8,   67.5,   69.7,   62.7,   61.3,   55.1,   54.5,   47.0,   39.1,  999.0,   41.5,   42.5,   40.7,   38.2,   39.1,   31.9,   32.4,   31.0,  999.0,  999.0,   25.5,   29.0,   31.1,  999.0,   28.8,  999.0,  999.0,  999.0,  999.0,  999.0,  999.0,   18.8,  999.0
2020/01/22 16:15,   13.2,   14.0,   13.7,   14.1,   14.7,   16.3,   17.8,   20.1,   20.1,   20.3,   21.0,   21.3,   21.8,   22.0,   23.9,   25.1,   26.1,   27.7,   28.5,   28.2,   29.2,   30.4,   32.2,   32.8,   33.4,   32.4,   32.2,   32.0,   31.8,   34.2,   36.5,   38.5,   39.5,   37.4,   37.9,   37.9,   38.5,   39.5,   41.2,   42.1,   43.6,   46.6,   46.9,   45.9,   48.0,   52.6,   49.3,   53.4,   56.4,   53.0,   57.5,   63.0,   67.1,   70.4,   64.3,   72.7,   68.9,   74.8,   67.8,   64.8,   69.2,  999.0,   64.6,   68.0,   67.3,   67.5,   69.3,   68.9,   66.9,   68.2,  999.0,   66.0,   71.1,   64.9,   66.2,   70.5,   65.1,   62.9,   67.6,  999.0,   60.3,   64.7,  999.0,   63.4,   64.3,  999.0,  999.0,  999.0,  999.0,   63.3,   62.4,  999.0,   52.1,   49.8,  999.0,   42.7,  999.0,  999.0,  999.0,  999.0,  999.0,  999.0,  999.0,  999.0,  999.0,  999.0,  999.0,  999.0,  999.0,  999.0,  999.0,  999.0,  999.0,  999.0,  999.0,  999.0,  999.0,  999.0,  999.0,  999.0
2020/01/22 16:25,   12.1,   12.5,   13.2,   13.6,   14.8,   16.4,   17.9,   20.6,   20.0,   19.7,   21.2,   22.0,   23.4,   25.1,   26.8,   26.7,   27.4,   28.3,   29.6,   31.2,   29.3,   29.4,   28.5,   29.0,   31.1,   31.5,   31.1,   30.9,   32.8,   36.3,   40.4,   37.7,   36.6,   36.5,   37.4,   37.3,   37.3,   40.0,   41.5,   40.6,   43.5,   43.0,   46.7,   44.8,   49.0,   49.7,   49.1,   53.3,   57.3,   53.1,   56.6,   62.3,   63.6,   68.2,   65.7,   66.3,   69.7,   72.7,  999.0,   66.8,   67.4,   71.0,   67.7,   67.9,   70.1,   65.9,   65.8,  999.0,   65.9,   69.8,   68.9,   66.5,   69.8,   63.2,   68.3,   69.3,   61.9,   66.3,   68.6,  999.0,   57.2,   65.5,  999.0,   61.4,   64.3,   65.4,  999.0,  999.0,  999.0,   61.7,   64.9,   64.0,   52.0,   49.8,   44.5,   48.5,   41.8,   44.9,  999.0,  999.0,  999.0,  999.0,  999.0,   30.3,   29.7,   31.5,  999.0,  999.0,   26.9,   30.0,  999.0,   30.6,  999.0,   26.7,  999.0,  999.0,   18.4,   17.2,  999.0,   20.0
2020/01/22 16:35,   13.4,   14.3,   14.1,   13.7,   13.7,   15.0,   18.3,   18.8,   19.0,   20.2,   23.7,   24.3,   24.2,   24.4,   25.5,   26.0,   27.7,   29.0,   29.3,   29.2,   29.3,   30.4,   28.6,   28.7,   30.4,   30.5,   31.4,   32.9,   33.8,   36.1,   38.9,   37.1,   37.2,   37.1,   35.8,   36.8,   39.8,   39.4,   41.7,   41.9,   42.4,   43.6,   47.0,   45.7,   50.7,  999.0,   49.9,   54.5,   52.0,   52.5,   57.0,   60.8,   67.5,   66.8,   70.2,   66.4,   69.9,   77.1,   65.6,   65.8,   68.9,   68.3,   68.3,   66.1,   68.1,   66.6,   67.7,  999.0,   62.9,   69.6,  999.0,  999.0,  999.0,  999.0,  999.0,  999.0,   63.7,  999.0,   68.3,  999.0,  999.0,  999.0,  999.0,   60.8,   64.8,   62.8,   70.9,  999.0,  999.0,   64.7,   64.3,  999.0,   49.9,  999.0,  999.0,  999.0,  999.0,  999.0,  999.0,  999.0,  999.0,  999.0,  999.0,  999.0,   31.5,  999.0,  999.0,  999.0,  999.0,   31.8,   28.1,   31.4,  999.0,   29.0,  999.0,  999.0,  999.0,  999.0,  999.0,   22.7
2020/01/22 16:45,   13.4,   14.1,   13.6,   13.2,   13.4,   16.0,   19.8,   18.1,   18.5,   19.6,   22.7,   23.6,   24.6,   24.8,   25.8,   26.8,   28.0,   28.1,   28.6,   28.2,   29.7,   30.6,   30.6,   30.6,   31.2,   31.0,   30.1,   32.4,   33.0,   34.1,   35.9,   35.8,   35.7,   36.5,   36.7,   38.6,   39.3,   41.4,   41.5,   42.9,   42.6,   44.8,   45.6,   46.7,   49.7,   48.3,   51.2,   52.0,   50.2,   53.2,   59.3,   64.6,   66.8,   64.3,   66.1,   64.1,   70.1,   73.2,   67.8,   71.4,   65.6,   71.4,   64.5,   68.0,   67.1,   65.9,   70.3,   64.9,   66.4,   66.9,   67.1,   69.2,   60.5,   67.8,   67.4,  999.0,   62.6,   66.3,   66.4,   73.7,   60.8,  999.0,  999.0,   58.1,   64.4,   58.1,   66.5,  999.0,   61.0,   64.1,   64.1,   53.7,  999.0,   47.5,   44.0,   42.2,   42.3,   42.8,  999.0,  999.0,  999.0,   33.1,  999.0,  999.0,   25.1,   27.0,  999.0,  999.0,  999.0,  999.0,   28.1,   32.8,   28.9,   29.7,   31.1,  999.0,  999.0,  999.0,  999.0,  999.0
2020/01/22 16:55,   13.8,   14.7,   13.4,   13.7,   14.2,   17.9,   18.7,   17.1,   18.1,   19.1,   21.7,   22.8,   23.3,   23.1,   24.9,   26.8,   28.0,   27.9,   28.1,   28.3,   29.4,   29.7,   29.7,   30.7,   31.6,   32.0,   31.6,   31.7,   32.3,   34.2,   35.2,   34.5,   35.5,   36.0,   37.1,   38.5,   39.8,   42.4,   41.7,   42.0,   43.6,   44.9,   45.4,   48.3,   46.4,   47.3,   51.8,   49.6,   52.3,   56.4,   61.9,   66.7,   65.6,   67.7,   66.9,   68.9,   67.6,   70.1,   66.8,  999.0,   66.8,  999.0,   65.0,   65.8,   64.9,   68.0,  999.0,   62.4,   65.9,  999.0,   68.3,   68.7,   60.9,   65.5,   68.7,  999.0,   64.4,  999.0,   69.2,  999.0,  999.0,  999.0,   60.7,   58.6,   60.6,  999.0,   65.6,  999.0,  999.0,   63.5,   64.4,  999.0,   52.0,   49.4,  999.0,   42.2,   45.9,   41.6,   39.2,  999.0,  999.0,  999.0,   34.2,  999.0,   25.0,   26.9,   25.6,  999.0,  999.0,   26.7,   30.1,   33.1,   31.3,   32.1,  999.0,  999.0,  999.0,  999.0,   18.5,   23.0
2020/01/22 17:05,   12.8,   13.4,   13.6,   14.8,   16.6,   18.3,   19.1,   17.4,   17.6,   19.0,   21.1,   22.3,   21.3,   22.3,   23.9,   25.5,   27.0,   28.3,   28.3,   29.0,   29.3,   29.1,   29.5,   30.3,   30.8,   30.9,   32.3,   32.8,   32.0,   34.3,   34.9,   34.8,   36.3,   38.2,   38.4,   38.3,   40.3,   41.0,   41.4,   42.9,   41.8,   44.0,   44.5,   45.6,   47.1,   47.7,   49.1,   50.7,   51.7,   55.8,   61.3,   67.3,   64.0,   64.1,   67.1,   68.2,   67.8,   71.6,   65.1,   68.4,   66.5,  999.0,   64.8,   66.5,   66.2,   66.9,   66.5,   64.2,   63.9,   68.2,   65.4,   73.9,   61.6,   64.2,   66.2,   70.8,   61.5,   66.7,   66.2,   75.2,  999.0,   58.3,   63.2,   55.6,   62.0,   60.5,   64.6,  999.0,   60.8,   64.9,   68.7,   49.3,   52.8,   52.4,   42.1,   42.8,   44.8,   42.4,   45.0,  999.0,  999.0,   35.7,  999.0,   28.3,   27.0,   27.1,   27.4,  999.0,  999.0,  999.0,   28.0,   31.6,   32.2,   31.9,   30.4,   23.0,  999.0,   17.2,   20.1,   23.5
2020/01/22 17:15,   14.0,   15.1,   16.2,   16.0,   17.0,   18.4,   18.9,   17.0,   16.8,   17.4,   19.5,   20.5,   21.5,   22.4,   22.9,   24.3,   25.2,   27.5,   29.3,   29.1,   28.6,   27.8,   27.8,   29.0,   29.8,   32.3,   33.7,   34.5,   33.9,   35.6,   36.8,   35.3,   36.6,   37.2,   37.9,   39.7,   38.6,   39.9,   41.3,   44.0,   43.0,   44.1,   45.3,   45.0,   47.8,   48.9,   48.9,   50.6,   51.7,   56.9,   62.2,   66.1,   64.1,   66.4,   68.3,   67.9,   69.0,   71.0,   68.1,  999.0,   69.1,  999.0,   64.2,   67.3,   62.2,   68.3,   62.4,   63.9,   65.7,   64.5,   66.6,   75.8,   59.6,   64.8,   65.0,   71.6,   62.1,   63.3,   66.3,   75.4,   57.6,   59.5,   63.2,   57.0,   61.1,   62.0,   62.1,   69.2,   60.5,   64.6,   66.1,   49.6,   48.2,   53.8,   45.1,   45.5,   45.6,   43.6,   46.3,   44.9,  999.0,  999.0,   29.2,   27.4,   28.8,   25.4,   24.6,  999.0,   27.3,   24.2,   27.0,   31.6,  999.0,   31.7,   29.7,   24.2,  999.0,   19.6,   20.6,   24.4
2020/01/22 17:25,   13.6,   14.7,   14.7,   16.8,   17.1,   17.8,   17.0,   16.9,   17.6,   17.4,   18.5,   20.1,   21.2,   22.1,   22.8,   24.1,   26.2,   28.3,   30.2,   30.0,   28.6,   27.2,   27.6,   29.1,   31.0,   32.3,   33.3,   35.1,   32.6,   34.2,   36.0,   34.9,   35.9,   36.4,   38.2,   38.4,   39.2,   40.3,   41.8,   43.3,   43.5,   44.8,   44.7,   46.5,   48.1,   48.0,   48.0,   48.1,   52.2,   55.6,   59.9,   65.3,   66.7,   63.4,   66.9,   67.5,   69.3,   65.7,   66.7,   66.5,   74.0,   63.9,   64.5,   68.8,   61.5,   66.3,   62.9,   65.1,   66.3,   65.3,   65.5,   71.5,   58.8,   64.9,   63.3,   71.4,   61.9,   62.8,   67.0,   75.7,  999.0,   59.0,   60.8,   56.7,   60.1,   61.5,   61.7,  999.0,   58.7,   63.1,   62.6,  999.0,   48.4,   48.5,   50.5,   44.5,   43.6,   45.4,   47.3,   37.2,  999.0,   34.7,   33.9,   25.3,   27.6,   27.1,   24.4,  999.0,  999.0,   23.4,   26.8,   30.9,   31.5,   32.6,   28.3,   23.5,   20.1,  999.0,   20.9,   23.2
2020/01/22 17:35,   13.1,   12.9,   13.7,   15.2,   16.9,   18.4,   17.4,   15.9,   16.7,   16.8,   18.1,   20.6,   20.7,   21.1,   21.4,   23.7,   26.1,   28.9,   29.9,   29.6,   29.1,   27.9,   26.9,   27.7,   29.6,   31.2,   33.1,   33.9,   33.2,   32.4,   34.4,   37.0,   36.6,   36.7,   36.7,   36.5,   38.1,   39.7,   41.5,   43.1,   42.2,   44.6,   45.2,   46.9,   48.1,   50.4,   47.6,   48.6,   51.3,   54.8,   59.5,   63.6,   65.6,   67.5,   66.6,   65.6,   69.4,   68.0,   67.8,   68.5,  999.0,   66.3,   66.5,   68.3,   64.9,   68.2,   62.3,   64.9,   67.9,   63.0,   69.0,   63.2,   62.0,   65.9,   66.2,   71.5,   62.9,   63.4,   69.1,  999.0,   56.3,   63.6,   58.8,   59.6,   59.4,   62.1,   63.6,   61.8,   58.4,   63.1,   67.2,  999.0,   48.4,   48.1,   47.7,   42.8,   46.3,   44.7,   46.3,   42.3,  999.0,  999.0,   35.3,   28.6,   28.8,   27.4,   27.8,  999.0,  999.0,  999.0,   27.5,   31.3,   32.9,   33.4,   35.4,   23.8,   24.2,   22.2,   21.0,   23.6
2020/01/22 17:45,   13.4,   12.9,   14.3,   14.4,   14.7,   16.6,   18.3,   16.2,   16.9,   17.3,   19.7,   21.0,   21.8,   21.3,   21.3,   23.6,   25.9,   27.4,   28.7,   28.6,   27.8,   27.1,   25.7,   26.5,   27.0,   28.4,   30.1,   32.1,   33.7,   34.8,   35.2,   37.0,   40.2,   37.7,   38.0,   40.1,   39.5,   40.6,   44.1,   42.2,   43.6,   45.1,   47.2,   48.7,   51.2,   47.6,   47.6,   50.2,   51.2,   55.8,   59.6,   63.0,   64.8,   68.6,   64.4,   64.3,   68.0,   68.1,   68.0,   71.3,   67.0,   65.9,   67.1,   63.1,   66.3,   68.0,   66.6,   63.7,   66.0,   65.6,   66.8,  999.0,   60.6,   65.4,   64.0,   70.8,   59.7,   63.1,   69.0,  999.0,   59.1,   59.7,   59.2,   59.0,   56.0,   61.1,   62.0,   66.5,   61.1,   62.4,   64.9,  999.0,   45.9,   50.9,   49.8,   43.3,   45.7,   44.3,   44.4,   42.8,  999.0,   31.8,   30.5,   29.7,   27.8,   28.2,   25.2,  999.0,  999.0,   24.9,   27.1,   30.5,   32.7,   31.1,   34.4,   23.5,   23.0,   23.2,   20.4,   23.2
2020/01/22 17:55,   12.8,   12.7,   13.1,   14.2,   15.2,   17.2,   19.8,   16.9,   17.0,   18.7,   20.4,   21.0,   20.4,   21.4,   23.0,   24.8,   25.9,   27.0,   28.1,   28.8,   29.7,   29.1,   29.5,   29.5,   28.4,   27.5,   27.1,   27.3,   29.4,   31.1,   34.0,   33.8,   36.6,   38.5,   39.4,   39.5,   39.3,   43.1,   43.9,   43.0,   44.8,   45.7,   47.6,   49.9,  999.0,   44.4,   48.4,   51.8,   50.2,   54.3,   57.6,   60.9,   62.4,   65.3,   71.2,   63.4,   63.9,   69.8,   67.0,   70.3,   70.8,  999.0,   64.9,   68.0,   65.1,   68.2,   72.5,   62.6,   64.6,   67.0,   66.8,   72.0,   63.8,   64.7,   65.6,   68.4,   55.9,   64.3,   67.2,  999.0,   56.5,   59.8,   59.1,   57.7,   57.2,   58.7,   60.3,   65.0,   61.7,   64.5,   62.0,  999.0,   48.5,   48.0,   47.1,   43.9,   45.9,   43.3,   44.8,   44.1,  999.0,   31.5,   28.8,   29.2,   26.4,  999.0,   23.8,  999.0,  999.0,   25.3,   27.4,   31.6,  999.0,   29.3,   33.3,   24.2,   22.5,   22.4,  999.0,   22.0
2020/01/22 18:05,   11.0,   11.4,   11.9,   12.9,   15.5,   17.3,   20.5,   18.7,   16.3,   17.4,   19.7,   20.7,   21.6,   21.8,   22.7,   24.8,   26.2,   27.6,   27.8,   29.1,   29.9,   30.5,   30.4,   30.4,   29.7,   28.6,   27.2,   26.9,   28.4,   29.2,   30.9,   32.6,   34.9,   35.5,   37.6,   40.1,   37.9,   41.6,   44.9,   42.4,   44.1,   46.2,   48.4,   47.7,   47.3,   48.1,   50.1,   48.5,   52.0,   53.5,   56.2,   61.2,   64.3,   63.8,   69.6,   63.8,   65.5,   68.8,   70.1,   67.8,   70.7,  999.0,   65.1,   64.8,   66.0,   68.7,   69.2,   63.3,   64.6,   63.5,   66.3,   70.2,   64.2,   63.4,   66.7,   67.9,   55.9,   61.2,   64.5,   67.6,   59.9,   60.5,   58.1,   59.5,   61.1,   62.4,   59.1,   63.8,   61.1,   61.8,   62.4,  999.0,   46.8,   48.2,   45.3,   44.9,   46.1,   43.3,   43.7,   42.1,   42.4,   29.9,   29.0,   28.9,   27.7,  999.0,  999.0,   24.9,   21.1,   24.9,   27.1,   31.6,  999.0,   30.6,   33.1,  999.0,   21.8,   22.5,   21.6,   22.0
2020/01/22 18:15,    7.4,    9.4,   10.2,   13.8,   16.0,   18.9,   20.8,   19.1,   17.3,   18.2,   19.8,   21.0,   21.3,   22.1,   23.7,   24.5,   25.8,   27.3,   27.9,   29.6,   30.0,   30.2,   29.6,   29.4,   29.1,   27.8,   28.1,   29.5,   30.1,   29.8,   31.2,   33.7,   36.5,   38.4,   39.9,   39.8,   40.8,   43.5,   44.4,   43.4,   44.2,   46.3,   47.0,   46.5,   47.8,   47.0,   48.6,   49.2,   51.0,   51.8,   55.2,   60.4,   61.5,   62.3,   67.4,   64.4,   65.3,   67.2,   68.8,   65.4,   67.7,   67.2,   62.8,   66.7,   65.1,   64.9,   66.8,   64.1,   63.6,   64.4,   64.4,   71.5,   63.5,   63.9,   63.6,   65.5,   70.0,   58.9,   62.0,   70.3,  999.0,  999.0,   52.8,   60.5,   61.4,   59.1,   62.6,   65.8,   61.3,   63.4,   62.1,  999.0,  999.0,   47.0,   44.1,   44.9,   43.6,   42.0,   44.3,   40.9,  999.0,   29.9,   26.7,   28.4,   29.7,  999.0,  999.0,  999.0,   22.9,   24.7,   27.6,   31.4,  999.0,   29.9,   33.1,   24.9,   20.0,   19.6,  999.0,  999.0
2020/01/22 18:25,    8.1,    9.4,   12.3,   16.5,   17.6,   20.2,   19.4,   17.6,   19.0,   20.7,   21.4,   21.5,   21.2,   22.5,   23.5,   23.9,   25.6,   27.0,   28.9,   30.3,   30.2,   29.6,   28.9,   29.0,   28.1,   27.9,   27.9,   28.9,   30.4,   30.3,   31.3,   32.7,   35.3,   38.2,   40.6,   39.9,   39.8,   42.2,   43.7,   45.7,   46.6,   46.1,   46.5,   47.8,   47.0,   48.4,   49.1,   50.7,   50.8,   51.5,   54.4,   59.2,   62.6,   62.5,   64.0,   63.3,   69.8,   63.0,   67.5,   65.5,   70.3,  999.0,   64.7,   64.3,   64.0,   65.2,   65.2,   65.8,   62.7,   60.3,   66.0,   65.5,   65.3,   60.7,   62.8,   64.8,   71.3,   57.3,   61.8,   67.6,  999.0,   59.5,   56.9,   58.9,   63.5,   57.7,   61.0,   64.3,   60.5,   63.0,   62.2,  999.0,   51.6,   44.7,   42.5,   43.4,   43.7,   40.4,   42.5,   42.1,   37.3,   30.5,   27.7,   23.9,   26.3,   23.3,  999.0,  999.0,   18.4,   22.7,   26.7,   31.0,   26.3,   29.3,   28.5,   22.0,   20.7,   19.6,  999.0,   20.6
2020/01/22 18:35,    8.9,   10.2,   13.4,   17.3,   18.6,   19.4,   19.3,   19.0,   20.4,   20.4,   19.7,   20.7,   20.6,   21.3,   22.7,   23.1,   24.8,   27.7,   28.9,   29.6,   30.1,   28.6,   27.7,   28.2,   28.0,   27.5,   27.4,   27.8,   28.1,   29.2,   30.0,   31.5,   34.5,   37.9,   39.0,   39.5,   39.2,   41.5,   44.9,   47.0,   47.0,   46.5,   47.4,   47.7,   46.8,   47.9,   51.9,   51.0,   51.9,   53.5,   55.1,   61.2,   60.2,   62.5,   62.6,   66.4,   65.8,   66.1,   69.3,   65.3,   68.9,   72.2,   64.7,   62.5,   65.2,   67.9,   66.0,   64.3,   64.6,   62.1,   69.9,   64.5,   61.7,   62.4,   64.6,   63.1,  999.0,   58.1,   60.8,   67.1,  999.0,  999.0,   63.4,   56.4,   62.3,  999.0,   59.2,   62.8,   60.9,   63.4,   60.2,   56.1,   51.8,   45.7,   43.4,   42.2,   44.8,   40.4,   40.2,   39.6,  999.0,   34.3,   28.7,   24.0,   25.7,  999.0,  999.0,  999.0,  999.0,   23.3,   26.7,   32.1,   28.3,   28.9,   25.2,   23.4,   19.3,   18.4,  999.0,   19.9
2020/01/22 18:45,    9.8,   11.7,   13.4,   17.3,   18.3,   20.5,   19.5,   19.3,   20.6,   20.5,   20.3,   20.3,   20.0,   21.3,   22.1,   22.4,   24.9,   28.4,   28.8,   28.3,   28.4,   28.0,   27.3,   27.2,   28.1,   28.1,   28.3,   28.2,   28.4,   28.5,   30.8,   32.7,   35.7,   37.4,   38.4,   38.8,   38.8,   40.5,   45.0,   47.9,   47.4,   46.3,   46.2,   46.1,   48.7,   52.2,   49.9,   51.1,   53.7,   52.4,   56.6,   62.1,   60.4,   63.5,   62.2,   66.9,   63.7,   67.2,   68.0,   65.6,   70.5,  999.0,   63.8,   63.2,   65.7,   68.1,   66.0,   66.0,   63.1,   63.4,   68.9,   64.6,   63.5,   64.7,   65.5,   64.2,   56.5,   60.0,   62.1,   71.0,   57.1,  999.0,   55.2,   53.8,   59.8,   60.3,   58.5,   60.6,   60.7,   62.9,   62.8,   59.1,   50.1,   48.2,   43.2,   41.1,   41.1,   39.2,   39.6,   39.1,   33.5,   31.0,   33.7,   23.6,   25.7,  999.0,  999.0,  999.0,  999.0,   23.9,   27.6,   32.4,   28.0,  999.0,   25.5,   24.1,   21.6,   18.8,   17.3,   20.4
2020/01/22 18:55,   11.5,   12.4,   13.6,   14.5,   17.4,   19.5,   19.6,   19.8,   20.7,   20.5,   20.0,   19.7,   21.1,   21.7,   21.7,   22.8,   25.9,   28.2,   28.4,   29.0,   29.6,   28.6,   27.9,   27.2,   27.2,   28.0,   28.4,   28.3,   28.2,   28.8,   31.1,   33.3,   35.6,   37.9,   39.5,   39.7,   38.7,   41.0,   45.6,   48.5,   45.4,   47.9,   47.3,   47.3,   49.8,   49.2,   49.1,   51.6,   54.8,   52.5,   56.4,   60.4,   60.3,   63.8,   62.6,   68.8,   65.7,   67.0,   65.8,   66.9,   72.0,  999.0,   66.6,   64.0,   65.2,   68.4,   64.8,   66.5,   63.9,   64.0,   68.3,   62.8,   62.9,   65.1,   61.8,   68.6,   59.0,   60.0,   65.3,   70.9,   60.7,   54.5,  999.0,   54.9,   57.9,   57.3,   56.7,   57.8,   61.5,   64.0,   63.9,   57.5,   50.9,   47.1,   46.2,   39.7,   40.1,   41.1,   40.4,   42.2,   33.9,  999.0,   30.4,   25.8,   24.4,   24.4,  999.0,  999.0,  999.0,   25.7,   29.3,   34.6,   31.3,   33.7,   21.9,   22.0,   20.9,   19.5,   16.0,   19.2
2020/01/22 19:05,   11.1,   12.0,   13.0,   16.3,   17.1,   20.0,   18.0,   19.6,   19.7,   19.2,   19.0,   20.1,   21.3,   22.6,   22.5,   23.3,   25.8,   27.7,   27.5,   27.7,   28.2,   28.2,   27.1,   27.2,   28.5,   28.8,   27.4,   25.6,   28.1,   31.5,   33.5,   34.6,   37.0,   38.6,   39.4,   40.2,   41.6,   44.0,   45.5,   47.1,   44.8,   47.5,   47.0,   46.3,   47.9,   48.0,   47.4,   50.9,   55.7,   51.0,   55.6,   58.7,   60.5,   63.1,   61.8,   66.0,   64.4,   65.5,   68.0,   67.0,   68.0,  999.0,   65.8,   64.5,   63.7,   68.1,   64.7,   69.4,   65.3,   62.1,   67.9,   61.0,   61.8,   62.7,   61.1,   67.2,   57.0,   58.8,   66.1,  999.0,   60.3,   55.5,  999.0,   57.6,   55.9,   57.3,   55.5,   58.0,   63.3,   60.3,   60.8,   54.6,   50.9,   46.5,   44.4,   39.1,   38.0,   40.1,   40.6,   42.1,   34.7,   35.1,   34.5,   24.9,   27.1,   27.6,  999.0,  999.0,   25.6,   27.6,   30.8,  999.0,   29.3,   33.1,   26.4,   22.4,   20.9,   19.6,   16.6,   19.1
2020/01/22 19:15,   11.0,  999.0,   15.1,   16.2,   16.7,   19.7,   18.1,   18.8,   18.8,   18.9,   18.8,   19.9,   21.6,   22.5,   23.0,   24.3,   25.8,   26.6,   25.9,   27.0,   28.1,   28.2,   28.3,   29.2,   29.2,   27.6,   26.8,   28.2,   30.9,   32.8,   34.7,   34.9,   35.3,   36.8,   39.6,   41.7,   44.4,   45.6,   46.7,   45.6,   44.9,   47.2,   45.7,   48.0,   47.2,   46.6,   49.3,   52.6,   54.8,   52.9,   55.8,   58.9,   62.5,   64.7,   61.3,   67.2,   64.6,   66.2,   67.3,   68.3,   69.7,   61.1,   66.3,   62.0,   66.0,   71.3,   63.7,   69.7,   63.1,   63.4,   64.1,   60.8,   64.1,   62.6,   61.3,   67.7,   56.5,   60.7,   65.6,   70.4,   60.4,   58.4,   51.9,   58.2,   51.0,   55.9,   55.6,   59.3,   66.4,   57.0,   60.1,   55.2,   50.3,   47.0,   43.8,   42.7,   34.6,   39.0,   40.9,   42.5,   36.1,   35.0,   30.2,   23.1,   24.3,   25.5,  999.0,  999.0,   25.1,   27.2,   30.1,   29.9,   29.4,   32.3,   25.9,   22.0,   19.5,  999.0,   15.8,   18.9
2020/01/22 19:25,   11.1,  999.0,   13.6,   16.0,   17.6,   19.8,   17.9,   17.3,   17.4,   17.9,   18.2,   18.5,   20.6,   21.5,   22.4,   23.4,   24.6,   25.5,   25.8,   26.3,   26.8,   27.8,   29.3,   29.2,   27.7,   25.5,   25.6,   27.8,   30.7,   32.5,   34.5,   35.0,   36.0,   38.3,   40.4,   43.3,   45.0,   46.1,   47.0,   47.1,   44.8,   45.3,   46.0,   45.0,   46.5,   48.9,   52.4,   52.4,   52.9,   53.2,   56.4,   62.3,   63.7,   64.8,   60.0,   66.2,   65.7,   66.8,   66.4,   68.3,   67.5,  999.0,   64.9,   60.5,   63.7,   68.5,   62.8,   69.1,   62.4,   63.4,   65.1,   59.0,   63.5,   60.8,   60.5,   65.8,   55.2,   61.6,   60.4,   70.2,   58.6,   55.0,   58.0,   55.8,   54.1,   53.4,   55.3,   60.0,   66.5,   61.6,   60.1,   51.6,   50.5,   44.9,   41.7,   40.8,   35.3,   37.7,   38.4,   41.1,   39.5,  999.0,  999.0,   28.6,   25.8,   27.6,  999.0,  999.0,  999.0,   26.1,   30.1,   29.7,   31.4,   28.8,   25.9,   22.9,   19.5,   18.4,   18.4,   23.0
2020/01/22 19:35,    5.6,    0.1,   15.5,   15.6,   17.4,   20.0,   18.5,   17.3,   17.1,   18.0,   19.1,   19.5,   20.7,   21.2,   22.0,   23.6,   23.3,   24.5,   26.0,   25.5,   25.9,   27.6,   29.5,   28.8,   27.5,   26.0,   26.9,   29.1,   31.7,   31.9,   33.9,   34.9,   37.1,   38.9,   41.8,   45.0,   43.7,   43.9,   45.8,   47.3,   46.9,   44.2,   45.1,   44.1,   45.8,   49.1,   52.9,   51.2,   53.4,   49.4,   55.0,   60.9,   62.9,   66.3,   60.9,   67.4,   62.4,   66.8,   66.9,   64.8,   63.6,  999.0,   63.4,   66.8,   63.1,   67.3,   65.5,   69.3,   61.5,   65.4,   67.3,   57.6,   62.5,   63.7,   65.9,   63.6,   58.3,   59.6,   66.1,   61.2,  999.0,  999.0,   53.9,   56.9,   59.9,  999.0,   53.2,   61.3,  999.0,   57.9,   59.4,   61.6,   49.1,   48.7,   43.6,   39.4,   34.4,   34.6,   36.7,   37.7,   42.5,  999.0,  999.0,  999.0,  999.0,   24.8,   29.3,  999.0,  999.0,  999.0,  999.0,   30.0,   33.7,   26.4,   23.7,   18.9,   17.1,   16.8,  999.0,   17.2
2020/01/22 19:45,    7.7,  999.0,   15.1,   12.0,   16.2,   19.2,   17.8,   17.8,   17.5,   19.5,   20.2,   19.4,   19.8,   20.0,   20.8,   22.7,   24.9,   25.7,   24.5,   24.7,   26.2,   27.8,   28.0,   26.7,   25.9,   26.1,   28.4,   29.6,   31.1,   33.0,   34.9,   36.6,   36.8,   37.7,   39.0,   41.4,   44.2,   44.8,   45.0,   44.5,   43.7,   44.7,   43.6,   44.3,   46.5,   50.3,   50.9,   50.4,   53.2,   50.3,   56.2,   60.2,   61.3,   64.4,   58.9,   64.5,   61.2,   65.3,   67.5,   64.8,   64.5,   71.9,   62.0,   66.7,   62.7,   63.6,   66.7,   66.7,   65.3,   64.3,   65.5,   59.8,   59.8,   63.1,   64.1,   63.4,   58.8,   63.6,   61.3,   59.0,   62.6,  999.0,   53.1,   55.7,   58.1,   53.6,   57.7,   65.2,   60.8,   58.5,   57.8,   57.4,   47.0,   43.4,   40.1,   38.8,   33.6,   32.6,   35.2,   36.9,   38.9,   36.5,   33.1,   29.0,  999.0,   24.7,   27.7,  999.0,   26.9,   29.9,   30.4,   31.0,   34.6,   24.3,   20.5,   16.9,   16.0,  999.0,   16.7,   17.9
2020/01/22 19:55,    7.5,  999.0,   16.3,   16.2,   17.6,   19.4,   18.5,   17.7,   18.8,   19.4,   19.8,   19.5,   18.6,   18.3,   19.2,   21.2,   23.8,   24.2,   24.0,   24.9,   27.4,   27.9,   27.3,   26.0,   25.4,   26.6,   28.5,   30.6,   32.4,   33.9,   34.8,   36.3,   37.7,   37.9,   38.9,   40.1,   42.8,   45.8,   45.0,   44.0,   45.1,   44.1,   45.5,   46.9,   49.5,   52.0,   50.0,   52.4,   51.0,   53.0,   56.7,   61.7,   61.0,   64.4,   61.9,   62.6,   64.9,   66.4,   65.7,   63.6,   66.4,   61.1,   64.8,   68.0,   62.5,   65.9,   66.0,   67.6,   63.3,   64.7,   63.9,   60.9,   62.1,   62.9,   61.8,   64.1,   60.1,   57.1,   64.8,   54.4,   62.2,  999.0,  999.0,   53.1,   53.1,   54.6,   55.7,   62.0,   68.6,  999.0,   58.8,   54.1,   51.3,   45.0,   40.8,   39.1,   33.5,   32.5,   36.1,   36.9,   37.9,   36.8,   31.3,  999.0,  999.0,   23.7,   26.3,   27.4,   27.8,   31.4,   35.5,   33.5,   32.5,   25.9,   21.5,   16.4,   15.9,   13.9,   17.3,   19.5
2020/01/22 20:05,    7.4,   16.3,   16.4,   16.3,   17.6,   18.6,   18.1,   18.8,   19.5,   20.0,   20.1,   20.3,   19.1,   18.0,   19.6,   23.5,   24.7,   24.7,   24.6,   25.5,   26.5,   27.6,   27.7,   27.1,   25.9,   25.8,   27.9,   29.5,   31.3,   32.6,   33.7,   35.6,   36.0,   36.8,   37.5,   38.6,   40.7,   42.5,   46.1,   42.8,   44.2,   47.3,   45.4,   47.3,   50.1,   50.5,   49.0,   52.1,   50.2,   53.7,   57.7,   62.2,   63.0,   63.6,   62.5,   61.7,   65.9,   65.5,   64.7,   63.5,   63.4,   63.9,  999.0,   63.3,   59.1,   63.4,   63.2,   65.8,   61.5,   62.0,   59.4,   62.8,   57.9,   59.3,   60.7,   58.0,   59.2,   58.2,   66.2,  999.0,   57.6,  999.0,   57.0,   53.6,   52.7,   52.1,   53.1,   60.0,   65.8,  999.0,   57.6,   55.1,   50.7,   45.2,   40.7,   37.9,   36.5,   32.0,   35.8,   35.9,   38.5,   32.9,   33.7,  999.0,  999.0,   22.4,   26.3,  999.0,   28.8,   30.7,   34.1,   34.5,   27.7,   25.0,   21.3,   17.7,   16.3,   16.6,   16.6,   18.2
2020/01/22 20:15,    4.4,  999.0,   15.8,   15.5,   16.8,   17.8,   17.2,   18.1,   19.4,   19.6,   19.3,   18.4,   18.8,   19.4,   20.8,   24.7,   25.2,   25.0,   24.7,   25.1,   25.7,   26.8,   26.8,   26.1,   25.4,   26.2,   28.8,   30.5,   31.6,   32.8,   33.7,   34.4,   35.6,   36.6,   38.8,   42.5,   45.9,   45.2,   43.1,   43.9,   44.0,   46.7,   45.4,   46.1,   49.9,   48.9,   49.3,   50.6,   50.3,   52.5,   56.6,   63.3,   60.5,   61.1,   63.9,   60.9,   66.7,   65.2,   62.9,   64.1,   65.1,   62.3,   62.7,   63.5,   61.5,   66.8,   65.5,   64.8,   64.0,   65.0,   61.7,   61.0,   59.4,   60.7,   60.4,   58.8,   62.0,   61.4,  999.0,   58.4,   57.2,   56.8,   55.9,   54.8,   57.5,   48.8,   53.0,   57.7,   62.5,   59.6,   57.9,   56.9,   51.0,   44.2,   39.5,   36.7,   35.6,   32.4,   33.3,   33.6,   37.9,   30.8,   32.4,   29.9,  999.0,   23.3,   25.3,   27.9,   28.8,   32.0,   34.1,   32.6,   28.2,   24.9,   20.8,   18.8,   17.2,   15.6,   17.9,   18.8
2020/01/22 20:25,   15.0,   14.6,   15.0,   14.9,   16.1,   17.0,   17.2,   18.6,   19.6,   19.6,   19.3,   19.4,   19.8,   20.2,   21.2,   24.1,   26.9,   25.5,   24.6,   25.2,   25.9,   25.6,   25.2,   24.9,   25.3,   25.4,   27.1,   29.4,   30.4,   31.3,   32.6,   32.8,   34.2,   36.5,   38.6,   41.8,   43.8,   44.9,   42.8,   43.7,   43.0,   45.2,   46.3,   48.0,   47.4,   48.8,   49.9,   49.7,   50.1,   52.6,   56.0,   60.4,   59.1,   62.4,   66.6,   61.4,   67.1,   64.7,   64.2,   61.1,   65.8,   60.5,   66.5,   60.7,   62.8,   65.4,   65.4,   64.2,   64.8,   63.0,   61.8,   57.8,   59.5,   63.2,   59.0,   57.0,   56.6,   62.0,   52.3,   55.8,   57.1,  999.0,   53.5,   51.3,  999.0,  999.0,   49.6,   54.3,   59.6,   60.5,   55.7,   57.1,   51.5,   45.0,   38.6,   37.4,   35.3,   34.2,   33.5,   33.5,   37.9,   32.6,   32.8,  999.0,  999.0,   25.6,   22.9,   26.7,   27.6,   32.8,  999.0,   33.8,   24.7,   23.8,   20.7,   17.7,   16.4,   14.4,   18.0,   19.6
2020/01/22 20:35,   15.8,   15.3,   14.4,   14.8,   16.2,   16.6,   17.2,   18.4,   19.3,   18.9,   19.3,   20.6,   20.8,   21.3,   22.2,   25.3,   27.4,   25.5,   25.3,   25.8,   25.2,   26.5,   26.8,   25.8,   25.8,   27.0,   27.9,   29.3,   31.1,   31.7,   31.3,   32.4,   35.8,   39.7,   41.6,   44.0,   44.6,   43.6,   42.4,   44.1,   43.7,   45.4,   49.3,   46.1,   45.8,   48.4,   50.2,   50.2,   51.4,   52.6,   56.6,   60.2,   58.8,   65.3,   60.5,   63.0,   63.7,   62.7,  999.0,  999.0,   66.9,   58.5,  999.0,   63.4,   62.3,   64.0,   65.1,   64.2,   63.2,   64.8,   62.0,   57.1,   58.5,   66.0,   66.2,  999.0,   55.5,   60.9,  999.0,   55.4,  999.0,   49.0,   52.0,  999.0,  999.0,  999.0,   50.5,   54.4,   56.5,   63.9,   57.8,   55.8,  999.0,   45.8,   40.0,   37.4,   33.8,   31.3,   30.8,   33.6,   35.3,   33.0,   31.9,  999.0,  999.0,  999.0,   23.9,   25.4,   27.8,  999.0,  999.0,  999.0,   27.5,   21.1,   19.2,   16.6,   15.9,   16.1,   17.6,   19.5
2020/01/22 20:45,   15.8,   15.6,   14.9,   14.9,   16.3,   16.1,   16.6,   17.9,   18.9,   18.8,   19.1,   20.0,   20.9,   21.8,   22.9,   24.0,   25.4,   24.6,   24.7,   24.9,   24.6,   26.2,   26.9,   25.9,   25.8,   27.2,   28.3,   29.2,   29.4,   29.8,   30.9,   33.8,   37.0,   40.3,   41.7,   42.1,   41.7,   40.6,   40.9,   42.1,   45.2,   44.7,   44.1,   45.9,   49.0,   48.2,   47.5,   49.6,   50.1,   53.9,   55.8,   57.6,   61.3,   59.7,   63.4,   60.6,   61.5,   64.6,   60.0,   66.9,   64.4,  999.0,   60.9,   58.6,  999.0,   63.5,   64.5,   67.5,  999.0,   62.3,   61.3,   63.0,   55.5,   61.4,   64.3,   54.5,   57.0,   60.5,  999.0,  999.0,  999.0,   52.7,   55.0,   58.5,  999.0,  999.0,   48.2,   53.8,   57.7,  999.0,   53.9,   53.5,   52.8,   48.4,   42.7,   34.6,   33.2,  999.0,  999.0,   31.0,   33.6,   33.7,   28.8,  999.0,  999.0,  999.0,  999.0,   25.6,  999.0,  999.0,  999.0,  999.0,   23.9,   23.9,   20.5,   17.1,   18.3,   18.7,   17.5,   17.8
2020/01/22 20:55,   15.9,   15.9,   15.5,   14.8,   16.2,   16.0,   16.6,   18.2,   18.7,   18.6,   18.8,   19.1,   19.9,   21.1,   22.4,   23.7,   25.4,   25.2,   24.5,   24.2,   25.0,   25.1,   24.4,   24.0,   24.1,   25.1,   26.2,   27.4,   28.2,   29.8,   32.3,   33.4,   35.7,   37.9,   42.5,   41.1,   41.5,   41.6,   41.6,   44.0,   46.0,   44.5,   45.5,   47.5,   51.1,   47.6,   50.2,   52.3,   50.1,   54.6,   57.2,   58.6,   62.4,   60.4,   61.4,   63.7,   65.7,   63.7,   62.8,   66.8,   62.3,   62.4,   63.7,   60.5,   64.1,   65.3,   65.5,   68.0,   61.6,   65.7,   62.2,   64.6,   56.0,   61.3,   62.4,   56.1,   56.3,   61.0,  999.0,  999.0,   53.5,  999.0,   52.7,   53.5,   53.2,  999.0,   46.4,   52.0,   58.3,   62.2,   51.0,   54.8,   50.9,   48.7,   45.1,   36.5,   32.1,   33.8,  999.0,   30.6,   33.0,   32.6,   31.5,   30.3,  999.0,  999.0,   21.7,   24.3,   26.5,   30.4,   34.0,   27.6,   23.3,   21.5,   18.4,   16.6,   14.7,   16.2,   18.0,   18.0
2020/01/22 21:05,   15.1,   15.9,   15.9,   16.1,   16.0,   15.8,   17.5,   18.2,   17.8,   18.4,   18.5,   19.3,   20.6,   22.0,   23.1,   25.0,   25.5,   24.5,   24.3,   24.4,   24.9,   24.9,   24.4,   23.7,   24.4,   24.5,   25.1,   26.7,   28.2,   29.6,   30.3,   32.6,   35.9,   39.3,   41.6,   42.1,   40.2,   40.7,   42.7,   42.3,   42.3,   44.0,   47.0,   47.8,   48.7,   46.3,   48.0,   49.6,   47.3,   52.5,   54.9,   58.3,   58.7,   58.7,   62.7,   60.5,   66.3,   60.6,   64.3,   63.7,   57.2,   60.9,   63.1,   63.5,   62.4,   65.2,   64.5,   67.0,   59.9,   64.7,   63.0,   64.5,   55.7,   59.8,   61.8,  999.0,   55.6,  999.0,  999.0,   56.5,  999.0,  999.0,   51.0,   52.6,  999.0,   57.3,   48.8,   53.1,   59.3,   65.4,  999.0,   55.8,   53.0,   45.5,   43.7,   38.6,   32.3,   33.7,   31.3,   32.7,   33.7,   33.5,   31.5,   32.5,   23.4,   21.3,   24.7,   26.6,   27.8,   29.5,   32.6,  999.0,   24.7,   24.2,   21.4,   17.3,   16.1,   15.4,   17.0,   17.9
2020/01/22 21:15,   13.7,   15.8,   16.1,   15.9,   15.9,   16.1,   17.9,   19.1,   19.7,   19.5,   19.3,   19.0,   21.0,   23.0,   23.1,   23.6,   24.5,   24.5,   23.7,   23.3,   23.5,   24.2,   24.4,   23.6,   24.2,   24.2,   24.1,   26.2,   28.4,   29.7,   31.0,   33.9,   37.4,   40.5,   41.6,   40.3,   40.3,   41.1,   42.2,   40.6,   43.2,   46.9,   46.5,   47.6,   46.1,   47.7,   48.2,   45.4,   48.7,   52.6,   56.3,   60.1,   57.4,   57.2,   61.5,   59.0,   63.4,   60.3,   64.5,   58.9,   63.1,   61.4,   61.3,   63.6,   61.6,   64.8,   67.3,   65.2,   59.5,   62.8,   64.2,   65.6,   55.9,   60.9,   63.6,   56.2,   59.4,  999.0,   53.8,   58.5,   55.6,  999.0,   54.5,   53.8,   57.6,  999.0,   50.6,   53.4,   59.5,   65.3,   58.2,   53.2,   55.1,   44.0,   42.2,   39.2,   34.0,   31.6,   29.5,   31.9,   31.3,   32.1,   31.6,   30.9,   32.1,   21.7,   24.1,   25.2,   27.8,   27.7,  999.0,  999.0,   24.8,   23.5,   20.9,   16.5,   14.9,  999.0,   15.8,   16.6
2020/01/22 21:25,   12.6,   14.3,   15.3,   15.3,   15.4,   16.2,   19.1,   19.4,   20.1,   19.8,   20.3,   20.3,   21.7,   23.0,   23.5,   23.5,   24.0,   23.9,   24.1,   23.4,   23.2,   23.1,   23.8,   23.6,   23.7,   23.4,   24.5,   26.4,   28.7,   30.1,   30.9,   32.7,   36.1,   39.8,   40.4,   39.1,   39.4,   39.9,   40.9,   42.3,   44.5,   44.8,   47.3,   45.2,   45.8,   46.9,   45.2,   47.6,   50.5,   54.6,   59.2,   56.5,   56.4,   60.3,   60.2,   60.6,   67.4,   60.2,   64.4,   59.7,   62.8,   62.2,   60.9,   61.9,   62.8,   63.6,   64.0,   65.3,  999.0,   60.1,   64.2,   62.1,   53.9,   57.7,   60.0,   60.2,   53.7,   60.5,   54.1,   57.8,  999.0,  999.0,   53.0,  999.0,  999.0,  999.0,  999.0,   53.3,   58.8,   65.1,  999.0,  999.0,   48.7,   42.9,   41.0,   39.6,   34.9,   32.6,   28.5,   31.4,   31.6,   33.3,   31.8,   29.8,  999.0,   22.4,   24.4,   26.3,  999.0,   28.4,  999.0,  999.0,   23.1,   23.8,   19.6,   16.5,   14.8,   14.7,   14.3,   17.1
2020/01/22 21:35,   13.4,   15.2,   15.5,   14.3,   15.6,   15.6,   18.6,   19.8,   20.6,   20.7,   20.5,   20.5,   21.5,   21.9,   22.4,   23.5,   24.3,   24.0,   23.5,   22.7,   21.5,   21.2,   22.3,   22.8,   22.2,   22.9,   25.1,   28.0,   30.1,   31.6,   32.9,   34.1,   37.9,   40.2,   38.4,   38.7,   40.1,   40.7,   43.0,   44.0,   42.7,   44.8,   46.3,   44.9,   46.8,   44.8,   45.2,   48.2,   51.1,   54.7,   59.5,   54.7,   55.8,   60.6,   58.5,   60.9,   63.5,   59.3,   63.7,   60.1,   62.3,   62.5,   59.2,   59.9,   60.7,   62.4,   65.4,   63.9,  999.0,   60.0,   65.8,   59.6,   55.4,   56.7,   60.6,   61.2,   50.0,  999.0,   54.8,   56.3,   55.7,  999.0,   52.7,   56.8,  999.0,  999.0,   51.2,   53.3,   60.1,   64.4,   57.5,   55.3,   50.1,   46.1,   39.4,   37.5,   35.4,   32.9,   27.5,   30.8,   31.6,   33.4,   31.5,   30.6,  999.0,   22.0,   24.2,   28.2,   26.7,   29.7,  999.0,  999.0,   26.9,   24.8,   19.3,   16.8,   14.6,   14.9,  999.0,   17.8
2020/01/22 21:45,   13.3,   13.7,   14.2,   15.6,   15.3,   15.7,   17.4,   19.8,   20.3,   20.7,   20.2,   20.2,   21.8,   22.3,   23.1,   24.1,   24.3,   23.8,   22.4,   22.8,   21.5,   21.0,   21.8,   21.8,   21.6,   23.1,   25.8,   28.4,   30.4,   32.5,   34.8,   36.2,   38.0,   40.1,   38.6,   39.2,   41.3,   42.1,   42.6,   42.8,   43.6,   44.8,   45.9,   44.8,   45.4,   45.9,   44.9,   47.9,   50.8,   56.3,   60.0,   55.0,   58.4,   61.0,   58.9,   62.5,   64.7,   63.3,   65.3,   60.1,   61.4,   63.8,   60.4,   61.0,   63.6,   64.9,   64.0,   67.6,   60.0,   62.8,   62.5,   60.5,   55.5,   56.4,   60.3,   60.7,  999.0,   57.0,   54.7,   54.0,   52.3,   54.5,   53.0,   56.2,  999.0,  999.0,  999.0,   52.0,   58.9,   65.0,   57.2,   55.8,   54.7,   45.6,   40.5,   38.2,   34.7,   32.8,   29.5,   32.0,   32.6,   32.9,   33.2,   31.2,  999.0,   23.2,   25.1,   27.7,   28.5,   33.1,  999.0,  999.0,   27.2,   23.1,   19.3,   16.9,   14.4,  999.0,  999.0,  999.0
2020/01/22 21:55,   13.1,   13.6,   14.1,   14.5,   14.7,   15.2,   16.5,   18.5,   19.9,   20.7,   20.4,   19.6,   20.7,   21.6,   22.5,   23.6,   23.5,   22.3,   21.3,   20.8,   21.2,   21.1,   21.2,   21.0,   21.3,   23.2,   25.4,   28.4,   30.5,   32.9,   34.5,   36.4,   38.2,   40.2,   40.3,   40.8,   40.5,   42.2,   43.9,   42.8,   43.4,   45.9,   45.4,   45.9,   44.2,   45.0,   46.0,   48.8,   53.6,   58.7,   57.9,   57.7,   59.7,   62.1,   60.7,   63.8,   62.6,   62.9,   65.0,  999.0,   60.8,   64.1,   60.1,   60.4,   61.4,   65.7,   64.0,   66.0,   59.6,   61.5,   59.9,   59.3,   61.3,   53.5,   56.5,   61.3,  999.0,   55.1,   58.7,   50.6,   52.1,  999.0,   51.4,   55.9,  999.0,  999.0,  999.0,   50.0,   55.8,   61.7,   57.7,   55.4,   53.5,   48.3,   39.2,   37.4,   34.6,   31.8,   28.8,   31.8,   30.8,   30.9,   33.6,   28.3,  999.0,   24.8,   25.1,   25.2,   28.1,   30.9,  999.0,   25.1,   27.5,   22.8,   20.4,   16.6,   15.8,   14.9,   15.6,   16.9
2020/01/22 22:05,   12.8,   14.2,   14.0,   13.4,   14.4,   14.9,   15.9,   17.5,   19.1,   20.1,   20.2,   20.2,   19.7,   20.0,   21.9,   22.5,   22.7,   21.9,   21.2,   20.0,   20.4,   19.9,   20.4,   20.4,   21.7,   24.1,   27.1,   29.9,   32.1,   34.2,   36.8,   38.2,   38.9,   39.9,   39.7,   41.7,   41.5,   42.2,   42.9,   42.9,   43.5,   45.7,   46.1,   46.5,   46.1,   47.0,   44.1,   48.6,   53.7,   59.3,   56.9,   58.4,   59.5,   61.1,   62.4,   62.8,   61.0,   64.3,   61.4,   65.8,   64.9,   58.4,   61.1,   62.0,   60.3,   65.1,   64.0,   62.3,   59.5,   63.1,   59.0,   59.4,   55.4,   54.7,   56.8,   59.7,   55.3,  999.0,  999.0,   50.6,   56.1,  999.0,   51.8,   54.4,   57.4,  999.0,  999.0,   47.1,   51.8,   58.5,   58.0,   57.0,   52.2,   51.0,   43.1,   38.9,   35.8,   32.8,   30.1,   29.5,   30.6,   30.6,   32.1,   29.2,  999.0,   23.8,  999.0,  999.0,   28.6,  999.0,  999.0,   27.9,   26.6,   23.1,   20.7,   16.9,   15.4,   15.0,   15.8,   17.1
2020/01/22 22:15,   12.4,   13.3,   13.7,   14.0,   13.7,   14.6,   15.9,   17.4,   18.7,   20.3,   20.0,   19.5,   20.1,   20.8,   22.0,   21.9,   21.5,   20.6,   20.5,   20.1,   19.9,   20.1,   20.1,   19.9,   21.2,   23.7,   27.0,   30.0,   32.3,   34.5,   36.4,   37.8,   38.2,   39.1,   40.7,   40.8,   41.0,   42.3,   42.5,   43.2,   44.4,   45.1,   45.9,   45.5,   45.2,   45.1,   43.6,   48.6,   54.2,   59.7,   55.6,   58.5,   59.6,   60.7,   63.7,   65.8,   61.7,   65.5,   61.1,   63.5,   61.3,   62.4,   63.4,   62.1,   62.5,   66.1,   65.3,   64.6,   61.0,   63.1,   58.0,   60.4,   53.7,   56.8,   56.5,   59.5,   55.4,   54.6,   53.2,   50.8,   53.5,   49.0,   48.1,   52.3,   57.8,  999.0,  999.0,  999.0,   51.4,   57.8,   61.2,   56.5,   54.8,   50.8,   47.4,   43.3,   37.1,   33.6,   33.6,   31.1,   33.3,   31.2,   31.3,   31.1,   30.5,   24.3,   29.6,   25.7,   24.7,  999.0,   27.6,  999.0,   27.6,   22.0,   20.3,   17.2,   15.8,   14.7,   15.7,   17.5
2020/01/22 22:25,   12.5,   13.0,   13.6,   13.5,   13.8,   14.5,   16.4,   18.1,   19.0,   20.1,   21.0,   21.7,   19.7,   20.3,   20.8,   20.4,   20.0,   19.6,   19.6,   19.5,   19.9,   20.1,   20.5,   19.2,   20.1,   22.1,   25.0,   28.7,   31.1,   33.6,   35.0,   35.7,   37.7,   37.9,   39.3,   41.4,   41.1,   42.3,   43.0,   44.3,   44.7,   45.6,   45.5,   45.8,   44.3,   46.3,   46.1,   50.2,   55.6,   61.7,   56.3,   61.2,   59.6,   61.4,   65.2,   61.9,   61.7,   66.6,   61.8,   67.5,   61.9,   61.0,   61.6,   61.4,   63.0,   66.4,   65.2,   61.1,   61.7,   61.6,   60.5,   58.2,   53.1,   54.2,   55.6,   56.8,  999.0,   52.6,   54.2,   47.9,   52.1,   50.8,   50.7,   53.0,   57.9,  999.0,  999.0,   51.2,   54.2,   57.3,   57.6,   55.4,   55.8,   45.7,   42.8,   40.4,   36.5,   32.5,   31.8,   31.1,   32.0,   32.4,   27.3,   27.6,   28.4,   23.2,   24.1,   25.2,   26.4,   29.9,  999.0,   30.5,   27.0,   23.7,   21.6,   17.0,   15.6,   13.9,   15.7,   17.1
2020/01/22 22:35,   11.1,   11.7,   12.2,   12.7,   13.4,   15.5,   17.3,   19.0,   19.5,   20.8,   22.7,   21.6,   20.4,   20.4,   20.5,   20.1,   19.6,   19.9,   19.9,   20.0,   20.4,   19.6,   19.7,   19.9,   21.4,   23.2,   25.9,   29.7,   32.4,   34.7,   36.2,   36.7,   38.9,   37.5,   39.7,   40.8,   41.2,   42.9,   43.0,   43.9,   44.6,   44.6,   44.3,   43.6,   43.7,   45.4,   47.4,   50.6,   53.3,   59.5,   57.4,   59.2,   59.7,   60.7,   64.1,   65.6,   63.0,   67.0,   61.7,   64.8,   57.1,   59.8,   62.4,   61.1,   63.6,   66.2,   67.1,   62.4,   62.0,   64.0,   58.6,   55.7,   55.9,   54.5,   54.5,   54.7,   54.2,   53.1,   55.5,   48.1,   52.7,   51.6,   50.5,   51.3,   56.2,  999.0,  999.0,   52.4,   53.5,   57.6,   57.5,   54.5,   58.2,   49.6,   42.7,   39.2,   35.7,   30.8,   30.3,   31.9,   30.8,   30.2,   28.7,   25.6,   27.1,   26.3,   25.3,   26.2,   27.1,  999.0,   29.1,  999.0,   27.1,   23.8,   21.9,   21.0,   18.4,   15.3,   15.7,   18.1
2020/01/22 22:45,   11.6,   12.0,   11.4,   12.3,   14.9,   17.5,   18.2,   19.1,   19.8,   22.3,   23.8,   24.3,   22.1,   19.8,   20.9,   20.2,   20.0,   19.4,   19.5,   19.5,   21.2,   19.7,   19.5,   20.1,   20.3,   23.8,   26.9,   28.2,   31.5,   33.0,   34.7,   38.3,   39.0,   40.7,   38.1,   38.2,   39.6,   41.0,   41.9,   41.5,   42.2,   42.3,   41.9,   42.7,   45.0,   45.9,   46.3,   49.5,   52.1,   57.2,   61.5,   58.1,   58.9,   59.8,   62.3,   65.1,   61.3,   67.3,   61.0,   67.0,   60.2,   60.2,   62.5,   61.9,   61.7,   65.9,   67.3,   64.4,   61.9,   64.1,   58.4,   57.7,   57.5,   55.0,   56.0,   56.0,   54.4,   53.6,   55.5,   48.4,   54.0,   51.1,   50.9,   52.3,   54.6,  999.0,  999.0,   50.1,   55.8,   58.6,   56.9,   55.4,   55.9,   51.6,   45.6,   39.4,   35.6,   31.9,   28.9,   29.6,   30.6,   29.5,   27.7,   26.6,   26.2,   27.6,   26.3,   27.8,   28.6,  999.0,  999.0,  999.0,   28.1,   26.4,   21.8,   20.0,  999.0,  999.0,   15.5,   19.3
2020/01/22 22:55,   10.6,   11.1,   10.9,   13.5,   17.3,   18.2,   18.5,   18.9,   20.8,   22.7,   23.4,   23.4,   19.9,   20.4,   21.3,   20.1,   19.4,   19.1,   19.5,   19.6,   19.7,   19.4,   20.6,   21.5,   22.3,   26.1,   28.3,   30.2,   31.4,   33.3,   34.0,   35.7,   37.9,   39.0,   39.1,   38.9,   40.9,   40.9,   40.2,   42.9,   43.4,   43.7,   42.7,   45.5,   43.9,   44.4,   48.5,   48.0,   52.1,   57.2,   59.1,   59.1,   58.4,   58.4,   60.5,   63.8,   62.5,   68.5,   61.6,   67.0,  999.0,   59.6,   62.9,   63.6,   64.0,   63.9,   68.3,   66.4,   63.3,   64.2,   58.0,   57.3,   58.2,   54.7,   57.0,   57.8,   53.9,   52.5,   47.7,   48.3,   52.0,   48.6,   50.6,   51.8,   54.9,  999.0,  999.0,   49.6,   52.6,   55.4,   54.8,   56.3,   54.8,   50.6,   44.6,   40.9,   37.2,   32.2,   31.7,   30.6,   30.9,   30.4,   30.2,   27.0,   27.2,  999.0,   25.0,   27.4,   30.5,  999.0,  999.0,  999.0,   27.5,   25.6,   22.6,   20.9,  999.0,  999.0,   13.5,   17.5
2020/01/22 23:05,   10.3,   10.0,   10.8,   12.9,   17.0,   17.6,   17.5,   17.5,   19.7,   21.7,   22.2,   22.9,   21.0,   20.8,   21.3,   19.0,   18.5,   19.2,   19.3,   19.1,   19.3,   19.4,   20.4,   21.8,   23.5,   25.9,   27.5,   28.7,   30.6,   32.3,   34.6,   35.8,   37.1,   38.0,   36.5,   38.4,   41.1,   40.6,   42.8,   44.5,   44.6,   44.8,   44.0,   44.5,   44.9,   46.8,   47.1,   48.8,   52.6,   57.6,   59.9,   59.2,   60.7,   60.1,   60.3,   62.8,   64.3,   66.4,   59.9,   64.4,   60.9,   61.2,   64.5,   61.1,   65.2,   64.8,   68.1,   69.6,   64.0,   65.3,   60.5,   58.9,   59.6,   56.9,   57.2,   55.8,   55.4,   51.1,   48.1,   52.9,   52.5,   47.4,   50.3,   52.5,  999.0,  999.0,  999.0,  999.0,   52.8,   56.1,   54.2,   53.7,   54.4,   53.0,   47.5,   43.7,   39.3,   35.5,   30.8,   31.9,   31.7,   30.5,   29.4,   27.8,   27.5,   26.8,   24.7,   27.0,   29.5,   29.0,   31.8,   26.3,   28.3,   22.6,   19.9,   19.5,  999.0,  999.0,   15.6,   17.3
2020/01/22 23:15,    9.5,    9.7,   10.7,   13.9,   16.6,   16.3,   16.6,   17.2,   19.7,   21.0,   22.1,   22.6,   22.8,   20.3,   20.5,   20.2,   19.1,   19.2,   19.1,   18.9,   18.5,   19.1,   20.1,   21.8,   23.1,   24.9,   26.8,   29.4,   31.8,   34.2,   36.2,   37.4,   37.1,   37.4,   38.1,   37.7,   40.9,   44.1,   46.2,   45.5,   44.5,   44.0,   45.8,   45.1,   45.4,   47.4,   47.3,   49.6,   52.1,   55.0,   56.9,   61.2,   59.6,   60.4,   58.5,   62.4,   66.0,   64.0,   63.2,   59.6,   63.7,   60.4,   63.5,   60.2,   64.7,   66.2,   66.2,   67.9,   64.4,   64.1,   60.5,   59.0,   59.6,   60.0,   57.5,   55.2,   55.3,   51.3,   52.0,   53.0,   53.5,   46.4,   48.7,   48.4,   49.8,   57.7,  999.0,  999.0,   54.0,   50.6,   50.5,   51.2,   52.8,   51.5,   48.3,   43.0,   39.7,   33.2,   29.6,   30.2,   31.0,   28.7,   29.0,   28.4,  999.0,  999.0,   24.9,   27.0,  999.0,   30.0,   32.9,   29.2,   27.9,   23.2,   19.3,   18.0,  999.0,  999.0,   15.3,   17.0
2020/01/22 23:25,    9.2,   10.6,   11.6,   15.0,   16.1,   15.8,   15.9,   17.1,   18.5,   20.2,   21.0,   21.6,   22.4,   22.2,   19.4,   19.1,   17.9,   18.6,   18.6,   17.9,   17.5,   18.5,   19.9,   21.4,   23.2,   26.1,   29.4,   32.0,   33.3,   33.8,   34.8,   35.2,   36.0,   35.6,   36.8,   40.3,   43.8,   45.4,   45.4,   44.8,   43.7,   44.7,   44.3,   45.7,   45.8,   46.2,   47.7,   49.5,   49.8,   55.1,   57.8,   61.9,   57.6,   60.8,   59.4,   62.5,   63.2,   64.6,   64.5,   62.8,   61.9,   62.4,   62.2,   60.9,   65.2,   64.3,   66.6,   69.4,   62.0,   64.8,   60.4,   59.1,   57.7,   59.6,   57.7,   55.3,   57.2,   52.2,   53.9,   54.1,   51.6,   49.3,   47.3,   48.8,   53.4,  999.0,   49.4,   51.3,   57.0,   50.4,   50.4,   52.0,   56.2,   54.9,   49.9,   45.0,   40.6,   33.4,   29.4,   32.0,   31.5,   29.1,   28.7,   28.2,   28.7,  999.0,   25.6,   27.9,   31.4,   30.9,   31.3,   28.8,   28.9,   22.7,   18.3,   17.9,  999.0,  999.0,   15.6,   16.7
2020/01/22 23:35,   10.3,   11.1,   14.1,   15.4,   15.6,   14.9,   15.6,   17.3,   19.1,   19.9,   20.8,   22.0,   22.6,   21.3,   19.4,   17.8,   17.4,   18.5,   17.6,   17.5,   16.1,   18.3,   21.0,   23.0,   25.3,   27.9,   31.0,   33.5,   33.9,   33.4,   34.2,   34.9,   36.1,   35.7,   38.0,   41.4,   43.4,   44.6,   45.4,   45.0,   44.7,   43.5,   44.7,   45.0,   45.7,   47.7,   46.4,   49.2,   53.6,   54.2,   55.8,   60.9,   57.0,   61.3,   58.4,   61.6,   62.6,   63.7,   61.2,   63.0,   61.9,   61.5,   59.9,   59.1,   64.9,   63.0,   66.1,   67.4,   62.6,   63.0,   65.8,   55.2,   55.9,   58.2,   56.4,   55.2,   58.6,   55.8,   54.1,   53.1,   54.9,   50.2,   52.7,   48.3,   54.0,  999.0,   53.8,  999.0,   55.4,   50.8,   51.0,   52.5,   56.3,   55.4,   51.0,   45.8,   40.6,   33.6,   30.0,   30.8,   30.6,   31.0,   27.4,   28.5,   27.5,   28.6,   25.8,   28.1,   31.4,  999.0,  999.0,   27.2,   28.3,   25.3,   20.6,   17.1,  999.0,  999.0,   14.4,   15.9
2020/01/22 23:45,   11.0,   10.7,   11.1,   14.5,   14.2,   14.1,   14.7,   17.1,   18.4,   19.2,   19.7,   20.5,   22.4,   21.7,   19.7,   18.2,   18.5,   18.3,   17.6,   16.6,   16.9,   19.4,   21.8,   23.6,   26.5,   29.5,   32.4,   34.3,   34.9,   34.7,   35.6,   35.1,   34.6,   36.0,   39.2,   43.5,   45.4,   44.2,   44.1,   44.6,   44.1,   43.9,   45.1,   46.0,   45.4,   45.1,   48.5,   52.5,   55.0,   50.8,   54.5,   60.7,   58.7,   61.2,   58.0,   61.5,   63.5,   63.4,   60.9,   62.2,   61.9,   59.1,   61.0,   59.5,   65.0,   62.4,   66.6,   69.0,   61.1,   64.1,   62.1,   56.1,   57.8,   58.9,   56.9,   55.8,   57.6,   54.5,   54.0,   53.3,   53.0,   51.3,   54.3,   47.1,   49.8,   55.2,  999.0,  999.0,   48.9,   50.2,  999.0,   50.1,   54.0,   54.5,   49.2,   45.5,   42.3,   37.1,   31.3,   29.6,   31.5,   29.9,   28.6,   28.5,  999.0,  999.0,  999.0,   28.5,   30.7,   30.5,  999.0,  999.0,   26.2,   26.2,   20.2,   18.7,   15.4,  999.0,   15.0,   16.8
2020/01/22 23:55,   10.3,   11.5,   11.2,   13.3,   13.4,   13.1,   14.0,   16.2,   18.0,   19.1,   20.0,   20.3,   22.2,   22.3,   20.0,   18.5,   18.2,   17.7,   16.3,   16.6,   18.2,   19.8,   22.0,   23.8,   26.8,   30.0,   32.5,   34.1,   34.6,   35.0,   35.2,   34.9,   34.7,   37.9,   42.1,   44.9,   45.2,   44.5,   44.1,   44.4,   44.6,   44.6,   45.0,   44.9,   45.3,   46.3,   50.1,   52.3,   55.4,   50.7,   56.0,   61.2,   60.1,   59.6,   59.2,   60.9,   64.1,   68.0,   66.3,   63.7,   63.9,   62.6,   57.4,   61.8,   65.5,   65.8,   66.7,   68.4,   61.6,   62.8,   62.2,   56.8,   59.1,   55.9,   58.4,   58.2,   55.5,   53.7,   54.6,   52.3,   54.4,   51.1,   54.4,   46.7,   50.7,   56.4,  999.0,   54.6,   62.2,  999.0,   52.2,   49.9,   54.6,   54.5,   55.0,   47.5,   43.4,   39.0,   33.9,   31.3,   29.6,   31.1,   29.9,   28.9,  999.0,   25.5,   26.9,   28.3,   29.8,  999.0,  999.0,   28.3,   26.6,   23.1,   19.8,   17.0,  999.0,  999.0,  999.0,   17.4
